<?xml version="1.0" encoding="UTF-8" standalone="no" ?>
<gpx xmlns="http://www.topografix.com/GPX/1/1" xmlns:xsi="http://www.w3.org/2001/XMLSchema-instance" xsi:schemaLocation="http://www.topografix.com/GPX/1/1 http://www.topografix.com/GPX/1/1/gpx.xsd" version="1.1" creator="VisuGPX - https://www.visugpx.com">
  <metadata>
    <name>L'Aubette MA-Rando-2020-06-28</name>
  </metadata>
  <trk>
    <name><![CDATA[MA-Rando-2020-06-28-180915]]></name>
    <trkseg>
      <trkpt lat="49.03072" lon="1.93647">
        <ele>44</ele>
        <time>2020-06-28T08:03:29Z</time>
      </trkpt>
      <trkpt lat="49.03081" lon="1.9364">
        <ele>44</ele>
        <time>2020-06-28T08:03:34Z</time>
      </trkpt>
      <trkpt lat="49.03087" lon="1.93628">
        <ele>46</ele>
        <time>2020-06-28T08:03:42Z</time>
      </trkpt>
      <trkpt lat="49.03093" lon="1.93617">
        <ele>46</ele>
        <time>2020-06-28T08:03:49Z</time>
      </trkpt>
      <trkpt lat="49.03093" lon="1.93598">
        <ele>46</ele>
        <time>2020-06-28T08:04:07Z</time>
      </trkpt>
      <trkpt lat="49.03085" lon="1.93586">
        <ele>45</ele>
        <time>2020-06-28T08:04:15Z</time>
      </trkpt>
      <trkpt lat="49.03079" lon="1.93574">
        <ele>45</ele>
        <time>2020-06-28T08:04:21Z</time>
      </trkpt>
      <trkpt lat="49.03076" lon="1.93561">
        <ele>45</ele>
        <time>2020-06-28T08:04:27Z</time>
      </trkpt>
      <trkpt lat="49.03077" lon="1.93546">
        <ele>45</ele>
        <time>2020-06-28T08:04:34Z</time>
      </trkpt>
      <trkpt lat="49.03083" lon="1.93532">
        <ele>48</ele>
        <time>2020-06-28T08:04:40Z</time>
      </trkpt>
      <trkpt lat="49.03086" lon="1.93519">
        <ele>48</ele>
        <time>2020-06-28T08:04:46Z</time>
      </trkpt>
      <trkpt lat="49.03091" lon="1.93504">
        <ele>47</ele>
        <time>2020-06-28T08:04:54Z</time>
      </trkpt>
      <trkpt lat="49.03095" lon="1.9349">
        <ele>49</ele>
        <time>2020-06-28T08:05:01Z</time>
      </trkpt>
      <trkpt lat="49.03097" lon="1.93475">
        <ele>50</ele>
        <time>2020-06-28T08:05:10Z</time>
      </trkpt>
      <trkpt lat="49.03097" lon="1.9346">
        <ele>50</ele>
        <time>2020-06-28T08:05:19Z</time>
      </trkpt>
      <trkpt lat="49.03096" lon="1.93443">
        <ele>51</ele>
        <time>2020-06-28T08:05:28Z</time>
      </trkpt>
      <trkpt lat="49.03094" lon="1.93427">
        <ele>50</ele>
        <time>2020-06-28T08:05:36Z</time>
      </trkpt>
      <trkpt lat="49.03094" lon="1.93412">
        <ele>52</ele>
        <time>2020-06-28T08:05:44Z</time>
      </trkpt>
      <trkpt lat="49.03093" lon="1.93397">
        <ele>53</ele>
        <time>2020-06-28T08:05:53Z</time>
      </trkpt>
      <trkpt lat="49.03098" lon="1.93382">
        <ele>54</ele>
        <time>2020-06-28T08:06:02Z</time>
      </trkpt>
      <trkpt lat="49.03098" lon="1.93368">
        <ele>55</ele>
        <time>2020-06-28T08:06:12Z</time>
      </trkpt>
      <trkpt lat="49.03101" lon="1.93353">
        <ele>55</ele>
        <time>2020-06-28T08:06:21Z</time>
      </trkpt>
      <trkpt lat="49.03109" lon="1.93345">
        <ele>55</ele>
        <time>2020-06-28T08:06:28Z</time>
      </trkpt>
      <trkpt lat="49.03118" lon="1.93336">
        <ele>56</ele>
        <time>2020-06-28T08:06:36Z</time>
      </trkpt>
      <trkpt lat="49.03126" lon="1.93328">
        <ele>58</ele>
        <time>2020-06-28T08:06:44Z</time>
      </trkpt>
      <trkpt lat="49.03135" lon="1.9332">
        <ele>59</ele>
        <time>2020-06-28T08:06:52Z</time>
      </trkpt>
      <trkpt lat="49.03143" lon="1.93311">
        <ele>59</ele>
        <time>2020-06-28T08:07:00Z</time>
      </trkpt>
      <trkpt lat="49.03152" lon="1.93307">
        <ele>59</ele>
        <time>2020-06-28T08:07:08Z</time>
      </trkpt>
      <trkpt lat="49.03163" lon="1.9331">
        <ele>59</ele>
        <time>2020-06-28T08:07:19Z</time>
      </trkpt>
      <trkpt lat="49.03173" lon="1.93315">
        <ele>62</ele>
        <time>2020-06-28T08:07:28Z</time>
      </trkpt>
      <trkpt lat="49.03182" lon="1.93322">
        <ele>62</ele>
        <time>2020-06-28T08:07:35Z</time>
      </trkpt>
      <trkpt lat="49.0319" lon="1.93332">
        <ele>63</ele>
        <time>2020-06-28T08:07:44Z</time>
      </trkpt>
      <trkpt lat="49.03199" lon="1.9334">
        <ele>62</ele>
        <time>2020-06-28T08:07:52Z</time>
      </trkpt>
      <trkpt lat="49.03208" lon="1.93347">
        <ele>62</ele>
        <time>2020-06-28T08:07:58Z</time>
      </trkpt>
      <trkpt lat="49.03216" lon="1.93355">
        <ele>62</ele>
        <time>2020-06-28T08:08:07Z</time>
      </trkpt>
      <trkpt lat="49.03224" lon="1.93365">
        <ele>63</ele>
        <time>2020-06-28T08:08:15Z</time>
      </trkpt>
      <trkpt lat="49.03232" lon="1.93374">
        <ele>63</ele>
        <time>2020-06-28T08:08:23Z</time>
      </trkpt>
      <trkpt lat="49.03241" lon="1.93384">
        <ele>63</ele>
        <time>2020-06-28T08:08:32Z</time>
      </trkpt>
      <trkpt lat="49.03248" lon="1.93392">
        <ele>63</ele>
        <time>2020-06-28T08:08:39Z</time>
      </trkpt>
      <trkpt lat="49.03257" lon="1.93401">
        <ele>67</ele>
        <time>2020-06-28T08:08:48Z</time>
      </trkpt>
      <trkpt lat="49.03266" lon="1.93409">
        <ele>67</ele>
        <time>2020-06-28T08:08:56Z</time>
      </trkpt>
      <trkpt lat="49.03274" lon="1.93416">
        <ele>68</ele>
        <time>2020-06-28T08:09:04Z</time>
      </trkpt>
      <trkpt lat="49.03284" lon="1.93421">
        <ele>68</ele>
        <time>2020-06-28T08:09:13Z</time>
      </trkpt>
      <trkpt lat="49.03294" lon="1.93419">
        <ele>69</ele>
        <time>2020-06-28T08:09:21Z</time>
      </trkpt>
      <trkpt lat="49.033" lon="1.93428">
        <ele>69</ele>
        <time>2020-06-28T08:09:33Z</time>
      </trkpt>
      <trkpt lat="49.03307" lon="1.93439">
        <ele>70</ele>
        <time>2020-06-28T08:09:45Z</time>
      </trkpt>
      <trkpt lat="49.03313" lon="1.93451">
        <ele>70</ele>
        <time>2020-06-28T08:09:57Z</time>
      </trkpt>
      <trkpt lat="49.0332" lon="1.9346">
        <ele>70</ele>
        <time>2020-06-28T08:10:13Z</time>
      </trkpt>
      <trkpt lat="49.03326" lon="1.93471">
        <ele>71</ele>
        <time>2020-06-28T08:10:29Z</time>
      </trkpt>
      <trkpt lat="49.03333" lon="1.9348">
        <ele>71</ele>
        <time>2020-06-28T08:10:36Z</time>
      </trkpt>
      <trkpt lat="49.03345" lon="1.93491">
        <ele>74</ele>
        <time>2020-06-28T08:10:56Z</time>
      </trkpt>
      <trkpt lat="49.03353" lon="1.935">
        <ele>74</ele>
        <time>2020-06-28T08:11:11Z</time>
      </trkpt>
      <trkpt lat="49.0336" lon="1.9351">
        <ele>74</ele>
        <time>2020-06-28T08:11:17Z</time>
      </trkpt>
      <trkpt lat="49.03368" lon="1.93519">
        <ele>73</ele>
        <time>2020-06-28T08:11:28Z</time>
      </trkpt>
      <trkpt lat="49.0338" lon="1.93526">
        <ele>73</ele>
        <time>2020-06-28T08:11:46Z</time>
      </trkpt>
      <trkpt lat="49.03387" lon="1.93538">
        <ele>73</ele>
        <time>2020-06-28T08:11:53Z</time>
      </trkpt>
      <trkpt lat="49.034" lon="1.93545">
        <ele>73</ele>
        <time>2020-06-28T08:12:09Z</time>
      </trkpt>
      <trkpt lat="49.0341" lon="1.93547">
        <ele>73</ele>
        <time>2020-06-28T08:12:21Z</time>
      </trkpt>
      <trkpt lat="49.03419" lon="1.93543">
        <ele>74</ele>
        <time>2020-06-28T08:12:29Z</time>
      </trkpt>
      <trkpt lat="49.03429" lon="1.93534">
        <ele>75</ele>
        <time>2020-06-28T08:12:37Z</time>
      </trkpt>
      <trkpt lat="49.03436" lon="1.93524">
        <ele>75</ele>
        <time>2020-06-28T08:12:45Z</time>
      </trkpt>
      <trkpt lat="49.03425" lon="1.93519">
        <ele>75</ele>
        <time>2020-06-28T08:14:03Z</time>
      </trkpt>
      <trkpt lat="49.03415" lon="1.93525">
        <ele>74</ele>
        <time>2020-06-28T08:14:17Z</time>
      </trkpt>
      <trkpt lat="49.03408" lon="1.93536">
        <ele>74</ele>
        <time>2020-06-28T08:14:25Z</time>
      </trkpt>
      <trkpt lat="49.03401" lon="1.93548">
        <ele>73</ele>
        <time>2020-06-28T08:14:38Z</time>
      </trkpt>
      <trkpt lat="49.03393" lon="1.9354">
        <ele>73</ele>
        <time>2020-06-28T08:14:47Z</time>
      </trkpt>
      <trkpt lat="49.03385" lon="1.93532">
        <ele>73</ele>
        <time>2020-06-28T08:14:57Z</time>
      </trkpt>
      <trkpt lat="49.03377" lon="1.93524">
        <ele>73</ele>
        <time>2020-06-28T08:15:05Z</time>
      </trkpt>
      <trkpt lat="49.0337" lon="1.93516">
        <ele>73</ele>
        <time>2020-06-28T08:15:17Z</time>
      </trkpt>
      <trkpt lat="49.03362" lon="1.93508">
        <ele>74</ele>
        <time>2020-06-28T08:15:30Z</time>
      </trkpt>
      <trkpt lat="49.03355" lon="1.93499">
        <ele>74</ele>
        <time>2020-06-28T08:15:41Z</time>
      </trkpt>
      <trkpt lat="49.03346" lon="1.93492">
        <ele>74</ele>
        <time>2020-06-28T08:15:53Z</time>
      </trkpt>
      <trkpt lat="49.03341" lon="1.93481">
        <ele>74</ele>
        <time>2020-06-28T08:16:07Z</time>
      </trkpt>
      <trkpt lat="49.03332" lon="1.93472">
        <ele>71</ele>
        <time>2020-06-28T08:16:15Z</time>
      </trkpt>
      <trkpt lat="49.03324" lon="1.93459">
        <ele>70</ele>
        <time>2020-06-28T08:16:28Z</time>
      </trkpt>
      <trkpt lat="49.03316" lon="1.93451">
        <ele>70</ele>
        <time>2020-06-28T08:16:38Z</time>
      </trkpt>
      <trkpt lat="49.03309" lon="1.9344">
        <ele>70</ele>
        <time>2020-06-28T08:16:48Z</time>
      </trkpt>
      <trkpt lat="49.03302" lon="1.9343">
        <ele>70</ele>
        <time>2020-06-28T08:16:56Z</time>
      </trkpt>
      <trkpt lat="49.03297" lon="1.93416">
        <ele>69</ele>
        <time>2020-06-28T08:17:07Z</time>
      </trkpt>
      <trkpt lat="49.03306" lon="1.93411">
        <ele>70</ele>
        <time>2020-06-28T08:17:28Z</time>
      </trkpt>
      <trkpt lat="49.03314" lon="1.93401">
        <ele>70</ele>
        <time>2020-06-28T08:17:38Z</time>
      </trkpt>
      <trkpt lat="49.03323" lon="1.93393">
        <ele>71</ele>
        <time>2020-06-28T08:17:48Z</time>
      </trkpt>
      <trkpt lat="49.03331" lon="1.93383">
        <ele>70</ele>
        <time>2020-06-28T08:17:57Z</time>
      </trkpt>
      <trkpt lat="49.03339" lon="1.93375">
        <ele>74</ele>
        <time>2020-06-28T08:18:07Z</time>
      </trkpt>
      <trkpt lat="49.03347" lon="1.93365">
        <ele>74</ele>
        <time>2020-06-28T08:18:16Z</time>
      </trkpt>
      <trkpt lat="49.03356" lon="1.93356">
        <ele>74</ele>
        <time>2020-06-28T08:18:25Z</time>
      </trkpt>
      <trkpt lat="49.03364" lon="1.93346">
        <ele>74</ele>
        <time>2020-06-28T08:18:33Z</time>
      </trkpt>
      <trkpt lat="49.03372" lon="1.93338">
        <ele>74</ele>
        <time>2020-06-28T08:18:42Z</time>
      </trkpt>
      <trkpt lat="49.03381" lon="1.9333">
        <ele>75</ele>
        <time>2020-06-28T08:18:51Z</time>
      </trkpt>
      <trkpt lat="49.03389" lon="1.93321">
        <ele>75</ele>
        <time>2020-06-28T08:18:59Z</time>
      </trkpt>
      <trkpt lat="49.03397" lon="1.93311">
        <ele>76</ele>
        <time>2020-06-28T08:19:07Z</time>
      </trkpt>
      <trkpt lat="49.03406" lon="1.93303">
        <ele>76</ele>
        <time>2020-06-28T08:19:15Z</time>
      </trkpt>
      <trkpt lat="49.03415" lon="1.93295">
        <ele>76</ele>
        <time>2020-06-28T08:19:23Z</time>
      </trkpt>
      <trkpt lat="49.03424" lon="1.9329">
        <ele>78</ele>
        <time>2020-06-28T08:19:31Z</time>
      </trkpt>
      <trkpt lat="49.03432" lon="1.93282">
        <ele>78</ele>
        <time>2020-06-28T08:19:38Z</time>
      </trkpt>
      <trkpt lat="49.03442" lon="1.93277">
        <ele>78</ele>
        <time>2020-06-28T08:19:46Z</time>
      </trkpt>
      <trkpt lat="49.03452" lon="1.93272">
        <ele>78</ele>
        <time>2020-06-28T08:19:55Z</time>
      </trkpt>
      <trkpt lat="49.03462" lon="1.93267">
        <ele>78</ele>
        <time>2020-06-28T08:20:04Z</time>
      </trkpt>
      <trkpt lat="49.03472" lon="1.93261">
        <ele>79</ele>
        <time>2020-06-28T08:20:12Z</time>
      </trkpt>
      <trkpt lat="49.03482" lon="1.93257">
        <ele>79</ele>
        <time>2020-06-28T08:20:20Z</time>
      </trkpt>
      <trkpt lat="49.03493" lon="1.93251">
        <ele>80</ele>
        <time>2020-06-28T08:20:28Z</time>
      </trkpt>
      <trkpt lat="49.03502" lon="1.93245">
        <ele>80</ele>
        <time>2020-06-28T08:20:35Z</time>
      </trkpt>
      <trkpt lat="49.03511" lon="1.93239">
        <ele>80</ele>
        <time>2020-06-28T08:20:42Z</time>
      </trkpt>
      <trkpt lat="49.0352" lon="1.93232">
        <ele>80</ele>
        <time>2020-06-28T08:20:50Z</time>
      </trkpt>
      <trkpt lat="49.03529" lon="1.93222">
        <ele>80</ele>
        <time>2020-06-28T08:20:58Z</time>
      </trkpt>
      <trkpt lat="49.03536" lon="1.93213">
        <ele>80</ele>
        <time>2020-06-28T08:21:05Z</time>
      </trkpt>
      <trkpt lat="49.03547" lon="1.93209">
        <ele>79</ele>
        <time>2020-06-28T08:21:13Z</time>
      </trkpt>
      <trkpt lat="49.03554" lon="1.93218">
        <ele>79</ele>
        <time>2020-06-28T08:21:22Z</time>
      </trkpt>
      <trkpt lat="49.03563" lon="1.93226">
        <ele>79</ele>
        <time>2020-06-28T08:21:32Z</time>
      </trkpt>
      <trkpt lat="49.03571" lon="1.93235">
        <ele>79</ele>
        <time>2020-06-28T08:21:40Z</time>
      </trkpt>
      <trkpt lat="49.03579" lon="1.93246">
        <ele>79</ele>
        <time>2020-06-28T08:21:48Z</time>
      </trkpt>
      <trkpt lat="49.03587" lon="1.93253">
        <ele>79</ele>
        <time>2020-06-28T08:21:54Z</time>
      </trkpt>
      <trkpt lat="49.03596" lon="1.93261">
        <ele>79</ele>
        <time>2020-06-28T08:22:01Z</time>
      </trkpt>
      <trkpt lat="49.03604" lon="1.93269">
        <ele>79</ele>
        <time>2020-06-28T08:22:08Z</time>
      </trkpt>
      <trkpt lat="49.03613" lon="1.93278">
        <ele>79</ele>
        <time>2020-06-28T08:22:16Z</time>
      </trkpt>
      <trkpt lat="49.03622" lon="1.93287">
        <ele>79</ele>
        <time>2020-06-28T08:22:24Z</time>
      </trkpt>
      <trkpt lat="49.03631" lon="1.93295">
        <ele>79</ele>
        <time>2020-06-28T08:22:31Z</time>
      </trkpt>
      <trkpt lat="49.03639" lon="1.93305">
        <ele>79</ele>
        <time>2020-06-28T08:22:38Z</time>
      </trkpt>
      <trkpt lat="49.03649" lon="1.93315">
        <ele>79</ele>
        <time>2020-06-28T08:22:46Z</time>
      </trkpt>
      <trkpt lat="49.03657" lon="1.93323">
        <ele>79</ele>
        <time>2020-06-28T08:22:52Z</time>
      </trkpt>
      <trkpt lat="49.03665" lon="1.93333">
        <ele>79</ele>
        <time>2020-06-28T08:23:00Z</time>
      </trkpt>
      <trkpt lat="49.03673" lon="1.93345">
        <ele>80</ele>
        <time>2020-06-28T08:23:09Z</time>
      </trkpt>
      <trkpt lat="49.03681" lon="1.93357">
        <ele>80</ele>
        <time>2020-06-28T08:23:17Z</time>
      </trkpt>
      <trkpt lat="49.03689" lon="1.93365">
        <ele>80</ele>
        <time>2020-06-28T08:23:24Z</time>
      </trkpt>
      <trkpt lat="49.03697" lon="1.93374">
        <ele>80</ele>
        <time>2020-06-28T08:23:31Z</time>
      </trkpt>
      <trkpt lat="49.03704" lon="1.93386">
        <ele>80</ele>
        <time>2020-06-28T08:23:39Z</time>
      </trkpt>
      <trkpt lat="49.03713" lon="1.93395">
        <ele>80</ele>
        <time>2020-06-28T08:23:46Z</time>
      </trkpt>
      <trkpt lat="49.0372" lon="1.93406">
        <ele>80</ele>
        <time>2020-06-28T08:23:54Z</time>
      </trkpt>
      <trkpt lat="49.03728" lon="1.93415">
        <ele>80</ele>
        <time>2020-06-28T08:24:01Z</time>
      </trkpt>
      <trkpt lat="49.03736" lon="1.93425">
        <ele>79</ele>
        <time>2020-06-28T08:24:08Z</time>
      </trkpt>
      <trkpt lat="49.03744" lon="1.93435">
        <ele>79</ele>
        <time>2020-06-28T08:24:16Z</time>
      </trkpt>
      <trkpt lat="49.03751" lon="1.93445">
        <ele>80</ele>
        <time>2020-06-28T08:24:24Z</time>
      </trkpt>
      <trkpt lat="49.03759" lon="1.93456">
        <ele>80</ele>
        <time>2020-06-28T08:24:32Z</time>
      </trkpt>
      <trkpt lat="49.03764" lon="1.93468">
        <ele>80</ele>
        <time>2020-06-28T08:24:39Z</time>
      </trkpt>
      <trkpt lat="49.03772" lon="1.93478">
        <ele>79</ele>
        <time>2020-06-28T08:24:46Z</time>
      </trkpt>
      <trkpt lat="49.03781" lon="1.93486">
        <ele>80</ele>
        <time>2020-06-28T08:24:54Z</time>
      </trkpt>
      <trkpt lat="49.03788" lon="1.93497">
        <ele>80</ele>
        <time>2020-06-28T08:25:02Z</time>
      </trkpt>
      <trkpt lat="49.03795" lon="1.93509">
        <ele>78</ele>
        <time>2020-06-28T08:25:09Z</time>
      </trkpt>
      <trkpt lat="49.03801" lon="1.9352">
        <ele>78</ele>
        <time>2020-06-28T08:25:16Z</time>
      </trkpt>
      <trkpt lat="49.03808" lon="1.93533">
        <ele>78</ele>
        <time>2020-06-28T08:25:24Z</time>
      </trkpt>
      <trkpt lat="49.03813" lon="1.93546">
        <ele>78</ele>
        <time>2020-06-28T08:25:31Z</time>
      </trkpt>
      <trkpt lat="49.03818" lon="1.93558">
        <ele>78</ele>
        <time>2020-06-28T08:25:38Z</time>
      </trkpt>
      <trkpt lat="49.03825" lon="1.9357">
        <ele>78</ele>
        <time>2020-06-28T08:25:45Z</time>
      </trkpt>
      <trkpt lat="49.03833" lon="1.9358">
        <ele>78</ele>
        <time>2020-06-28T08:25:52Z</time>
      </trkpt>
      <trkpt lat="49.03841" lon="1.93589">
        <ele>78</ele>
        <time>2020-06-28T08:25:58Z</time>
      </trkpt>
      <trkpt lat="49.03847" lon="1.936">
        <ele>78</ele>
        <time>2020-06-28T08:26:07Z</time>
      </trkpt>
      <trkpt lat="49.03855" lon="1.9361">
        <ele>78</ele>
        <time>2020-06-28T08:26:13Z</time>
      </trkpt>
      <trkpt lat="49.03863" lon="1.93619">
        <ele>78</ele>
        <time>2020-06-28T08:26:20Z</time>
      </trkpt>
      <trkpt lat="49.03871" lon="1.9363">
        <ele>78</ele>
        <time>2020-06-28T08:26:27Z</time>
      </trkpt>
      <trkpt lat="49.03878" lon="1.93641">
        <ele>78</ele>
        <time>2020-06-28T08:26:36Z</time>
      </trkpt>
      <trkpt lat="49.03887" lon="1.9365">
        <ele>78</ele>
        <time>2020-06-28T08:26:43Z</time>
      </trkpt>
      <trkpt lat="49.03897" lon="1.93658">
        <ele>77</ele>
        <time>2020-06-28T08:26:51Z</time>
      </trkpt>
      <trkpt lat="49.03906" lon="1.93667">
        <ele>76</ele>
        <time>2020-06-28T08:26:58Z</time>
      </trkpt>
      <trkpt lat="49.03915" lon="1.93675">
        <ele>76</ele>
        <time>2020-06-28T08:27:06Z</time>
      </trkpt>
      <trkpt lat="49.03925" lon="1.93682">
        <ele>75</ele>
        <time>2020-06-28T08:27:12Z</time>
      </trkpt>
      <trkpt lat="49.03933" lon="1.93689">
        <ele>75</ele>
        <time>2020-06-28T08:27:18Z</time>
      </trkpt>
      <trkpt lat="49.03942" lon="1.93695">
        <ele>75</ele>
        <time>2020-06-28T08:27:25Z</time>
      </trkpt>
      <trkpt lat="49.03952" lon="1.93701">
        <ele>74</ele>
        <time>2020-06-28T08:27:32Z</time>
      </trkpt>
      <trkpt lat="49.03961" lon="1.9371">
        <ele>74</ele>
        <time>2020-06-28T08:27:40Z</time>
      </trkpt>
      <trkpt lat="49.0397" lon="1.9372">
        <ele>74</ele>
        <time>2020-06-28T08:27:48Z</time>
      </trkpt>
      <trkpt lat="49.03978" lon="1.93731">
        <ele>73</ele>
        <time>2020-06-28T08:27:56Z</time>
      </trkpt>
      <trkpt lat="49.03984" lon="1.93744">
        <ele>72</ele>
        <time>2020-06-28T08:28:05Z</time>
      </trkpt>
      <trkpt lat="49.03994" lon="1.93737">
        <ele>72</ele>
        <time>2020-06-28T08:28:38Z</time>
      </trkpt>
      <trkpt lat="49.04001" lon="1.93726">
        <ele>74</ele>
        <time>2020-06-28T08:28:47Z</time>
      </trkpt>
      <trkpt lat="49.04008" lon="1.93715">
        <ele>75</ele>
        <time>2020-06-28T08:28:55Z</time>
      </trkpt>
      <trkpt lat="49.04015" lon="1.93705">
        <ele>75</ele>
        <time>2020-06-28T08:29:02Z</time>
      </trkpt>
      <trkpt lat="49.04023" lon="1.93694">
        <ele>76</ele>
        <time>2020-06-28T08:29:10Z</time>
      </trkpt>
      <trkpt lat="49.04033" lon="1.93689">
        <ele>76</ele>
        <time>2020-06-28T08:29:18Z</time>
      </trkpt>
      <trkpt lat="49.04042" lon="1.93683">
        <ele>76</ele>
        <time>2020-06-28T08:29:26Z</time>
      </trkpt>
      <trkpt lat="49.04051" lon="1.93679">
        <ele>77</ele>
        <time>2020-06-28T08:29:33Z</time>
      </trkpt>
      <trkpt lat="49.04061" lon="1.93679">
        <ele>77</ele>
        <time>2020-06-28T08:29:41Z</time>
      </trkpt>
      <trkpt lat="49.04071" lon="1.93676">
        <ele>78</ele>
        <time>2020-06-28T08:29:49Z</time>
      </trkpt>
      <trkpt lat="49.04081" lon="1.93676">
        <ele>79</ele>
        <time>2020-06-28T08:29:57Z</time>
      </trkpt>
      <trkpt lat="49.04091" lon="1.93673">
        <ele>80</ele>
        <time>2020-06-28T08:30:05Z</time>
      </trkpt>
      <trkpt lat="49.04101" lon="1.93671">
        <ele>80</ele>
        <time>2020-06-28T08:30:13Z</time>
      </trkpt>
      <trkpt lat="49.04112" lon="1.93668">
        <ele>80</ele>
        <time>2020-06-28T08:30:21Z</time>
      </trkpt>
      <trkpt lat="49.04121" lon="1.93665">
        <ele>82</ele>
        <time>2020-06-28T08:30:29Z</time>
      </trkpt>
      <trkpt lat="49.04131" lon="1.93659">
        <ele>82</ele>
        <time>2020-06-28T08:30:38Z</time>
      </trkpt>
      <trkpt lat="49.0414" lon="1.93649">
        <ele>83</ele>
        <time>2020-06-28T08:30:46Z</time>
      </trkpt>
      <trkpt lat="49.04146" lon="1.93637">
        <ele>83</ele>
        <time>2020-06-28T08:30:56Z</time>
      </trkpt>
      <trkpt lat="49.04148" lon="1.93616">
        <ele>83</ele>
        <time>2020-06-28T08:37:00Z</time>
      </trkpt>
      <trkpt lat="49.04149" lon="1.93602">
        <ele>83</ele>
        <time>2020-06-28T08:37:08Z</time>
      </trkpt>
      <trkpt lat="49.04151" lon="1.93588">
        <ele>83</ele>
        <time>2020-06-28T08:37:14Z</time>
      </trkpt>
      <trkpt lat="49.04154" lon="1.93574">
        <ele>84</ele>
        <time>2020-06-28T08:37:22Z</time>
      </trkpt>
      <trkpt lat="49.04156" lon="1.93558">
        <ele>84</ele>
        <time>2020-06-28T08:37:30Z</time>
      </trkpt>
      <trkpt lat="49.04159" lon="1.93544">
        <ele>84</ele>
        <time>2020-06-28T08:37:38Z</time>
      </trkpt>
      <trkpt lat="49.04161" lon="1.93529">
        <ele>84</ele>
        <time>2020-06-28T08:37:46Z</time>
      </trkpt>
      <trkpt lat="49.04163" lon="1.93512">
        <ele>84</ele>
        <time>2020-06-28T08:37:54Z</time>
      </trkpt>
      <trkpt lat="49.04164" lon="1.93498">
        <ele>84</ele>
        <time>2020-06-28T08:38:02Z</time>
      </trkpt>
      <trkpt lat="49.04165" lon="1.93484">
        <ele>85</ele>
        <time>2020-06-28T08:38:09Z</time>
      </trkpt>
      <trkpt lat="49.04167" lon="1.93469">
        <ele>84</ele>
        <time>2020-06-28T08:38:15Z</time>
      </trkpt>
      <trkpt lat="49.04173" lon="1.93458">
        <ele>84</ele>
        <time>2020-06-28T08:38:23Z</time>
      </trkpt>
      <trkpt lat="49.04179" lon="1.93445">
        <ele>84</ele>
        <time>2020-06-28T08:38:31Z</time>
      </trkpt>
      <trkpt lat="49.04185" lon="1.93432">
        <ele>84</ele>
        <time>2020-06-28T08:38:39Z</time>
      </trkpt>
      <trkpt lat="49.0419" lon="1.93418">
        <ele>84</ele>
        <time>2020-06-28T08:38:46Z</time>
      </trkpt>
      <trkpt lat="49.04196" lon="1.93406">
        <ele>86</ele>
        <time>2020-06-28T08:38:53Z</time>
      </trkpt>
      <trkpt lat="49.04201" lon="1.93393">
        <ele>86</ele>
        <time>2020-06-28T08:39:00Z</time>
      </trkpt>
      <trkpt lat="49.04208" lon="1.9338">
        <ele>86</ele>
        <time>2020-06-28T08:39:08Z</time>
      </trkpt>
      <trkpt lat="49.04214" lon="1.93368">
        <ele>86</ele>
        <time>2020-06-28T08:39:16Z</time>
      </trkpt>
      <trkpt lat="49.0422" lon="1.93355">
        <ele>86</ele>
        <time>2020-06-28T08:39:24Z</time>
      </trkpt>
      <trkpt lat="49.04227" lon="1.93342">
        <ele>86</ele>
        <time>2020-06-28T08:39:32Z</time>
      </trkpt>
      <trkpt lat="49.04232" lon="1.93326">
        <ele>87</ele>
        <time>2020-06-28T08:39:40Z</time>
      </trkpt>
      <trkpt lat="49.04234" lon="1.93313">
        <ele>87</ele>
        <time>2020-06-28T08:39:46Z</time>
      </trkpt>
      <trkpt lat="49.04238" lon="1.93297">
        <ele>88</ele>
        <time>2020-06-28T08:39:54Z</time>
      </trkpt>
      <trkpt lat="49.04242" lon="1.93283">
        <ele>88</ele>
        <time>2020-06-28T08:40:02Z</time>
      </trkpt>
      <trkpt lat="49.04244" lon="1.93268">
        <ele>88</ele>
        <time>2020-06-28T08:40:09Z</time>
      </trkpt>
      <trkpt lat="49.04246" lon="1.93252">
        <ele>89</ele>
        <time>2020-06-28T08:40:16Z</time>
      </trkpt>
      <trkpt lat="49.0425" lon="1.93238">
        <ele>89</ele>
        <time>2020-06-28T08:40:24Z</time>
      </trkpt>
      <trkpt lat="49.04252" lon="1.93223">
        <ele>90</ele>
        <time>2020-06-28T08:40:32Z</time>
      </trkpt>
      <trkpt lat="49.04254" lon="1.93208">
        <ele>91</ele>
        <time>2020-06-28T08:40:39Z</time>
      </trkpt>
      <trkpt lat="49.04255" lon="1.93194">
        <ele>91</ele>
        <time>2020-06-28T08:40:46Z</time>
      </trkpt>
      <trkpt lat="49.04261" lon="1.9318">
        <ele>91</ele>
        <time>2020-06-28T08:40:54Z</time>
      </trkpt>
      <trkpt lat="49.04269" lon="1.93169">
        <ele>91</ele>
        <time>2020-06-28T08:41:01Z</time>
      </trkpt>
      <trkpt lat="49.04277" lon="1.93157">
        <ele>92</ele>
        <time>2020-06-28T08:41:09Z</time>
      </trkpt>
      <trkpt lat="49.04286" lon="1.93148">
        <ele>92</ele>
        <time>2020-06-28T08:41:17Z</time>
      </trkpt>
      <trkpt lat="49.04294" lon="1.9314">
        <ele>92</ele>
        <time>2020-06-28T08:41:25Z</time>
      </trkpt>
      <trkpt lat="49.04305" lon="1.93135">
        <ele>93</ele>
        <time>2020-06-28T08:41:33Z</time>
      </trkpt>
      <trkpt lat="49.04315" lon="1.9313">
        <ele>93</ele>
        <time>2020-06-28T08:41:41Z</time>
      </trkpt>
      <trkpt lat="49.04325" lon="1.93126">
        <ele>93</ele>
        <time>2020-06-28T08:41:49Z</time>
      </trkpt>
      <trkpt lat="49.04336" lon="1.93124">
        <ele>95</ele>
        <time>2020-06-28T08:41:58Z</time>
      </trkpt>
      <trkpt lat="49.04346" lon="1.93122">
        <ele>95</ele>
        <time>2020-06-28T08:42:06Z</time>
      </trkpt>
      <trkpt lat="49.04356" lon="1.9312">
        <ele>95</ele>
        <time>2020-06-28T08:42:14Z</time>
      </trkpt>
      <trkpt lat="49.04367" lon="1.93119">
        <ele>95</ele>
        <time>2020-06-28T08:42:22Z</time>
      </trkpt>
      <trkpt lat="49.04377" lon="1.93118">
        <ele>96</ele>
        <time>2020-06-28T08:42:30Z</time>
      </trkpt>
      <trkpt lat="49.04388" lon="1.93114">
        <ele>96</ele>
        <time>2020-06-28T08:42:38Z</time>
      </trkpt>
      <trkpt lat="49.04397" lon="1.93111">
        <ele>96</ele>
        <time>2020-06-28T08:42:46Z</time>
      </trkpt>
      <trkpt lat="49.04407" lon="1.93108">
        <ele>96</ele>
        <time>2020-06-28T08:42:54Z</time>
      </trkpt>
      <trkpt lat="49.04418" lon="1.93103">
        <ele>97</ele>
        <time>2020-06-28T08:43:02Z</time>
      </trkpt>
      <trkpt lat="49.04426" lon="1.93095">
        <ele>97</ele>
        <time>2020-06-28T08:43:09Z</time>
      </trkpt>
      <trkpt lat="49.04434" lon="1.93087">
        <ele>97</ele>
        <time>2020-06-28T08:43:17Z</time>
      </trkpt>
      <trkpt lat="49.04443" lon="1.93079">
        <ele>98</ele>
        <time>2020-06-28T08:43:25Z</time>
      </trkpt>
      <trkpt lat="49.04453" lon="1.93072">
        <ele>98</ele>
        <time>2020-06-28T08:43:33Z</time>
      </trkpt>
      <trkpt lat="49.04463" lon="1.93064">
        <ele>98</ele>
        <time>2020-06-28T08:43:41Z</time>
      </trkpt>
      <trkpt lat="49.04472" lon="1.93058">
        <ele>98</ele>
        <time>2020-06-28T08:43:48Z</time>
      </trkpt>
      <trkpt lat="49.04483" lon="1.9305">
        <ele>98</ele>
        <time>2020-06-28T08:43:56Z</time>
      </trkpt>
      <trkpt lat="49.04492" lon="1.93041">
        <ele>98</ele>
        <time>2020-06-28T08:44:04Z</time>
      </trkpt>
      <trkpt lat="49.045" lon="1.93031">
        <ele>98</ele>
        <time>2020-06-28T08:44:12Z</time>
      </trkpt>
      <trkpt lat="49.04509" lon="1.93021">
        <ele>99</ele>
        <time>2020-06-28T08:44:20Z</time>
      </trkpt>
      <trkpt lat="49.04517" lon="1.93009">
        <ele>99</ele>
        <time>2020-06-28T08:44:28Z</time>
      </trkpt>
      <trkpt lat="49.04524" lon="1.92999">
        <ele>99</ele>
        <time>2020-06-28T08:44:36Z</time>
      </trkpt>
      <trkpt lat="49.04532" lon="1.92989">
        <ele>99</ele>
        <time>2020-06-28T08:44:44Z</time>
      </trkpt>
      <trkpt lat="49.04541" lon="1.92978">
        <ele>99</ele>
        <time>2020-06-28T08:44:52Z</time>
      </trkpt>
      <trkpt lat="49.04548" lon="1.92965">
        <ele>99</ele>
        <time>2020-06-28T08:45:02Z</time>
      </trkpt>
      <trkpt lat="49.04555" lon="1.92955">
        <ele>99</ele>
        <time>2020-06-28T08:45:10Z</time>
      </trkpt>
      <trkpt lat="49.04562" lon="1.92944">
        <ele>99</ele>
        <time>2020-06-28T08:45:18Z</time>
      </trkpt>
      <trkpt lat="49.04568" lon="1.92932">
        <ele>99</ele>
        <time>2020-06-28T08:45:26Z</time>
      </trkpt>
      <trkpt lat="49.04575" lon="1.9292">
        <ele>99</ele>
        <time>2020-06-28T08:45:34Z</time>
      </trkpt>
      <trkpt lat="49.04581" lon="1.92908">
        <ele>99</ele>
        <time>2020-06-28T08:45:42Z</time>
      </trkpt>
      <trkpt lat="49.04588" lon="1.92897">
        <ele>99</ele>
        <time>2020-06-28T08:45:50Z</time>
      </trkpt>
      <trkpt lat="49.04594" lon="1.92884">
        <ele>99</ele>
        <time>2020-06-28T08:45:58Z</time>
      </trkpt>
      <trkpt lat="49.04599" lon="1.9287">
        <ele>99</ele>
        <time>2020-06-28T08:46:06Z</time>
      </trkpt>
      <trkpt lat="49.04604" lon="1.92852">
        <ele>99</ele>
        <time>2020-06-28T08:46:15Z</time>
      </trkpt>
      <trkpt lat="49.04609" lon="1.92838">
        <ele>99</ele>
        <time>2020-06-28T08:46:23Z</time>
      </trkpt>
      <trkpt lat="49.04613" lon="1.92825">
        <ele>100</ele>
        <time>2020-06-28T08:46:29Z</time>
      </trkpt>
      <trkpt lat="49.04617" lon="1.92811">
        <ele>100</ele>
        <time>2020-06-28T08:46:36Z</time>
      </trkpt>
      <trkpt lat="49.04622" lon="1.92797">
        <ele>100</ele>
        <time>2020-06-28T08:46:43Z</time>
      </trkpt>
      <trkpt lat="49.04626" lon="1.92781">
        <ele>100</ele>
        <time>2020-06-28T08:46:51Z</time>
      </trkpt>
      <trkpt lat="49.04628" lon="1.92766">
        <ele>100</ele>
        <time>2020-06-28T08:46:58Z</time>
      </trkpt>
      <trkpt lat="49.04631" lon="1.9275">
        <ele>100</ele>
        <time>2020-06-28T08:47:06Z</time>
      </trkpt>
      <trkpt lat="49.04635" lon="1.92736">
        <ele>100</ele>
        <time>2020-06-28T08:47:15Z</time>
      </trkpt>
      <trkpt lat="49.04637" lon="1.9272">
        <ele>100</ele>
        <time>2020-06-28T08:47:23Z</time>
      </trkpt>
      <trkpt lat="49.0464" lon="1.92704">
        <ele>100</ele>
        <time>2020-06-28T08:47:31Z</time>
      </trkpt>
      <trkpt lat="49.04643" lon="1.9269">
        <ele>100</ele>
        <time>2020-06-28T08:47:38Z</time>
      </trkpt>
      <trkpt lat="49.04645" lon="1.92672">
        <ele>100</ele>
        <time>2020-06-28T08:47:46Z</time>
      </trkpt>
      <trkpt lat="49.04648" lon="1.92656">
        <ele>99</ele>
        <time>2020-06-28T08:47:54Z</time>
      </trkpt>
      <trkpt lat="49.04652" lon="1.92642">
        <ele>99</ele>
        <time>2020-06-28T08:48:01Z</time>
      </trkpt>
      <trkpt lat="49.04655" lon="1.92627">
        <ele>99</ele>
        <time>2020-06-28T08:48:08Z</time>
      </trkpt>
      <trkpt lat="49.04659" lon="1.92612">
        <ele>99</ele>
        <time>2020-06-28T08:48:16Z</time>
      </trkpt>
      <trkpt lat="49.04666" lon="1.926">
        <ele>99</ele>
        <time>2020-06-28T08:48:38Z</time>
      </trkpt>
      <trkpt lat="49.04671" lon="1.92587">
        <ele>98</ele>
        <time>2020-06-28T08:48:46Z</time>
      </trkpt>
      <trkpt lat="49.04675" lon="1.92571">
        <ele>98</ele>
        <time>2020-06-28T08:48:54Z</time>
      </trkpt>
      <trkpt lat="49.04679" lon="1.92557">
        <ele>98</ele>
        <time>2020-06-28T08:49:01Z</time>
      </trkpt>
      <trkpt lat="49.04682" lon="1.92542">
        <ele>98</ele>
        <time>2020-06-28T08:49:08Z</time>
      </trkpt>
      <trkpt lat="49.04685" lon="1.92527">
        <ele>98</ele>
        <time>2020-06-28T08:49:15Z</time>
      </trkpt>
      <trkpt lat="49.04689" lon="1.92513">
        <ele>98</ele>
        <time>2020-06-28T08:49:23Z</time>
      </trkpt>
      <trkpt lat="49.04694" lon="1.92498">
        <ele>99</ele>
        <time>2020-06-28T08:49:31Z</time>
      </trkpt>
      <trkpt lat="49.04698" lon="1.92485">
        <ele>99</ele>
        <time>2020-06-28T08:49:37Z</time>
      </trkpt>
      <trkpt lat="49.04701" lon="1.9247">
        <ele>99</ele>
        <time>2020-06-28T08:49:44Z</time>
      </trkpt>
      <trkpt lat="49.04704" lon="1.92457">
        <ele>99</ele>
        <time>2020-06-28T08:49:50Z</time>
      </trkpt>
      <trkpt lat="49.04709" lon="1.92444">
        <ele>98</ele>
        <time>2020-06-28T08:49:56Z</time>
      </trkpt>
      <trkpt lat="49.04712" lon="1.92431">
        <ele>98</ele>
        <time>2020-06-28T08:50:02Z</time>
      </trkpt>
      <trkpt lat="49.04716" lon="1.92416">
        <ele>98</ele>
        <time>2020-06-28T08:50:09Z</time>
      </trkpt>
      <trkpt lat="49.0472" lon="1.92399">
        <ele>98</ele>
        <time>2020-06-28T08:50:17Z</time>
      </trkpt>
      <trkpt lat="49.04722" lon="1.92386">
        <ele>98</ele>
        <time>2020-06-28T08:50:23Z</time>
      </trkpt>
      <trkpt lat="49.04726" lon="1.92371">
        <ele>98</ele>
        <time>2020-06-28T08:50:30Z</time>
      </trkpt>
      <trkpt lat="49.04731" lon="1.92357">
        <ele>97</ele>
        <time>2020-06-28T08:50:38Z</time>
      </trkpt>
      <trkpt lat="49.04736" lon="1.92341">
        <ele>97</ele>
        <time>2020-06-28T08:50:46Z</time>
      </trkpt>
      <trkpt lat="49.04742" lon="1.92327">
        <ele>96</ele>
        <time>2020-06-28T08:50:54Z</time>
      </trkpt>
      <trkpt lat="49.04747" lon="1.92313">
        <ele>96</ele>
        <time>2020-06-28T08:51:02Z</time>
      </trkpt>
      <trkpt lat="49.0475" lon="1.92298">
        <ele>96</ele>
        <time>2020-06-28T08:51:35Z</time>
      </trkpt>
      <trkpt lat="49.04753" lon="1.92283">
        <ele>95</ele>
        <time>2020-06-28T08:51:44Z</time>
      </trkpt>
      <trkpt lat="49.04756" lon="1.92267">
        <ele>95</ele>
        <time>2020-06-28T08:51:52Z</time>
      </trkpt>
      <trkpt lat="49.0476" lon="1.92251">
        <ele>95</ele>
        <time>2020-06-28T08:52:00Z</time>
      </trkpt>
      <trkpt lat="49.04762" lon="1.92234">
        <ele>94</ele>
        <time>2020-06-28T08:52:08Z</time>
      </trkpt>
      <trkpt lat="49.04765" lon="1.92219">
        <ele>94</ele>
        <time>2020-06-28T08:52:16Z</time>
      </trkpt>
      <trkpt lat="49.0477" lon="1.92204">
        <ele>94</ele>
        <time>2020-06-28T08:52:24Z</time>
      </trkpt>
      <trkpt lat="49.04774" lon="1.92189">
        <ele>94</ele>
        <time>2020-06-28T08:52:32Z</time>
      </trkpt>
      <trkpt lat="49.04778" lon="1.92176">
        <ele>94</ele>
        <time>2020-06-28T08:52:40Z</time>
      </trkpt>
      <trkpt lat="49.04783" lon="1.92161">
        <ele>94</ele>
        <time>2020-06-28T08:52:48Z</time>
      </trkpt>
      <trkpt lat="49.04787" lon="1.92147">
        <ele>94</ele>
        <time>2020-06-28T08:52:56Z</time>
      </trkpt>
      <trkpt lat="49.04791" lon="1.92133">
        <ele>94</ele>
        <time>2020-06-28T08:53:04Z</time>
      </trkpt>
      <trkpt lat="49.04796" lon="1.92121">
        <ele>94</ele>
        <time>2020-06-28T08:53:12Z</time>
      </trkpt>
      <trkpt lat="49.04801" lon="1.92108">
        <ele>94</ele>
        <time>2020-06-28T08:53:20Z</time>
      </trkpt>
      <trkpt lat="49.04805" lon="1.92094">
        <ele>94</ele>
        <time>2020-06-28T08:53:28Z</time>
      </trkpt>
      <trkpt lat="49.0481" lon="1.92079">
        <ele>95</ele>
        <time>2020-06-28T08:53:36Z</time>
      </trkpt>
      <trkpt lat="49.04814" lon="1.92065">
        <ele>95</ele>
        <time>2020-06-28T08:53:43Z</time>
      </trkpt>
      <trkpt lat="49.04818" lon="1.9205">
        <ele>95</ele>
        <time>2020-06-28T08:53:51Z</time>
      </trkpt>
      <trkpt lat="49.04821" lon="1.92034">
        <ele>95</ele>
        <time>2020-06-28T08:53:59Z</time>
      </trkpt>
      <trkpt lat="49.04825" lon="1.92018">
        <ele>96</ele>
        <time>2020-06-28T08:54:07Z</time>
      </trkpt>
      <trkpt lat="49.04829" lon="1.92001">
        <ele>96</ele>
        <time>2020-06-28T08:54:15Z</time>
      </trkpt>
      <trkpt lat="49.04832" lon="1.91985">
        <ele>96</ele>
        <time>2020-06-28T08:54:23Z</time>
      </trkpt>
      <trkpt lat="49.04836" lon="1.91969">
        <ele>96</ele>
        <time>2020-06-28T08:54:31Z</time>
      </trkpt>
      <trkpt lat="49.04839" lon="1.91953">
        <ele>96</ele>
        <time>2020-06-28T08:54:38Z</time>
      </trkpt>
      <trkpt lat="49.04842" lon="1.91937">
        <ele>96</ele>
        <time>2020-06-28T08:54:46Z</time>
      </trkpt>
      <trkpt lat="49.04845" lon="1.91921">
        <ele>97</ele>
        <time>2020-06-28T08:54:54Z</time>
      </trkpt>
      <trkpt lat="49.0485" lon="1.91905">
        <ele>97</ele>
        <time>2020-06-28T08:55:02Z</time>
      </trkpt>
      <trkpt lat="49.04853" lon="1.91891">
        <ele>97</ele>
        <time>2020-06-28T08:55:10Z</time>
      </trkpt>
      <trkpt lat="49.04857" lon="1.91877">
        <ele>98</ele>
        <time>2020-06-28T08:55:18Z</time>
      </trkpt>
      <trkpt lat="49.04862" lon="1.91862">
        <ele>98</ele>
        <time>2020-06-28T08:55:26Z</time>
      </trkpt>
      <trkpt lat="49.04866" lon="1.91847">
        <ele>98</ele>
        <time>2020-06-28T08:55:34Z</time>
      </trkpt>
      <trkpt lat="49.0487" lon="1.9183">
        <ele>99</ele>
        <time>2020-06-28T08:55:42Z</time>
      </trkpt>
      <trkpt lat="49.04874" lon="1.91814">
        <ele>99</ele>
        <time>2020-06-28T08:55:50Z</time>
      </trkpt>
      <trkpt lat="49.04876" lon="1.91798">
        <ele>99</ele>
        <time>2020-06-28T08:55:57Z</time>
      </trkpt>
      <trkpt lat="49.04881" lon="1.91782">
        <ele>99</ele>
        <time>2020-06-28T08:56:06Z</time>
      </trkpt>
      <trkpt lat="49.04885" lon="1.91768">
        <ele>99</ele>
        <time>2020-06-28T08:56:14Z</time>
      </trkpt>
      <trkpt lat="49.04889" lon="1.91752">
        <ele>99</ele>
        <time>2020-06-28T08:56:22Z</time>
      </trkpt>
      <trkpt lat="49.04892" lon="1.91737">
        <ele>99</ele>
        <time>2020-06-28T08:56:30Z</time>
      </trkpt>
      <trkpt lat="49.04896" lon="1.91722">
        <ele>99</ele>
        <time>2020-06-28T08:56:39Z</time>
      </trkpt>
      <trkpt lat="49.04901" lon="1.91709">
        <ele>99</ele>
        <time>2020-06-28T08:56:47Z</time>
      </trkpt>
      <trkpt lat="49.04906" lon="1.91695">
        <ele>99</ele>
        <time>2020-06-28T08:56:55Z</time>
      </trkpt>
      <trkpt lat="49.04909" lon="1.91681">
        <ele>99</ele>
        <time>2020-06-28T08:57:01Z</time>
      </trkpt>
      <trkpt lat="49.04912" lon="1.91667">
        <ele>99</ele>
        <time>2020-06-28T08:57:08Z</time>
      </trkpt>
      <trkpt lat="49.04916" lon="1.9165">
        <ele>98</ele>
        <time>2020-06-28T08:57:16Z</time>
      </trkpt>
      <trkpt lat="49.04921" lon="1.91635">
        <ele>97</ele>
        <time>2020-06-28T08:57:23Z</time>
      </trkpt>
      <trkpt lat="49.04927" lon="1.91621">
        <ele>97</ele>
        <time>2020-06-28T08:57:31Z</time>
      </trkpt>
      <trkpt lat="49.04932" lon="1.91606">
        <ele>96</ele>
        <time>2020-06-28T08:57:39Z</time>
      </trkpt>
      <trkpt lat="49.04936" lon="1.91592">
        <ele>96</ele>
        <time>2020-06-28T08:57:47Z</time>
      </trkpt>
      <trkpt lat="49.0494" lon="1.91576">
        <ele>96</ele>
        <time>2020-06-28T08:57:55Z</time>
      </trkpt>
      <trkpt lat="49.04946" lon="1.91562">
        <ele>96</ele>
        <time>2020-06-28T08:58:03Z</time>
      </trkpt>
      <trkpt lat="49.04956" lon="1.91558">
        <ele>96</ele>
        <time>2020-06-28T08:58:10Z</time>
      </trkpt>
      <trkpt lat="49.04967" lon="1.91561">
        <ele>96</ele>
        <time>2020-06-28T08:58:18Z</time>
      </trkpt>
      <trkpt lat="49.04977" lon="1.91563">
        <ele>96</ele>
        <time>2020-06-28T08:58:25Z</time>
      </trkpt>
      <trkpt lat="49.04986" lon="1.91567">
        <ele>96</ele>
        <time>2020-06-28T08:58:33Z</time>
      </trkpt>
      <trkpt lat="49.04996" lon="1.9157">
        <ele>95</ele>
        <time>2020-06-28T08:58:40Z</time>
      </trkpt>
      <trkpt lat="49.05006" lon="1.91573">
        <ele>95</ele>
        <time>2020-06-28T08:58:47Z</time>
      </trkpt>
      <trkpt lat="49.05016" lon="1.91576">
        <ele>95</ele>
        <time>2020-06-28T08:58:54Z</time>
      </trkpt>
      <trkpt lat="49.05026" lon="1.91579">
        <ele>95</ele>
        <time>2020-06-28T08:59:00Z</time>
      </trkpt>
      <trkpt lat="49.05035" lon="1.91582">
        <ele>95</ele>
        <time>2020-06-28T08:59:07Z</time>
      </trkpt>
      <trkpt lat="49.05045" lon="1.91585">
        <ele>94</ele>
        <time>2020-06-28T08:59:13Z</time>
      </trkpt>
      <trkpt lat="49.05055" lon="1.91589">
        <ele>94</ele>
        <time>2020-06-28T08:59:21Z</time>
      </trkpt>
      <trkpt lat="49.05064" lon="1.91594">
        <ele>94</ele>
        <time>2020-06-28T08:59:28Z</time>
      </trkpt>
      <trkpt lat="49.05074" lon="1.91599">
        <ele>94</ele>
        <time>2020-06-28T08:59:35Z</time>
      </trkpt>
      <trkpt lat="49.05084" lon="1.91603">
        <ele>93</ele>
        <time>2020-06-28T08:59:42Z</time>
      </trkpt>
      <trkpt lat="49.05096" lon="1.91608">
        <ele>93</ele>
        <time>2020-06-28T08:59:50Z</time>
      </trkpt>
      <trkpt lat="49.05106" lon="1.91613">
        <ele>93</ele>
        <time>2020-06-28T08:59:59Z</time>
      </trkpt>
      <trkpt lat="49.05117" lon="1.91618">
        <ele>93</ele>
        <time>2020-06-28T09:00:07Z</time>
      </trkpt>
      <trkpt lat="49.05127" lon="1.9162">
        <ele>93</ele>
        <time>2020-06-28T09:00:15Z</time>
      </trkpt>
      <trkpt lat="49.05137" lon="1.91623">
        <ele>93</ele>
        <time>2020-06-28T09:00:22Z</time>
      </trkpt>
      <trkpt lat="49.05147" lon="1.91625">
        <ele>93</ele>
        <time>2020-06-28T09:00:30Z</time>
      </trkpt>
      <trkpt lat="49.05156" lon="1.91627">
        <ele>93</ele>
        <time>2020-06-28T09:00:36Z</time>
      </trkpt>
      <trkpt lat="49.05166" lon="1.9163">
        <ele>93</ele>
        <time>2020-06-28T09:00:43Z</time>
      </trkpt>
      <trkpt lat="49.05176" lon="1.91633">
        <ele>93</ele>
        <time>2020-06-28T09:00:51Z</time>
      </trkpt>
      <trkpt lat="49.05187" lon="1.91636">
        <ele>93</ele>
        <time>2020-06-28T09:00:59Z</time>
      </trkpt>
      <trkpt lat="49.05197" lon="1.9164">
        <ele>93</ele>
        <time>2020-06-28T09:01:06Z</time>
      </trkpt>
      <trkpt lat="49.05207" lon="1.91645">
        <ele>93</ele>
        <time>2020-06-28T09:01:13Z</time>
      </trkpt>
      <trkpt lat="49.05216" lon="1.91649">
        <ele>94</ele>
        <time>2020-06-28T09:01:19Z</time>
      </trkpt>
      <trkpt lat="49.05225" lon="1.91655">
        <ele>94</ele>
        <time>2020-06-28T09:01:26Z</time>
      </trkpt>
      <trkpt lat="49.05235" lon="1.91661">
        <ele>94</ele>
        <time>2020-06-28T09:01:33Z</time>
      </trkpt>
      <trkpt lat="49.05244" lon="1.91667">
        <ele>93</ele>
        <time>2020-06-28T09:01:41Z</time>
      </trkpt>
      <trkpt lat="49.05255" lon="1.91674">
        <ele>94</ele>
        <time>2020-06-28T09:01:49Z</time>
      </trkpt>
      <trkpt lat="49.05264" lon="1.9168">
        <ele>94</ele>
        <time>2020-06-28T09:01:57Z</time>
      </trkpt>
      <trkpt lat="49.05273" lon="1.91685">
        <ele>94</ele>
        <time>2020-06-28T09:02:03Z</time>
      </trkpt>
      <trkpt lat="49.05282" lon="1.91692">
        <ele>94</ele>
        <time>2020-06-28T09:02:12Z</time>
      </trkpt>
      <trkpt lat="49.05293" lon="1.91698">
        <ele>95</ele>
        <time>2020-06-28T09:02:20Z</time>
      </trkpt>
      <trkpt lat="49.05303" lon="1.91702">
        <ele>95</ele>
        <time>2020-06-28T09:02:28Z</time>
      </trkpt>
      <trkpt lat="49.05312" lon="1.91707">
        <ele>95</ele>
        <time>2020-06-28T09:02:35Z</time>
      </trkpt>
      <trkpt lat="49.05322" lon="1.91714">
        <ele>95</ele>
        <time>2020-06-28T09:02:42Z</time>
      </trkpt>
      <trkpt lat="49.05332" lon="1.9172">
        <ele>95</ele>
        <time>2020-06-28T09:02:51Z</time>
      </trkpt>
      <trkpt lat="49.05341" lon="1.91724">
        <ele>97</ele>
        <time>2020-06-28T09:02:57Z</time>
      </trkpt>
      <trkpt lat="49.05352" lon="1.91728">
        <ele>97</ele>
        <time>2020-06-28T09:03:05Z</time>
      </trkpt>
      <trkpt lat="49.05362" lon="1.91729">
        <ele>97</ele>
        <time>2020-06-28T09:03:14Z</time>
      </trkpt>
      <trkpt lat="49.05373" lon="1.91729">
        <ele>98</ele>
        <time>2020-06-28T09:03:21Z</time>
      </trkpt>
      <trkpt lat="49.05383" lon="1.9173">
        <ele>98</ele>
        <time>2020-06-28T09:03:29Z</time>
      </trkpt>
      <trkpt lat="49.05393" lon="1.91736">
        <ele>98</ele>
        <time>2020-06-28T09:03:37Z</time>
      </trkpt>
      <trkpt lat="49.05402" lon="1.91743">
        <ele>99</ele>
        <time>2020-06-28T09:03:44Z</time>
      </trkpt>
      <trkpt lat="49.05411" lon="1.91752">
        <ele>100</ele>
        <time>2020-06-28T09:03:52Z</time>
      </trkpt>
      <trkpt lat="49.0542" lon="1.91757">
        <ele>100</ele>
        <time>2020-06-28T09:04:00Z</time>
      </trkpt>
      <trkpt lat="49.0543" lon="1.91763">
        <ele>101</ele>
        <time>2020-06-28T09:04:07Z</time>
      </trkpt>
      <trkpt lat="49.0544" lon="1.9177">
        <ele>101</ele>
        <time>2020-06-28T09:04:15Z</time>
      </trkpt>
      <trkpt lat="49.0545" lon="1.91776">
        <ele>101</ele>
        <time>2020-06-28T09:04:22Z</time>
      </trkpt>
      <trkpt lat="49.05459" lon="1.91785">
        <ele>102</ele>
        <time>2020-06-28T09:04:30Z</time>
      </trkpt>
      <trkpt lat="49.05468" lon="1.91792">
        <ele>102</ele>
        <time>2020-06-28T09:04:38Z</time>
      </trkpt>
      <trkpt lat="49.05477" lon="1.91798">
        <ele>102</ele>
        <time>2020-06-28T09:04:46Z</time>
      </trkpt>
      <trkpt lat="49.05487" lon="1.91805">
        <ele>102</ele>
        <time>2020-06-28T09:04:54Z</time>
      </trkpt>
      <trkpt lat="49.055" lon="1.91815">
        <ele>102</ele>
        <time>2020-06-28T09:05:05Z</time>
      </trkpt>
      <trkpt lat="49.05509" lon="1.91821">
        <ele>103</ele>
        <time>2020-06-28T09:05:12Z</time>
      </trkpt>
      <trkpt lat="49.05517" lon="1.91828">
        <ele>103</ele>
        <time>2020-06-28T09:05:21Z</time>
      </trkpt>
      <trkpt lat="49.05526" lon="1.91834">
        <ele>103</ele>
        <time>2020-06-28T09:05:27Z</time>
      </trkpt>
      <trkpt lat="49.05535" lon="1.91842">
        <ele>104</ele>
        <time>2020-06-28T09:05:35Z</time>
      </trkpt>
      <trkpt lat="49.05545" lon="1.91849">
        <ele>104</ele>
        <time>2020-06-28T09:05:42Z</time>
      </trkpt>
      <trkpt lat="49.05553" lon="1.91854">
        <ele>104</ele>
        <time>2020-06-28T09:05:48Z</time>
      </trkpt>
      <trkpt lat="49.05563" lon="1.91861">
        <ele>104</ele>
        <time>2020-06-28T09:05:55Z</time>
      </trkpt>
      <trkpt lat="49.05573" lon="1.91868">
        <ele>104</ele>
        <time>2020-06-28T09:06:03Z</time>
      </trkpt>
      <trkpt lat="49.05584" lon="1.91873">
        <ele>105</ele>
        <time>2020-06-28T09:06:10Z</time>
      </trkpt>
      <trkpt lat="49.05593" lon="1.9188">
        <ele>105</ele>
        <time>2020-06-28T09:06:18Z</time>
      </trkpt>
      <trkpt lat="49.05604" lon="1.91888">
        <ele>105</ele>
        <time>2020-06-28T09:06:26Z</time>
      </trkpt>
      <trkpt lat="49.05614" lon="1.91894">
        <ele>105</ele>
        <time>2020-06-28T09:06:34Z</time>
      </trkpt>
      <trkpt lat="49.05623" lon="1.91902">
        <ele>105</ele>
        <time>2020-06-28T09:06:42Z</time>
      </trkpt>
      <trkpt lat="49.05632" lon="1.91908">
        <ele>105</ele>
        <time>2020-06-28T09:06:49Z</time>
      </trkpt>
      <trkpt lat="49.05641" lon="1.91915">
        <ele>105</ele>
        <time>2020-06-28T09:06:55Z</time>
      </trkpt>
      <trkpt lat="49.0565" lon="1.91924">
        <ele>106</ele>
        <time>2020-06-28T09:07:03Z</time>
      </trkpt>
      <trkpt lat="49.0566" lon="1.91931">
        <ele>106</ele>
        <time>2020-06-28T09:07:11Z</time>
      </trkpt>
      <trkpt lat="49.0567" lon="1.91932">
        <ele>105</ele>
        <time>2020-06-28T09:07:19Z</time>
      </trkpt>
      <trkpt lat="49.05679" lon="1.9194">
        <ele>105</ele>
        <time>2020-06-28T09:07:29Z</time>
      </trkpt>
      <trkpt lat="49.05686" lon="1.91949">
        <ele>105</ele>
        <time>2020-06-28T09:07:36Z</time>
      </trkpt>
      <trkpt lat="49.05696" lon="1.91958">
        <ele>105</ele>
        <time>2020-06-28T09:07:43Z</time>
      </trkpt>
      <trkpt lat="49.05705" lon="1.91966">
        <ele>105</ele>
        <time>2020-06-28T09:07:52Z</time>
      </trkpt>
      <trkpt lat="49.05714" lon="1.91976">
        <ele>105</ele>
        <time>2020-06-28T09:07:59Z</time>
      </trkpt>
      <trkpt lat="49.05722" lon="1.91984">
        <ele>105</ele>
        <time>2020-06-28T09:08:05Z</time>
      </trkpt>
      <trkpt lat="49.0573" lon="1.91991">
        <ele>104</ele>
        <time>2020-06-28T09:08:12Z</time>
      </trkpt>
      <trkpt lat="49.05738" lon="1.92">
        <ele>104</ele>
        <time>2020-06-28T09:08:19Z</time>
      </trkpt>
      <trkpt lat="49.05747" lon="1.92009">
        <ele>104</ele>
        <time>2020-06-28T09:08:26Z</time>
      </trkpt>
      <trkpt lat="49.05757" lon="1.92016">
        <ele>100</ele>
        <time>2020-06-28T09:08:34Z</time>
      </trkpt>
      <trkpt lat="49.05766" lon="1.92022">
        <ele>98</ele>
        <time>2020-06-28T09:08:43Z</time>
      </trkpt>
      <trkpt lat="49.05776" lon="1.92019">
        <ele>97</ele>
        <time>2020-06-28T09:08:51Z</time>
      </trkpt>
      <trkpt lat="49.05786" lon="1.92014">
        <ele>96</ele>
        <time>2020-06-28T09:08:59Z</time>
      </trkpt>
      <trkpt lat="49.05796" lon="1.92009">
        <ele>95</ele>
        <time>2020-06-28T09:09:07Z</time>
      </trkpt>
      <trkpt lat="49.05805" lon="1.92003">
        <ele>94</ele>
        <time>2020-06-28T09:09:15Z</time>
      </trkpt>
      <trkpt lat="49.05815" lon="1.91995">
        <ele>96</ele>
        <time>2020-06-28T09:09:23Z</time>
      </trkpt>
      <trkpt lat="49.05823" lon="1.91986">
        <ele>95</ele>
        <time>2020-06-28T09:09:31Z</time>
      </trkpt>
      <trkpt lat="49.05832" lon="1.91976">
        <ele>96</ele>
        <time>2020-06-28T09:09:39Z</time>
      </trkpt>
      <trkpt lat="49.0584" lon="1.91967">
        <ele>90</ele>
        <time>2020-06-28T09:09:47Z</time>
      </trkpt>
      <trkpt lat="49.05849" lon="1.91962">
        <ele>90</ele>
        <time>2020-06-28T09:09:54Z</time>
      </trkpt>
      <trkpt lat="49.0586" lon="1.91959">
        <ele>90</ele>
        <time>2020-06-28T09:10:02Z</time>
      </trkpt>
      <trkpt lat="49.05869" lon="1.91964">
        <ele>89</ele>
        <time>2020-06-28T09:10:09Z</time>
      </trkpt>
      <trkpt lat="49.05879" lon="1.91969">
        <ele>88</ele>
        <time>2020-06-28T09:10:16Z</time>
      </trkpt>
      <trkpt lat="49.05889" lon="1.91971">
        <ele>87</ele>
        <time>2020-06-28T09:10:22Z</time>
      </trkpt>
      <trkpt lat="49.05901" lon="1.91972">
        <ele>86</ele>
        <time>2020-06-28T09:10:29Z</time>
      </trkpt>
      <trkpt lat="49.05911" lon="1.91975">
        <ele>85</ele>
        <time>2020-06-28T09:10:37Z</time>
      </trkpt>
      <trkpt lat="49.05921" lon="1.91978">
        <ele>80</ele>
        <time>2020-06-28T09:10:43Z</time>
      </trkpt>
      <trkpt lat="49.05931" lon="1.91983">
        <ele>80</ele>
        <time>2020-06-28T09:10:51Z</time>
      </trkpt>
      <trkpt lat="49.05941" lon="1.91987">
        <ele>80</ele>
        <time>2020-06-28T09:10:59Z</time>
      </trkpt>
      <trkpt lat="49.05951" lon="1.91991">
        <ele>80</ele>
        <time>2020-06-28T09:11:07Z</time>
      </trkpt>
      <trkpt lat="49.05961" lon="1.91996">
        <ele>80</ele>
        <time>2020-06-28T09:11:15Z</time>
      </trkpt>
      <trkpt lat="49.05972" lon="1.91999">
        <ele>79</ele>
        <time>2020-06-28T09:11:23Z</time>
      </trkpt>
      <trkpt lat="49.05981" lon="1.92005">
        <ele>78</ele>
        <time>2020-06-28T09:11:30Z</time>
      </trkpt>
      <trkpt lat="49.05991" lon="1.92009">
        <ele>78</ele>
        <time>2020-06-28T09:11:38Z</time>
      </trkpt>
      <trkpt lat="49.06002" lon="1.92013">
        <ele>77</ele>
        <time>2020-06-28T09:11:46Z</time>
      </trkpt>
      <trkpt lat="49.06013" lon="1.92016">
        <ele>77</ele>
        <time>2020-06-28T09:11:54Z</time>
      </trkpt>
      <trkpt lat="49.06024" lon="1.9202">
        <ele>77</ele>
        <time>2020-06-28T09:12:02Z</time>
      </trkpt>
      <trkpt lat="49.06034" lon="1.92022">
        <ele>77</ele>
        <time>2020-06-28T09:12:10Z</time>
      </trkpt>
      <trkpt lat="49.06043" lon="1.92025">
        <ele>77</ele>
        <time>2020-06-28T09:12:17Z</time>
      </trkpt>
      <trkpt lat="49.06054" lon="1.92028">
        <ele>77</ele>
        <time>2020-06-28T09:12:25Z</time>
      </trkpt>
      <trkpt lat="49.06065" lon="1.92029">
        <ele>77</ele>
        <time>2020-06-28T09:12:33Z</time>
      </trkpt>
      <trkpt lat="49.06074" lon="1.92034">
        <ele>76</ele>
        <time>2020-06-28T09:12:40Z</time>
      </trkpt>
      <trkpt lat="49.06085" lon="1.92037">
        <ele>75</ele>
        <time>2020-06-28T09:12:48Z</time>
      </trkpt>
      <trkpt lat="49.06096" lon="1.92041">
        <ele>75</ele>
        <time>2020-06-28T09:12:56Z</time>
      </trkpt>
      <trkpt lat="49.06107" lon="1.92044">
        <ele>75</ele>
        <time>2020-06-28T09:13:04Z</time>
      </trkpt>
      <trkpt lat="49.06118" lon="1.92047">
        <ele>75</ele>
        <time>2020-06-28T09:13:12Z</time>
      </trkpt>
      <trkpt lat="49.06128" lon="1.92051">
        <ele>74</ele>
        <time>2020-06-28T09:13:20Z</time>
      </trkpt>
      <trkpt lat="49.06139" lon="1.92055">
        <ele>74</ele>
        <time>2020-06-28T09:13:28Z</time>
      </trkpt>
      <trkpt lat="49.06149" lon="1.92059">
        <ele>74</ele>
        <time>2020-06-28T09:13:35Z</time>
      </trkpt>
      <trkpt lat="49.0616" lon="1.92063">
        <ele>74</ele>
        <time>2020-06-28T09:13:43Z</time>
      </trkpt>
      <trkpt lat="49.06169" lon="1.92066">
        <ele>73</ele>
        <time>2020-06-28T09:13:50Z</time>
      </trkpt>
      <trkpt lat="49.06178" lon="1.92069">
        <ele>73</ele>
        <time>2020-06-28T09:13:57Z</time>
      </trkpt>
      <trkpt lat="49.06189" lon="1.9207">
        <ele>73</ele>
        <time>2020-06-28T09:14:05Z</time>
      </trkpt>
      <trkpt lat="49.06199" lon="1.9207">
        <ele>73</ele>
        <time>2020-06-28T09:14:26Z</time>
      </trkpt>
      <trkpt lat="49.06208" lon="1.92066">
        <ele>73</ele>
        <time>2020-06-28T09:14:33Z</time>
      </trkpt>
      <trkpt lat="49.06219" lon="1.92059">
        <ele>73</ele>
        <time>2020-06-28T09:14:51Z</time>
      </trkpt>
      <trkpt lat="49.0623" lon="1.92053">
        <ele>73</ele>
        <time>2020-06-28T09:14:59Z</time>
      </trkpt>
      <trkpt lat="49.06238" lon="1.92046">
        <ele>73</ele>
        <time>2020-06-28T09:15:07Z</time>
      </trkpt>
      <trkpt lat="49.06248" lon="1.92039">
        <ele>73</ele>
        <time>2020-06-28T09:15:15Z</time>
      </trkpt>
      <trkpt lat="49.06261" lon="1.92031">
        <ele>73</ele>
        <time>2020-06-28T09:15:23Z</time>
      </trkpt>
      <trkpt lat="49.0627" lon="1.92025">
        <ele>73</ele>
        <time>2020-06-28T09:15:51Z</time>
      </trkpt>
      <trkpt lat="49.06281" lon="1.92022">
        <ele>73</ele>
        <time>2020-06-28T09:15:57Z</time>
      </trkpt>
      <trkpt lat="49.0629" lon="1.92017">
        <ele>73</ele>
        <time>2020-06-28T09:16:04Z</time>
      </trkpt>
      <trkpt lat="49.06301" lon="1.92011">
        <ele>72</ele>
        <time>2020-06-28T09:16:12Z</time>
      </trkpt>
      <trkpt lat="49.0631" lon="1.92006">
        <ele>72</ele>
        <time>2020-06-28T09:16:18Z</time>
      </trkpt>
      <trkpt lat="49.0632" lon="1.91998">
        <ele>71</ele>
        <time>2020-06-28T09:16:26Z</time>
      </trkpt>
      <trkpt lat="49.06328" lon="1.9199">
        <ele>71</ele>
        <time>2020-06-28T09:16:32Z</time>
      </trkpt>
      <trkpt lat="49.06339" lon="1.91983">
        <ele>70</ele>
        <time>2020-06-28T09:16:40Z</time>
      </trkpt>
      <trkpt lat="49.06349" lon="1.91975">
        <ele>70</ele>
        <time>2020-06-28T09:16:48Z</time>
      </trkpt>
      <trkpt lat="49.0636" lon="1.91969">
        <ele>70</ele>
        <time>2020-06-28T09:16:56Z</time>
      </trkpt>
      <trkpt lat="49.06371" lon="1.91962">
        <ele>70</ele>
        <time>2020-06-28T09:17:04Z</time>
      </trkpt>
      <trkpt lat="49.06381" lon="1.91957">
        <ele>69</ele>
        <time>2020-06-28T09:17:11Z</time>
      </trkpt>
      <trkpt lat="49.0639" lon="1.91951">
        <ele>69</ele>
        <time>2020-06-28T09:17:19Z</time>
      </trkpt>
      <trkpt lat="49.06399" lon="1.91944">
        <ele>69</ele>
        <time>2020-06-28T09:17:25Z</time>
      </trkpt>
      <trkpt lat="49.06408" lon="1.91936">
        <ele>69</ele>
        <time>2020-06-28T09:17:32Z</time>
      </trkpt>
      <trkpt lat="49.06417" lon="1.91927">
        <ele>68</ele>
        <time>2020-06-28T09:17:39Z</time>
      </trkpt>
      <trkpt lat="49.06426" lon="1.91917">
        <ele>68</ele>
        <time>2020-06-28T09:17:47Z</time>
      </trkpt>
      <trkpt lat="49.06435" lon="1.91908">
        <ele>68</ele>
        <time>2020-06-28T09:17:55Z</time>
      </trkpt>
      <trkpt lat="49.06444" lon="1.91897">
        <ele>69</ele>
        <time>2020-06-28T09:18:03Z</time>
      </trkpt>
      <trkpt lat="49.06451" lon="1.91885">
        <ele>69</ele>
        <time>2020-06-28T09:18:11Z</time>
      </trkpt>
      <trkpt lat="49.06456" lon="1.91872">
        <ele>69</ele>
        <time>2020-06-28T09:18:17Z</time>
      </trkpt>
      <trkpt lat="49.06461" lon="1.91858">
        <ele>69</ele>
        <time>2020-06-28T09:18:24Z</time>
      </trkpt>
      <trkpt lat="49.06466" lon="1.91844">
        <ele>69</ele>
        <time>2020-06-28T09:18:30Z</time>
      </trkpt>
      <trkpt lat="49.06471" lon="1.91828">
        <ele>69</ele>
        <time>2020-06-28T09:18:38Z</time>
      </trkpt>
      <trkpt lat="49.06475" lon="1.91815">
        <ele>69</ele>
        <time>2020-06-28T09:18:45Z</time>
      </trkpt>
      <trkpt lat="49.06479" lon="1.91798">
        <ele>69</ele>
        <time>2020-06-28T09:18:53Z</time>
      </trkpt>
      <trkpt lat="49.06482" lon="1.91781">
        <ele>69</ele>
        <time>2020-06-28T09:19:01Z</time>
      </trkpt>
      <trkpt lat="49.06484" lon="1.91768">
        <ele>70</ele>
        <time>2020-06-28T09:19:07Z</time>
      </trkpt>
      <trkpt lat="49.06487" lon="1.91754">
        <ele>70</ele>
        <time>2020-06-28T09:19:13Z</time>
      </trkpt>
      <trkpt lat="49.06491" lon="1.91738">
        <ele>70</ele>
        <time>2020-06-28T09:19:21Z</time>
      </trkpt>
      <trkpt lat="49.06495" lon="1.91722">
        <ele>70</ele>
        <time>2020-06-28T09:19:29Z</time>
      </trkpt>
      <trkpt lat="49.06498" lon="1.91705">
        <ele>70</ele>
        <time>2020-06-28T09:19:37Z</time>
      </trkpt>
      <trkpt lat="49.06502" lon="1.91691">
        <ele>71</ele>
        <time>2020-06-28T09:19:44Z</time>
      </trkpt>
      <trkpt lat="49.06506" lon="1.91676">
        <ele>71</ele>
        <time>2020-06-28T09:19:52Z</time>
      </trkpt>
      <trkpt lat="49.0651" lon="1.91662">
        <ele>71</ele>
        <time>2020-06-28T09:19:59Z</time>
      </trkpt>
      <trkpt lat="49.06512" lon="1.91647">
        <ele>71</ele>
        <time>2020-06-28T09:20:06Z</time>
      </trkpt>
      <trkpt lat="49.06515" lon="1.9163">
        <ele>72</ele>
        <time>2020-06-28T09:20:14Z</time>
      </trkpt>
      <trkpt lat="49.06519" lon="1.91614">
        <ele>72</ele>
        <time>2020-06-28T09:20:22Z</time>
      </trkpt>
      <trkpt lat="49.06523" lon="1.916">
        <ele>72</ele>
        <time>2020-06-28T09:20:29Z</time>
      </trkpt>
      <trkpt lat="49.06527" lon="1.91583">
        <ele>72</ele>
        <time>2020-06-28T09:20:37Z</time>
      </trkpt>
      <trkpt lat="49.06531" lon="1.91568">
        <ele>72</ele>
        <time>2020-06-28T09:20:45Z</time>
      </trkpt>
      <trkpt lat="49.06536" lon="1.91552">
        <ele>73</ele>
        <time>2020-06-28T09:20:53Z</time>
      </trkpt>
      <trkpt lat="49.0654" lon="1.91538">
        <ele>73</ele>
        <time>2020-06-28T09:20:59Z</time>
      </trkpt>
      <trkpt lat="49.06543" lon="1.91525">
        <ele>73</ele>
        <time>2020-06-28T09:21:05Z</time>
      </trkpt>
      <trkpt lat="49.06547" lon="1.91511">
        <ele>73</ele>
        <time>2020-06-28T09:21:12Z</time>
      </trkpt>
      <trkpt lat="49.06553" lon="1.91498">
        <ele>73</ele>
        <time>2020-06-28T09:21:20Z</time>
      </trkpt>
      <trkpt lat="49.0656" lon="1.91484">
        <ele>73</ele>
        <time>2020-06-28T09:21:28Z</time>
      </trkpt>
      <trkpt lat="49.06566" lon="1.91469">
        <ele>73</ele>
        <time>2020-06-28T09:21:36Z</time>
      </trkpt>
      <trkpt lat="49.06572" lon="1.91455">
        <ele>73</ele>
        <time>2020-06-28T09:21:44Z</time>
      </trkpt>
      <trkpt lat="49.06577" lon="1.91442">
        <ele>73</ele>
        <time>2020-06-28T09:21:51Z</time>
      </trkpt>
      <trkpt lat="49.06582" lon="1.91429">
        <ele>73</ele>
        <time>2020-06-28T09:21:57Z</time>
      </trkpt>
      <trkpt lat="49.06588" lon="1.91418">
        <ele>73</ele>
        <time>2020-06-28T09:22:04Z</time>
      </trkpt>
      <trkpt lat="49.06595" lon="1.91405">
        <ele>74</ele>
        <time>2020-06-28T09:22:12Z</time>
      </trkpt>
      <trkpt lat="49.066" lon="1.91392">
        <ele>74</ele>
        <time>2020-06-28T09:22:19Z</time>
      </trkpt>
      <trkpt lat="49.06605" lon="1.91378">
        <ele>74</ele>
        <time>2020-06-28T09:22:26Z</time>
      </trkpt>
      <trkpt lat="49.06611" lon="1.91362">
        <ele>74</ele>
        <time>2020-06-28T09:22:34Z</time>
      </trkpt>
      <trkpt lat="49.06617" lon="1.91348">
        <ele>74</ele>
        <time>2020-06-28T09:22:41Z</time>
      </trkpt>
      <trkpt lat="49.06621" lon="1.91334">
        <ele>74</ele>
        <time>2020-06-28T09:22:48Z</time>
      </trkpt>
      <trkpt lat="49.06628" lon="1.9132">
        <ele>75</ele>
        <time>2020-06-28T09:22:56Z</time>
      </trkpt>
      <trkpt lat="49.06634" lon="1.91306">
        <ele>75</ele>
        <time>2020-06-28T09:23:04Z</time>
      </trkpt>
      <trkpt lat="49.06641" lon="1.91294">
        <ele>75</ele>
        <time>2020-06-28T09:23:12Z</time>
      </trkpt>
      <trkpt lat="49.06647" lon="1.9128">
        <ele>76</ele>
        <time>2020-06-28T09:23:20Z</time>
      </trkpt>
      <trkpt lat="49.06652" lon="1.91265">
        <ele>76</ele>
        <time>2020-06-28T09:23:28Z</time>
      </trkpt>
      <trkpt lat="49.06657" lon="1.91253">
        <ele>76</ele>
        <time>2020-06-28T09:23:34Z</time>
      </trkpt>
      <trkpt lat="49.06662" lon="1.91241">
        <ele>77</ele>
        <time>2020-06-28T09:23:40Z</time>
      </trkpt>
      <trkpt lat="49.06667" lon="1.91226">
        <ele>78</ele>
        <time>2020-06-28T09:23:48Z</time>
      </trkpt>
      <trkpt lat="49.06674" lon="1.91212">
        <ele>78</ele>
        <time>2020-06-28T09:23:56Z</time>
      </trkpt>
      <trkpt lat="49.06678" lon="1.91199">
        <ele>78</ele>
        <time>2020-06-28T09:24:02Z</time>
      </trkpt>
      <trkpt lat="49.06683" lon="1.91185">
        <ele>78</ele>
        <time>2020-06-28T09:24:09Z</time>
      </trkpt>
      <trkpt lat="49.06688" lon="1.91172">
        <ele>78</ele>
        <time>2020-06-28T09:24:16Z</time>
      </trkpt>
      <trkpt lat="49.06695" lon="1.91161">
        <ele>78</ele>
        <time>2020-06-28T09:24:24Z</time>
      </trkpt>
      <trkpt lat="49.06702" lon="1.91147">
        <ele>78</ele>
        <time>2020-06-28T09:24:32Z</time>
      </trkpt>
      <trkpt lat="49.0671" lon="1.91134">
        <ele>78</ele>
        <time>2020-06-28T09:24:40Z</time>
      </trkpt>
      <trkpt lat="49.06718" lon="1.91122">
        <ele>78</ele>
        <time>2020-06-28T09:24:48Z</time>
      </trkpt>
      <trkpt lat="49.06725" lon="1.91112">
        <ele>78</ele>
        <time>2020-06-28T09:24:54Z</time>
      </trkpt>
      <trkpt lat="49.0673" lon="1.91101">
        <ele>78</ele>
        <time>2020-06-28T09:25:00Z</time>
      </trkpt>
      <trkpt lat="49.06737" lon="1.91088">
        <ele>78</ele>
        <time>2020-06-28T09:25:08Z</time>
      </trkpt>
      <trkpt lat="49.06745" lon="1.91075">
        <ele>78</ele>
        <time>2020-06-28T09:25:16Z</time>
      </trkpt>
      <trkpt lat="49.06752" lon="1.91063">
        <ele>79</ele>
        <time>2020-06-28T09:25:24Z</time>
      </trkpt>
      <trkpt lat="49.06759" lon="1.91051">
        <ele>80</ele>
        <time>2020-06-28T09:25:32Z</time>
      </trkpt>
      <trkpt lat="49.06766" lon="1.9104">
        <ele>80</ele>
        <time>2020-06-28T09:25:40Z</time>
      </trkpt>
      <trkpt lat="49.06773" lon="1.91026">
        <ele>80</ele>
        <time>2020-06-28T09:25:48Z</time>
      </trkpt>
      <trkpt lat="49.0678" lon="1.91013">
        <ele>80</ele>
        <time>2020-06-28T09:25:56Z</time>
      </trkpt>
      <trkpt lat="49.06788" lon="1.91002">
        <ele>80</ele>
        <time>2020-06-28T09:26:04Z</time>
      </trkpt>
      <trkpt lat="49.06795" lon="1.9099">
        <ele>80</ele>
        <time>2020-06-28T09:26:12Z</time>
      </trkpt>
      <trkpt lat="49.06803" lon="1.90977">
        <ele>80</ele>
        <time>2020-06-28T09:26:20Z</time>
      </trkpt>
      <trkpt lat="49.0681" lon="1.90965">
        <ele>80</ele>
        <time>2020-06-28T09:26:28Z</time>
      </trkpt>
      <trkpt lat="49.06816" lon="1.90952">
        <ele>80</ele>
        <time>2020-06-28T09:26:36Z</time>
      </trkpt>
      <trkpt lat="49.06822" lon="1.9094">
        <ele>80</ele>
        <time>2020-06-28T09:26:43Z</time>
      </trkpt>
      <trkpt lat="49.06828" lon="1.90925">
        <ele>81</ele>
        <time>2020-06-28T09:26:51Z</time>
      </trkpt>
      <trkpt lat="49.06834" lon="1.9091">
        <ele>81</ele>
        <time>2020-06-28T09:26:59Z</time>
      </trkpt>
      <trkpt lat="49.06841" lon="1.90897">
        <ele>82</ele>
        <time>2020-06-28T09:27:07Z</time>
      </trkpt>
      <trkpt lat="49.06846" lon="1.90883">
        <ele>82</ele>
        <time>2020-06-28T09:27:14Z</time>
      </trkpt>
      <trkpt lat="49.0685" lon="1.9087">
        <ele>82</ele>
        <time>2020-06-28T09:27:20Z</time>
      </trkpt>
      <trkpt lat="49.06854" lon="1.90856">
        <ele>83</ele>
        <time>2020-06-28T09:27:27Z</time>
      </trkpt>
      <trkpt lat="49.06861" lon="1.90843">
        <ele>83</ele>
        <time>2020-06-28T09:27:35Z</time>
      </trkpt>
      <trkpt lat="49.06867" lon="1.90831">
        <ele>83</ele>
        <time>2020-06-28T09:27:43Z</time>
      </trkpt>
      <trkpt lat="49.06873" lon="1.90816">
        <ele>84</ele>
        <time>2020-06-28T09:27:51Z</time>
      </trkpt>
      <trkpt lat="49.06879" lon="1.90801">
        <ele>84</ele>
        <time>2020-06-28T09:27:59Z</time>
      </trkpt>
      <trkpt lat="49.06884" lon="1.90787">
        <ele>84</ele>
        <time>2020-06-28T09:28:07Z</time>
      </trkpt>
      <trkpt lat="49.06888" lon="1.90773">
        <ele>84</ele>
        <time>2020-06-28T09:28:14Z</time>
      </trkpt>
      <trkpt lat="49.06892" lon="1.9076">
        <ele>84</ele>
        <time>2020-06-28T09:28:20Z</time>
      </trkpt>
      <trkpt lat="49.06898" lon="1.90745">
        <ele>85</ele>
        <time>2020-06-28T09:28:28Z</time>
      </trkpt>
      <trkpt lat="49.06903" lon="1.9073">
        <ele>85</ele>
        <time>2020-06-28T09:28:36Z</time>
      </trkpt>
      <trkpt lat="49.06909" lon="1.90714">
        <ele>85</ele>
        <time>2020-06-28T09:28:44Z</time>
      </trkpt>
      <trkpt lat="49.06914" lon="1.90698">
        <ele>85</ele>
        <time>2020-06-28T09:28:52Z</time>
      </trkpt>
      <trkpt lat="49.06919" lon="1.90683">
        <ele>86</ele>
        <time>2020-06-28T09:29:00Z</time>
      </trkpt>
      <trkpt lat="49.06924" lon="1.9067">
        <ele>86</ele>
        <time>2020-06-28T09:29:08Z</time>
      </trkpt>
      <trkpt lat="49.06929" lon="1.90655">
        <ele>86</ele>
        <time>2020-06-28T09:29:16Z</time>
      </trkpt>
      <trkpt lat="49.06934" lon="1.90641">
        <ele>86</ele>
        <time>2020-06-28T09:29:23Z</time>
      </trkpt>
      <trkpt lat="49.0694" lon="1.90625">
        <ele>86</ele>
        <time>2020-06-28T09:29:31Z</time>
      </trkpt>
      <trkpt lat="49.06945" lon="1.90613">
        <ele>87</ele>
        <time>2020-06-28T09:29:38Z</time>
      </trkpt>
      <trkpt lat="49.0695" lon="1.906">
        <ele>87</ele>
        <time>2020-06-28T09:29:45Z</time>
      </trkpt>
      <trkpt lat="49.06956" lon="1.90586">
        <ele>87</ele>
        <time>2020-06-28T09:29:53Z</time>
      </trkpt>
      <trkpt lat="49.06962" lon="1.90573">
        <ele>88</ele>
        <time>2020-06-28T09:30:01Z</time>
      </trkpt>
      <trkpt lat="49.06968" lon="1.9056">
        <ele>88</ele>
        <time>2020-06-28T09:30:09Z</time>
      </trkpt>
      <trkpt lat="49.06975" lon="1.90546">
        <ele>88</ele>
        <time>2020-06-28T09:30:17Z</time>
      </trkpt>
      <trkpt lat="49.06982" lon="1.90533">
        <ele>88</ele>
        <time>2020-06-28T09:30:25Z</time>
      </trkpt>
      <trkpt lat="49.06989" lon="1.9052">
        <ele>88</ele>
        <time>2020-06-28T09:30:33Z</time>
      </trkpt>
      <trkpt lat="49.06995" lon="1.90508">
        <ele>89</ele>
        <time>2020-06-28T09:30:40Z</time>
      </trkpt>
      <trkpt lat="49.07001" lon="1.90496">
        <ele>89</ele>
        <time>2020-06-28T09:30:47Z</time>
      </trkpt>
      <trkpt lat="49.07008" lon="1.90483">
        <ele>89</ele>
        <time>2020-06-28T09:30:55Z</time>
      </trkpt>
      <trkpt lat="49.07014" lon="1.90471">
        <ele>89</ele>
        <time>2020-06-28T09:31:02Z</time>
      </trkpt>
      <trkpt lat="49.0702" lon="1.90457">
        <ele>89</ele>
        <time>2020-06-28T09:31:10Z</time>
      </trkpt>
      <trkpt lat="49.07026" lon="1.90443">
        <ele>89</ele>
        <time>2020-06-28T09:31:18Z</time>
      </trkpt>
      <trkpt lat="49.07032" lon="1.90432">
        <ele>89</ele>
        <time>2020-06-28T09:31:24Z</time>
      </trkpt>
      <trkpt lat="49.07037" lon="1.9042">
        <ele>89</ele>
        <time>2020-06-28T09:31:30Z</time>
      </trkpt>
      <trkpt lat="49.07044" lon="1.90408">
        <ele>89</ele>
        <time>2020-06-28T09:31:37Z</time>
      </trkpt>
      <trkpt lat="49.0705" lon="1.90393">
        <ele>89</ele>
        <time>2020-06-28T09:31:45Z</time>
      </trkpt>
      <trkpt lat="49.07057" lon="1.9038">
        <ele>89</ele>
        <time>2020-06-28T09:31:53Z</time>
      </trkpt>
      <trkpt lat="49.07063" lon="1.90368">
        <ele>89</ele>
        <time>2020-06-28T09:32:00Z</time>
      </trkpt>
      <trkpt lat="49.07069" lon="1.90355">
        <ele>89</ele>
        <time>2020-06-28T09:32:07Z</time>
      </trkpt>
      <trkpt lat="49.07076" lon="1.90342">
        <ele>88</ele>
        <time>2020-06-28T09:32:14Z</time>
      </trkpt>
      <trkpt lat="49.07082" lon="1.90329">
        <ele>88</ele>
        <time>2020-06-28T09:32:21Z</time>
      </trkpt>
      <trkpt lat="49.07089" lon="1.90316">
        <ele>88</ele>
        <time>2020-06-28T09:32:29Z</time>
      </trkpt>
      <trkpt lat="49.07096" lon="1.90303">
        <ele>88</ele>
        <time>2020-06-28T09:32:37Z</time>
      </trkpt>
      <trkpt lat="49.07103" lon="1.90288">
        <ele>88</ele>
        <time>2020-06-28T09:32:45Z</time>
      </trkpt>
      <trkpt lat="49.0711" lon="1.90275">
        <ele>88</ele>
        <time>2020-06-28T09:32:53Z</time>
      </trkpt>
      <trkpt lat="49.07117" lon="1.90262">
        <ele>88</ele>
        <time>2020-06-28T09:33:01Z</time>
      </trkpt>
      <trkpt lat="49.07123" lon="1.90249">
        <ele>88</ele>
        <time>2020-06-28T09:33:09Z</time>
      </trkpt>
      <trkpt lat="49.0713" lon="1.90235">
        <ele>88</ele>
        <time>2020-06-28T09:33:17Z</time>
      </trkpt>
      <trkpt lat="49.07136" lon="1.90223">
        <ele>88</ele>
        <time>2020-06-28T09:33:25Z</time>
      </trkpt>
      <trkpt lat="49.07142" lon="1.90211">
        <ele>88</ele>
        <time>2020-06-28T09:33:33Z</time>
      </trkpt>
      <trkpt lat="49.07147" lon="1.90197">
        <ele>88</ele>
        <time>2020-06-28T09:41:30Z</time>
      </trkpt>
      <trkpt lat="49.07157" lon="1.902">
        <ele>88</ele>
        <time>2020-06-28T09:41:55Z</time>
      </trkpt>
      <trkpt lat="49.07166" lon="1.90205">
        <ele>88</ele>
        <time>2020-06-28T09:42:03Z</time>
      </trkpt>
      <trkpt lat="49.07176" lon="1.90212">
        <ele>87</ele>
        <time>2020-06-28T09:42:12Z</time>
      </trkpt>
      <trkpt lat="49.07185" lon="1.90218">
        <ele>87</ele>
        <time>2020-06-28T09:42:20Z</time>
      </trkpt>
      <trkpt lat="49.07194" lon="1.90226">
        <ele>87</ele>
        <time>2020-06-28T09:42:29Z</time>
      </trkpt>
      <trkpt lat="49.07203" lon="1.90233">
        <ele>87</ele>
        <time>2020-06-28T09:42:38Z</time>
      </trkpt>
      <trkpt lat="49.07213" lon="1.9024">
        <ele>87</ele>
        <time>2020-06-28T09:42:47Z</time>
      </trkpt>
      <trkpt lat="49.07222" lon="1.90245">
        <ele>87</ele>
        <time>2020-06-28T09:42:55Z</time>
      </trkpt>
      <trkpt lat="49.07231" lon="1.90252">
        <ele>87</ele>
        <time>2020-06-28T09:43:03Z</time>
      </trkpt>
      <trkpt lat="49.0724" lon="1.90259">
        <ele>87</ele>
        <time>2020-06-28T09:43:10Z</time>
      </trkpt>
      <trkpt lat="49.0725" lon="1.90265">
        <ele>86</ele>
        <time>2020-06-28T09:43:18Z</time>
      </trkpt>
      <trkpt lat="49.07259" lon="1.90272">
        <ele>86</ele>
        <time>2020-06-28T09:43:27Z</time>
      </trkpt>
      <trkpt lat="49.07268" lon="1.90279">
        <ele>86</ele>
        <time>2020-06-28T09:43:36Z</time>
      </trkpt>
      <trkpt lat="49.07279" lon="1.90286">
        <ele>86</ele>
        <time>2020-06-28T09:43:44Z</time>
      </trkpt>
      <trkpt lat="49.07288" lon="1.90293">
        <ele>86</ele>
        <time>2020-06-28T09:43:52Z</time>
      </trkpt>
      <trkpt lat="49.07297" lon="1.903">
        <ele>86</ele>
        <time>2020-06-28T09:44:00Z</time>
      </trkpt>
      <trkpt lat="49.07307" lon="1.90307">
        <ele>86</ele>
        <time>2020-06-28T09:44:09Z</time>
      </trkpt>
      <trkpt lat="49.07317" lon="1.90315">
        <ele>85</ele>
        <time>2020-06-28T09:44:17Z</time>
      </trkpt>
      <trkpt lat="49.07326" lon="1.9032">
        <ele>85</ele>
        <time>2020-06-28T09:44:24Z</time>
      </trkpt>
      <trkpt lat="49.07336" lon="1.90326">
        <ele>86</ele>
        <time>2020-06-28T09:44:33Z</time>
      </trkpt>
      <trkpt lat="49.07344" lon="1.90333">
        <ele>86</ele>
        <time>2020-06-28T09:44:41Z</time>
      </trkpt>
      <trkpt lat="49.07353" lon="1.9034">
        <ele>86</ele>
        <time>2020-06-28T09:44:49Z</time>
      </trkpt>
      <trkpt lat="49.07362" lon="1.90348">
        <ele>86</ele>
        <time>2020-06-28T09:44:58Z</time>
      </trkpt>
      <trkpt lat="49.07373" lon="1.90356">
        <ele>87</ele>
        <time>2020-06-28T09:45:08Z</time>
      </trkpt>
      <trkpt lat="49.07383" lon="1.90362">
        <ele>87</ele>
        <time>2020-06-28T09:45:16Z</time>
      </trkpt>
      <trkpt lat="49.07394" lon="1.90363">
        <ele>87</ele>
        <time>2020-06-28T09:45:24Z</time>
      </trkpt>
      <trkpt lat="49.074" lon="1.90352">
        <ele>88</ele>
        <time>2020-06-28T09:45:33Z</time>
      </trkpt>
      <trkpt lat="49.07407" lon="1.9034">
        <ele>88</ele>
        <time>2020-06-28T09:45:41Z</time>
      </trkpt>
      <trkpt lat="49.07413" lon="1.90328">
        <ele>89</ele>
        <time>2020-06-28T09:45:49Z</time>
      </trkpt>
      <trkpt lat="49.07418" lon="1.90315">
        <ele>89</ele>
        <time>2020-06-28T09:45:57Z</time>
      </trkpt>
      <trkpt lat="49.07425" lon="1.90302">
        <ele>89</ele>
        <time>2020-06-28T09:46:05Z</time>
      </trkpt>
      <trkpt lat="49.07431" lon="1.9029">
        <ele>89</ele>
        <time>2020-06-28T09:46:14Z</time>
      </trkpt>
      <trkpt lat="49.07437" lon="1.90276">
        <ele>89</ele>
        <time>2020-06-28T09:46:22Z</time>
      </trkpt>
      <trkpt lat="49.07444" lon="1.90264">
        <ele>89</ele>
        <time>2020-06-28T09:46:31Z</time>
      </trkpt>
      <trkpt lat="49.0745" lon="1.90251">
        <ele>89</ele>
        <time>2020-06-28T09:46:39Z</time>
      </trkpt>
      <trkpt lat="49.07456" lon="1.90239">
        <ele>89</ele>
        <time>2020-06-28T09:46:47Z</time>
      </trkpt>
      <trkpt lat="49.07462" lon="1.90225">
        <ele>89</ele>
        <time>2020-06-28T09:46:55Z</time>
      </trkpt>
      <trkpt lat="49.07468" lon="1.90212">
        <ele>89</ele>
        <time>2020-06-28T09:47:03Z</time>
      </trkpt>
      <trkpt lat="49.07473" lon="1.90197">
        <ele>89</ele>
        <time>2020-06-28T09:47:11Z</time>
      </trkpt>
      <trkpt lat="49.07479" lon="1.90183">
        <ele>89</ele>
        <time>2020-06-28T09:47:19Z</time>
      </trkpt>
      <trkpt lat="49.07486" lon="1.90172">
        <ele>90</ele>
        <time>2020-06-28T09:47:27Z</time>
      </trkpt>
      <trkpt lat="49.07491" lon="1.90158">
        <ele>90</ele>
        <time>2020-06-28T09:47:35Z</time>
      </trkpt>
      <trkpt lat="49.07496" lon="1.90145">
        <ele>90</ele>
        <time>2020-06-28T09:47:43Z</time>
      </trkpt>
      <trkpt lat="49.07502" lon="1.90133">
        <ele>90</ele>
        <time>2020-06-28T09:47:51Z</time>
      </trkpt>
      <trkpt lat="49.07508" lon="1.90121">
        <ele>90</ele>
        <time>2020-06-28T09:47:59Z</time>
      </trkpt>
      <trkpt lat="49.07514" lon="1.90108">
        <ele>90</ele>
        <time>2020-06-28T09:48:07Z</time>
      </trkpt>
      <trkpt lat="49.0752" lon="1.90094">
        <ele>90</ele>
        <time>2020-06-28T09:48:15Z</time>
      </trkpt>
      <trkpt lat="49.07526" lon="1.90083">
        <ele>90</ele>
        <time>2020-06-28T09:48:23Z</time>
      </trkpt>
      <trkpt lat="49.07531" lon="1.9007">
        <ele>91</ele>
        <time>2020-06-28T09:48:31Z</time>
      </trkpt>
      <trkpt lat="49.07538" lon="1.90058">
        <ele>91</ele>
        <time>2020-06-28T09:48:39Z</time>
      </trkpt>
      <trkpt lat="49.07544" lon="1.90045">
        <ele>91</ele>
        <time>2020-06-28T09:48:47Z</time>
      </trkpt>
      <trkpt lat="49.07548" lon="1.90031">
        <ele>91</ele>
        <time>2020-06-28T09:48:55Z</time>
      </trkpt>
      <trkpt lat="49.07554" lon="1.90017">
        <ele>91</ele>
        <time>2020-06-28T09:49:03Z</time>
      </trkpt>
      <trkpt lat="49.0756" lon="1.90004">
        <ele>91</ele>
        <time>2020-06-28T09:49:11Z</time>
      </trkpt>
      <trkpt lat="49.07567" lon="1.89995">
        <ele>91</ele>
        <time>2020-06-28T09:49:19Z</time>
      </trkpt>
      <trkpt lat="49.07577" lon="1.89995">
        <ele>91</ele>
        <time>2020-06-28T09:49:27Z</time>
      </trkpt>
      <trkpt lat="49.07589" lon="1.89999">
        <ele>91</ele>
        <time>2020-06-28T09:49:35Z</time>
      </trkpt>
      <trkpt lat="49.07601" lon="1.90004">
        <ele>91</ele>
        <time>2020-06-28T09:49:43Z</time>
      </trkpt>
      <trkpt lat="49.07612" lon="1.90005">
        <ele>91</ele>
        <time>2020-06-28T09:49:51Z</time>
      </trkpt>
      <trkpt lat="49.07623" lon="1.90007">
        <ele>91</ele>
        <time>2020-06-28T09:49:59Z</time>
      </trkpt>
      <trkpt lat="49.07634" lon="1.90008">
        <ele>90</ele>
        <time>2020-06-28T09:50:07Z</time>
      </trkpt>
      <trkpt lat="49.07644" lon="1.90011">
        <ele>90</ele>
        <time>2020-06-28T09:50:15Z</time>
      </trkpt>
      <trkpt lat="49.07656" lon="1.90014">
        <ele>90</ele>
        <time>2020-06-28T09:50:23Z</time>
      </trkpt>
      <trkpt lat="49.07666" lon="1.90014">
        <ele>90</ele>
        <time>2020-06-28T09:50:29Z</time>
      </trkpt>
      <trkpt lat="49.07677" lon="1.90016">
        <ele>89</ele>
        <time>2020-06-28T09:50:37Z</time>
      </trkpt>
      <trkpt lat="49.07688" lon="1.90019">
        <ele>89</ele>
        <time>2020-06-28T09:50:45Z</time>
      </trkpt>
      <trkpt lat="49.07698" lon="1.9002">
        <ele>89</ele>
        <time>2020-06-28T09:50:53Z</time>
      </trkpt>
      <trkpt lat="49.0771" lon="1.90022">
        <ele>88</ele>
        <time>2020-06-28T09:51:01Z</time>
      </trkpt>
      <trkpt lat="49.0772" lon="1.90024">
        <ele>88</ele>
        <time>2020-06-28T09:51:09Z</time>
      </trkpt>
      <trkpt lat="49.07731" lon="1.90028">
        <ele>88</ele>
        <time>2020-06-28T09:51:17Z</time>
      </trkpt>
      <trkpt lat="49.0774" lon="1.90028">
        <ele>88</ele>
        <time>2020-06-28T09:51:25Z</time>
      </trkpt>
      <trkpt lat="49.07751" lon="1.9003">
        <ele>86</ele>
        <time>2020-06-28T09:51:33Z</time>
      </trkpt>
      <trkpt lat="49.07762" lon="1.90031">
        <ele>86</ele>
        <time>2020-06-28T09:51:41Z</time>
      </trkpt>
      <trkpt lat="49.07773" lon="1.90033">
        <ele>86</ele>
        <time>2020-06-28T09:51:49Z</time>
      </trkpt>
      <trkpt lat="49.07784" lon="1.90034">
        <ele>86</ele>
        <time>2020-06-28T09:51:57Z</time>
      </trkpt>
      <trkpt lat="49.07794" lon="1.90036">
        <ele>86</ele>
        <time>2020-06-28T09:52:06Z</time>
      </trkpt>
      <trkpt lat="49.07804" lon="1.90037">
        <ele>86</ele>
        <time>2020-06-28T09:52:13Z</time>
      </trkpt>
      <trkpt lat="49.07814" lon="1.90037">
        <ele>85</ele>
        <time>2020-06-28T09:52:21Z</time>
      </trkpt>
      <trkpt lat="49.07825" lon="1.90039">
        <ele>85</ele>
        <time>2020-06-28T09:52:29Z</time>
      </trkpt>
      <trkpt lat="49.07835" lon="1.90041">
        <ele>85</ele>
        <time>2020-06-28T09:52:37Z</time>
      </trkpt>
      <trkpt lat="49.07846" lon="1.90042">
        <ele>84</ele>
        <time>2020-06-28T09:52:45Z</time>
      </trkpt>
      <trkpt lat="49.07856" lon="1.90045">
        <ele>84</ele>
        <time>2020-06-28T09:52:52Z</time>
      </trkpt>
      <trkpt lat="49.07867" lon="1.90046">
        <ele>84</ele>
        <time>2020-06-28T09:53:00Z</time>
      </trkpt>
      <trkpt lat="49.07877" lon="1.90045">
        <ele>84</ele>
        <time>2020-06-28T09:53:08Z</time>
      </trkpt>
      <trkpt lat="49.07886" lon="1.90043">
        <ele>84</ele>
        <time>2020-06-28T09:53:16Z</time>
      </trkpt>
      <trkpt lat="49.07897" lon="1.90042">
        <ele>84</ele>
        <time>2020-06-28T09:53:24Z</time>
      </trkpt>
      <trkpt lat="49.07908" lon="1.90042">
        <ele>84</ele>
        <time>2020-06-28T09:53:31Z</time>
      </trkpt>
      <trkpt lat="49.07918" lon="1.9004">
        <ele>85</ele>
        <time>2020-06-28T09:53:39Z</time>
      </trkpt>
      <trkpt lat="49.0793" lon="1.90038">
        <ele>85</ele>
        <time>2020-06-28T09:53:47Z</time>
      </trkpt>
      <trkpt lat="49.0794" lon="1.90035">
        <ele>85</ele>
        <time>2020-06-28T09:53:55Z</time>
      </trkpt>
      <trkpt lat="49.07951" lon="1.90032">
        <ele>85</ele>
        <time>2020-06-28T09:54:03Z</time>
      </trkpt>
      <trkpt lat="49.07961" lon="1.90032">
        <ele>85</ele>
        <time>2020-06-28T09:54:11Z</time>
      </trkpt>
      <trkpt lat="49.07973" lon="1.90031">
        <ele>85</ele>
        <time>2020-06-28T09:54:19Z</time>
      </trkpt>
      <trkpt lat="49.07984" lon="1.90031">
        <ele>85</ele>
        <time>2020-06-28T09:54:27Z</time>
      </trkpt>
      <trkpt lat="49.07995" lon="1.90029">
        <ele>86</ele>
        <time>2020-06-28T09:54:35Z</time>
      </trkpt>
      <trkpt lat="49.08005" lon="1.90025">
        <ele>86</ele>
        <time>2020-06-28T09:54:43Z</time>
      </trkpt>
      <trkpt lat="49.08016" lon="1.90024">
        <ele>86</ele>
        <time>2020-06-28T09:54:51Z</time>
      </trkpt>
      <trkpt lat="49.08027" lon="1.90021">
        <ele>86</ele>
        <time>2020-06-28T09:54:59Z</time>
      </trkpt>
      <trkpt lat="49.08037" lon="1.90019">
        <ele>86</ele>
        <time>2020-06-28T09:55:07Z</time>
      </trkpt>
      <trkpt lat="49.08049" lon="1.90019">
        <ele>86</ele>
        <time>2020-06-28T09:55:15Z</time>
      </trkpt>
      <trkpt lat="49.08059" lon="1.90019">
        <ele>86</ele>
        <time>2020-06-28T09:55:23Z</time>
      </trkpt>
      <trkpt lat="49.0807" lon="1.90019">
        <ele>86</ele>
        <time>2020-06-28T09:55:31Z</time>
      </trkpt>
      <trkpt lat="49.08081" lon="1.90018">
        <ele>86</ele>
        <time>2020-06-28T09:55:39Z</time>
      </trkpt>
      <trkpt lat="49.08092" lon="1.90017">
        <ele>85</ele>
        <time>2020-06-28T09:55:47Z</time>
      </trkpt>
      <trkpt lat="49.08103" lon="1.90017">
        <ele>85</ele>
        <time>2020-06-28T09:55:55Z</time>
      </trkpt>
      <trkpt lat="49.08114" lon="1.90017">
        <ele>85</ele>
        <time>2020-06-28T09:56:03Z</time>
      </trkpt>
      <trkpt lat="49.08125" lon="1.90015">
        <ele>84</ele>
        <time>2020-06-28T09:56:11Z</time>
      </trkpt>
      <trkpt lat="49.08135" lon="1.90009">
        <ele>84</ele>
        <time>2020-06-28T09:56:19Z</time>
      </trkpt>
      <trkpt lat="49.08146" lon="1.90004">
        <ele>84</ele>
        <time>2020-06-28T09:56:27Z</time>
      </trkpt>
      <trkpt lat="49.08155" lon="1.89999">
        <ele>84</ele>
        <time>2020-06-28T09:56:35Z</time>
      </trkpt>
      <trkpt lat="49.08165" lon="1.89991">
        <ele>84</ele>
        <time>2020-06-28T09:56:43Z</time>
      </trkpt>
      <trkpt lat="49.08175" lon="1.89986">
        <ele>83</ele>
        <time>2020-06-28T09:56:51Z</time>
      </trkpt>
      <trkpt lat="49.08185" lon="1.89979">
        <ele>82</ele>
        <time>2020-06-28T09:56:59Z</time>
      </trkpt>
      <trkpt lat="49.08195" lon="1.89974">
        <ele>82</ele>
        <time>2020-06-28T09:57:07Z</time>
      </trkpt>
      <trkpt lat="49.08204" lon="1.89965">
        <ele>82</ele>
        <time>2020-06-28T09:57:14Z</time>
      </trkpt>
      <trkpt lat="49.08213" lon="1.89957">
        <ele>82</ele>
        <time>2020-06-28T09:57:22Z</time>
      </trkpt>
      <trkpt lat="49.08223" lon="1.89948">
        <ele>81</ele>
        <time>2020-06-28T09:57:30Z</time>
      </trkpt>
      <trkpt lat="49.08233" lon="1.89941">
        <ele>81</ele>
        <time>2020-06-28T09:57:38Z</time>
      </trkpt>
      <trkpt lat="49.08243" lon="1.89934">
        <ele>81</ele>
        <time>2020-06-28T09:57:46Z</time>
      </trkpt>
      <trkpt lat="49.08252" lon="1.89927">
        <ele>80</ele>
        <time>2020-06-28T09:57:54Z</time>
      </trkpt>
      <trkpt lat="49.08262" lon="1.89919">
        <ele>80</ele>
        <time>2020-06-28T09:58:02Z</time>
      </trkpt>
      <trkpt lat="49.08271" lon="1.89911">
        <ele>80</ele>
        <time>2020-06-28T09:58:10Z</time>
      </trkpt>
      <trkpt lat="49.08281" lon="1.89901">
        <ele>80</ele>
        <time>2020-06-28T09:58:18Z</time>
      </trkpt>
      <trkpt lat="49.0829" lon="1.89893">
        <ele>79</ele>
        <time>2020-06-28T09:58:26Z</time>
      </trkpt>
      <trkpt lat="49.083" lon="1.89885">
        <ele>79</ele>
        <time>2020-06-28T09:58:34Z</time>
      </trkpt>
      <trkpt lat="49.08309" lon="1.89875">
        <ele>79</ele>
        <time>2020-06-28T09:58:42Z</time>
      </trkpt>
      <trkpt lat="49.08318" lon="1.89865">
        <ele>79</ele>
        <time>2020-06-28T09:58:50Z</time>
      </trkpt>
      <trkpt lat="49.08326" lon="1.89855">
        <ele>78</ele>
        <time>2020-06-28T09:58:58Z</time>
      </trkpt>
      <trkpt lat="49.08335" lon="1.89845">
        <ele>76</ele>
        <time>2020-06-28T09:59:07Z</time>
      </trkpt>
      <trkpt lat="49.08343" lon="1.89833">
        <ele>77</ele>
        <time>2020-06-28T09:59:15Z</time>
      </trkpt>
      <trkpt lat="49.0835" lon="1.89819">
        <ele>77</ele>
        <time>2020-06-28T09:59:23Z</time>
      </trkpt>
      <trkpt lat="49.08356" lon="1.89804">
        <ele>77</ele>
        <time>2020-06-28T09:59:31Z</time>
      </trkpt>
      <trkpt lat="49.08361" lon="1.89791">
        <ele>77</ele>
        <time>2020-06-28T09:59:39Z</time>
      </trkpt>
      <trkpt lat="49.08367" lon="1.89779">
        <ele>77</ele>
        <time>2020-06-28T09:59:47Z</time>
      </trkpt>
      <trkpt lat="49.08372" lon="1.89766">
        <ele>77</ele>
        <time>2020-06-28T10:00:09Z</time>
      </trkpt>
      <trkpt lat="49.08379" lon="1.89757">
        <ele>77</ele>
        <time>2020-06-28T10:00:24Z</time>
      </trkpt>
      <trkpt lat="49.08386" lon="1.89745">
        <ele>79</ele>
        <time>2020-06-28T10:00:32Z</time>
      </trkpt>
      <trkpt lat="49.08396" lon="1.8974">
        <ele>78</ele>
        <time>2020-06-28T10:00:43Z</time>
      </trkpt>
      <trkpt lat="49.08406" lon="1.89736">
        <ele>78</ele>
        <time>2020-06-28T10:00:51Z</time>
      </trkpt>
      <trkpt lat="49.08412" lon="1.89726">
        <ele>79</ele>
        <time>2020-06-28T10:03:29Z</time>
      </trkpt>
      <trkpt lat="49.08418" lon="1.89714">
        <ele>78</ele>
        <time>2020-06-28T10:03:38Z</time>
      </trkpt>
      <trkpt lat="49.08427" lon="1.89706">
        <ele>78</ele>
        <time>2020-06-28T10:03:46Z</time>
      </trkpt>
      <trkpt lat="49.08434" lon="1.89695">
        <ele>78</ele>
        <time>2020-06-28T10:03:53Z</time>
      </trkpt>
      <trkpt lat="49.08437" lon="1.8968">
        <ele>79</ele>
        <time>2020-06-28T10:04:01Z</time>
      </trkpt>
      <trkpt lat="49.08441" lon="1.89663">
        <ele>80</ele>
        <time>2020-06-28T10:04:09Z</time>
      </trkpt>
      <trkpt lat="49.08446" lon="1.89649">
        <ele>80</ele>
        <time>2020-06-28T10:04:17Z</time>
      </trkpt>
      <trkpt lat="49.08452" lon="1.89635">
        <ele>81</ele>
        <time>2020-06-28T10:04:25Z</time>
      </trkpt>
      <trkpt lat="49.08455" lon="1.8962">
        <ele>81</ele>
        <time>2020-06-28T10:04:33Z</time>
      </trkpt>
      <trkpt lat="49.08459" lon="1.89605">
        <ele>81</ele>
        <time>2020-06-28T10:04:42Z</time>
      </trkpt>
      <trkpt lat="49.08465" lon="1.89593">
        <ele>81</ele>
        <time>2020-06-28T10:04:50Z</time>
      </trkpt>
      <trkpt lat="49.08468" lon="1.89578">
        <ele>83</ele>
        <time>2020-06-28T10:04:57Z</time>
      </trkpt>
      <trkpt lat="49.08473" lon="1.89564">
        <ele>84</ele>
        <time>2020-06-28T10:05:06Z</time>
      </trkpt>
      <trkpt lat="49.08477" lon="1.89549">
        <ele>84</ele>
        <time>2020-06-28T10:05:14Z</time>
      </trkpt>
      <trkpt lat="49.08482" lon="1.89535">
        <ele>84</ele>
        <time>2020-06-28T10:05:22Z</time>
      </trkpt>
      <trkpt lat="49.08492" lon="1.89531">
        <ele>84</ele>
        <time>2020-06-28T10:05:32Z</time>
      </trkpt>
      <trkpt lat="49.08502" lon="1.89537">
        <ele>83</ele>
        <time>2020-06-28T10:05:37Z</time>
      </trkpt>
      <trkpt lat="49.08511" lon="1.89547">
        <ele>83</ele>
        <time>2020-06-28T10:05:43Z</time>
      </trkpt>
      <trkpt lat="49.08521" lon="1.89553">
        <ele>82</ele>
        <time>2020-06-28T10:05:55Z</time>
      </trkpt>
      <trkpt lat="49.0853" lon="1.89547">
        <ele>82</ele>
        <time>2020-06-28T10:06:05Z</time>
      </trkpt>
      <trkpt lat="49.08542" lon="1.89552">
        <ele>82</ele>
        <time>2020-06-28T10:06:30Z</time>
      </trkpt>
      <trkpt lat="49.08537" lon="1.89536">
        <ele>82</ele>
        <time>2020-06-28T10:06:46Z</time>
      </trkpt>
      <trkpt lat="49.08537" lon="1.8952">
        <ele>82</ele>
        <time>2020-06-28T10:06:54Z</time>
      </trkpt>
      <trkpt lat="49.08541" lon="1.89507">
        <ele>82</ele>
        <time>2020-06-28T10:07:04Z</time>
      </trkpt>
      <trkpt lat="49.08546" lon="1.89495">
        <ele>83</ele>
        <time>2020-06-28T10:07:12Z</time>
      </trkpt>
      <trkpt lat="49.08553" lon="1.89482">
        <ele>83</ele>
        <time>2020-06-28T10:07:22Z</time>
      </trkpt>
      <trkpt lat="49.08559" lon="1.89471">
        <ele>83</ele>
        <time>2020-06-28T10:07:30Z</time>
      </trkpt>
      <trkpt lat="49.08567" lon="1.89466">
        <ele>83</ele>
        <time>2020-06-28T10:07:37Z</time>
      </trkpt>
      <trkpt lat="49.08575" lon="1.89457">
        <ele>83</ele>
        <time>2020-06-28T10:07:46Z</time>
      </trkpt>
      <trkpt lat="49.08583" lon="1.89449">
        <ele>83</ele>
        <time>2020-06-28T10:07:56Z</time>
      </trkpt>
      <trkpt lat="49.08592" lon="1.89443">
        <ele>82</ele>
        <time>2020-06-28T10:08:19Z</time>
      </trkpt>
      <trkpt lat="49.0859" lon="1.89458">
        <ele>82</ele>
        <time>2020-06-28T10:42:29Z</time>
      </trkpt>
      <trkpt lat="49.08595" lon="1.89446">
        <ele>82</ele>
        <time>2020-06-28T10:47:37Z</time>
      </trkpt>
      <trkpt lat="49.08588" lon="1.89457">
        <ele>82</ele>
        <time>2020-06-28T11:59:47Z</time>
      </trkpt>
      <trkpt lat="49.08582" lon="1.89422">
        <ele>83</ele>
        <time>2020-06-28T12:00:31Z</time>
      </trkpt>
      <trkpt lat="49.08586" lon="1.89448">
        <ele>82</ele>
        <time>2020-06-28T12:00:32Z</time>
      </trkpt>
      <trkpt lat="49.08598" lon="1.89459">
        <ele>82</ele>
        <time>2020-06-28T12:10:39Z</time>
      </trkpt>
      <trkpt lat="49.08601" lon="1.89474">
        <ele>82</ele>
        <time>2020-06-28T12:10:46Z</time>
      </trkpt>
      <trkpt lat="49.08599" lon="1.89487">
        <ele>81</ele>
        <time>2020-06-28T12:10:56Z</time>
      </trkpt>
      <trkpt lat="49.08605" lon="1.89502">
        <ele>80</ele>
        <time>2020-06-28T12:11:06Z</time>
      </trkpt>
      <trkpt lat="49.08608" lon="1.89516">
        <ele>80</ele>
        <time>2020-06-28T12:11:23Z</time>
      </trkpt>
      <trkpt lat="49.08614" lon="1.89527">
        <ele>80</ele>
        <time>2020-06-28T12:11:34Z</time>
      </trkpt>
      <trkpt lat="49.08621" lon="1.89538">
        <ele>80</ele>
        <time>2020-06-28T12:11:49Z</time>
      </trkpt>
      <trkpt lat="49.08631" lon="1.89545">
        <ele>80</ele>
        <time>2020-06-28T12:12:02Z</time>
      </trkpt>
      <trkpt lat="49.08626" lon="1.89559">
        <ele>80</ele>
        <time>2020-06-28T12:12:27Z</time>
      </trkpt>
      <trkpt lat="49.08618" lon="1.89567">
        <ele>79</ele>
        <time>2020-06-28T12:12:36Z</time>
      </trkpt>
      <trkpt lat="49.0863" lon="1.8957">
        <ele>79</ele>
        <time>2020-06-28T12:12:51Z</time>
      </trkpt>
      <trkpt lat="49.08637" lon="1.8958">
        <ele>79</ele>
        <time>2020-06-28T12:13:01Z</time>
      </trkpt>
      <trkpt lat="49.08647" lon="1.8958">
        <ele>79</ele>
        <time>2020-06-28T12:13:10Z</time>
      </trkpt>
      <trkpt lat="49.08656" lon="1.89579">
        <ele>79</ele>
        <time>2020-06-28T12:13:22Z</time>
      </trkpt>
      <trkpt lat="49.08664" lon="1.8957">
        <ele>79</ele>
        <time>2020-06-28T12:13:36Z</time>
      </trkpt>
      <trkpt lat="49.08673" lon="1.89562">
        <ele>80</ele>
        <time>2020-06-28T12:13:52Z</time>
      </trkpt>
      <trkpt lat="49.0867" lon="1.89576">
        <ele>80</ele>
        <time>2020-06-28T12:14:03Z</time>
      </trkpt>
      <trkpt lat="49.08667" lon="1.89591">
        <ele>79</ele>
        <time>2020-06-28T12:14:13Z</time>
      </trkpt>
      <trkpt lat="49.08662" lon="1.89607">
        <ele>78</ele>
        <time>2020-06-28T12:14:37Z</time>
      </trkpt>
      <trkpt lat="49.08663" lon="1.89621">
        <ele>78</ele>
        <time>2020-06-28T12:14:46Z</time>
      </trkpt>
      <trkpt lat="49.08665" lon="1.89636">
        <ele>78</ele>
        <time>2020-06-28T12:14:55Z</time>
      </trkpt>
      <trkpt lat="49.08666" lon="1.89653">
        <ele>78</ele>
        <time>2020-06-28T12:15:12Z</time>
      </trkpt>
      <trkpt lat="49.08662" lon="1.89667">
        <ele>78</ele>
        <time>2020-06-28T12:15:21Z</time>
      </trkpt>
      <trkpt lat="49.08663" lon="1.89682">
        <ele>78</ele>
        <time>2020-06-28T12:15:29Z</time>
      </trkpt>
      <trkpt lat="49.08665" lon="1.89697">
        <ele>78</ele>
        <time>2020-06-28T12:15:37Z</time>
      </trkpt>
      <trkpt lat="49.08664" lon="1.89713">
        <ele>78</ele>
        <time>2020-06-28T12:15:46Z</time>
      </trkpt>
      <trkpt lat="49.08672" lon="1.89723">
        <ele>79</ele>
        <time>2020-06-28T12:15:59Z</time>
      </trkpt>
      <trkpt lat="49.08678" lon="1.89735">
        <ele>79</ele>
        <time>2020-06-28T12:16:08Z</time>
      </trkpt>
      <trkpt lat="49.0868" lon="1.8975">
        <ele>78</ele>
        <time>2020-06-28T12:16:16Z</time>
      </trkpt>
      <trkpt lat="49.08688" lon="1.89765">
        <ele>78</ele>
        <time>2020-06-28T12:16:24Z</time>
      </trkpt>
      <trkpt lat="49.08697" lon="1.89772">
        <ele>78</ele>
        <time>2020-06-28T12:16:34Z</time>
      </trkpt>
      <trkpt lat="49.08706" lon="1.89781">
        <ele>78</ele>
        <time>2020-06-28T12:16:42Z</time>
      </trkpt>
      <trkpt lat="49.08716" lon="1.89787">
        <ele>78</ele>
        <time>2020-06-28T12:16:47Z</time>
      </trkpt>
      <trkpt lat="49.08724" lon="1.89796">
        <ele>78</ele>
        <time>2020-06-28T12:16:59Z</time>
      </trkpt>
      <trkpt lat="49.08729" lon="1.8981">
        <ele>78</ele>
        <time>2020-06-28T12:17:11Z</time>
      </trkpt>
      <trkpt lat="49.08736" lon="1.8982">
        <ele>77</ele>
        <time>2020-06-28T12:17:20Z</time>
      </trkpt>
      <trkpt lat="49.08744" lon="1.89828">
        <ele>77</ele>
        <time>2020-06-28T12:17:28Z</time>
      </trkpt>
      <trkpt lat="49.0875" lon="1.89841">
        <ele>78</ele>
        <time>2020-06-28T12:17:39Z</time>
      </trkpt>
      <trkpt lat="49.08756" lon="1.89857">
        <ele>79</ele>
        <time>2020-06-28T12:17:46Z</time>
      </trkpt>
      <trkpt lat="49.08762" lon="1.89868">
        <ele>80</ele>
        <time>2020-06-28T12:17:52Z</time>
      </trkpt>
      <trkpt lat="49.08769" lon="1.89877">
        <ele>81</ele>
        <time>2020-06-28T12:18:01Z</time>
      </trkpt>
      <trkpt lat="49.08779" lon="1.89878">
        <ele>81</ele>
        <time>2020-06-28T12:18:15Z</time>
      </trkpt>
      <trkpt lat="49.08792" lon="1.89865">
        <ele>81</ele>
        <time>2020-06-28T12:18:29Z</time>
      </trkpt>
      <trkpt lat="49.08799" lon="1.89855">
        <ele>81</ele>
        <time>2020-06-28T12:18:41Z</time>
      </trkpt>
      <trkpt lat="49.08809" lon="1.89853">
        <ele>81</ele>
        <time>2020-06-28T12:18:47Z</time>
      </trkpt>
      <trkpt lat="49.08819" lon="1.89852">
        <ele>81</ele>
        <time>2020-06-28T12:18:50Z</time>
      </trkpt>
      <trkpt lat="49.08829" lon="1.89847">
        <ele>81</ele>
        <time>2020-06-28T12:18:58Z</time>
      </trkpt>
      <trkpt lat="49.08838" lon="1.89845">
        <ele>83</ele>
        <time>2020-06-28T12:19:05Z</time>
      </trkpt>
      <trkpt lat="49.08849" lon="1.89844">
        <ele>83</ele>
        <time>2020-06-28T12:19:17Z</time>
      </trkpt>
      <trkpt lat="49.08858" lon="1.89841">
        <ele>84</ele>
        <time>2020-06-28T12:19:27Z</time>
      </trkpt>
      <trkpt lat="49.08867" lon="1.89836">
        <ele>84</ele>
        <time>2020-06-28T12:19:34Z</time>
      </trkpt>
      <trkpt lat="49.08877" lon="1.89835">
        <ele>85</ele>
        <time>2020-06-28T12:19:42Z</time>
      </trkpt>
      <trkpt lat="49.08884" lon="1.89845">
        <ele>85</ele>
        <time>2020-06-28T12:19:49Z</time>
      </trkpt>
      <trkpt lat="49.08892" lon="1.89856">
        <ele>85</ele>
        <time>2020-06-28T12:19:57Z</time>
      </trkpt>
      <trkpt lat="49.08894" lon="1.8987">
        <ele>86</ele>
        <time>2020-06-28T12:20:04Z</time>
      </trkpt>
      <trkpt lat="49.08893" lon="1.89884">
        <ele>87</ele>
        <time>2020-06-28T12:20:09Z</time>
      </trkpt>
      <trkpt lat="49.08893" lon="1.89901">
        <ele>87</ele>
        <time>2020-06-28T12:20:15Z</time>
      </trkpt>
      <trkpt lat="49.08884" lon="1.89905">
        <ele>87</ele>
        <time>2020-06-28T12:20:26Z</time>
      </trkpt>
      <trkpt lat="49.08877" lon="1.89915">
        <ele>87</ele>
        <time>2020-06-28T12:20:43Z</time>
      </trkpt>
      <trkpt lat="49.08872" lon="1.89927">
        <ele>91</ele>
        <time>2020-06-28T12:20:52Z</time>
      </trkpt>
      <trkpt lat="49.08866" lon="1.89939">
        <ele>92</ele>
        <time>2020-06-28T12:21:03Z</time>
      </trkpt>
      <trkpt lat="49.08862" lon="1.89954">
        <ele>92</ele>
        <time>2020-06-28T12:21:09Z</time>
      </trkpt>
      <trkpt lat="49.0886" lon="1.89968">
        <ele>93</ele>
        <time>2020-06-28T12:21:16Z</time>
      </trkpt>
      <trkpt lat="49.08854" lon="1.89983">
        <ele>94</ele>
        <time>2020-06-28T12:21:24Z</time>
      </trkpt>
      <trkpt lat="49.08847" lon="1.89995">
        <ele>94</ele>
        <time>2020-06-28T12:21:33Z</time>
      </trkpt>
      <trkpt lat="49.0884" lon="1.90005">
        <ele>96</ele>
        <time>2020-06-28T12:21:42Z</time>
      </trkpt>
      <trkpt lat="49.08833" lon="1.90016">
        <ele>95</ele>
        <time>2020-06-28T12:21:48Z</time>
      </trkpt>
      <trkpt lat="49.08828" lon="1.9003">
        <ele>95</ele>
        <time>2020-06-28T12:21:53Z</time>
      </trkpt>
      <trkpt lat="49.08825" lon="1.90047">
        <ele>95</ele>
        <time>2020-06-28T12:21:59Z</time>
      </trkpt>
      <trkpt lat="49.08825" lon="1.90066">
        <ele>97</ele>
        <time>2020-06-28T12:22:05Z</time>
      </trkpt>
      <trkpt lat="49.08826" lon="1.90081">
        <ele>98</ele>
        <time>2020-06-28T12:22:14Z</time>
      </trkpt>
      <trkpt lat="49.08827" lon="1.90097">
        <ele>99</ele>
        <time>2020-06-28T12:22:20Z</time>
      </trkpt>
      <trkpt lat="49.08827" lon="1.90114">
        <ele>99</ele>
        <time>2020-06-28T12:22:28Z</time>
      </trkpt>
      <trkpt lat="49.08824" lon="1.90129">
        <ele>99</ele>
        <time>2020-06-28T12:22:34Z</time>
      </trkpt>
      <trkpt lat="49.08819" lon="1.90141">
        <ele>100</ele>
        <time>2020-06-28T12:22:42Z</time>
      </trkpt>
      <trkpt lat="49.08816" lon="1.90155">
        <ele>100</ele>
        <time>2020-06-28T12:22:51Z</time>
      </trkpt>
      <trkpt lat="49.08817" lon="1.90171">
        <ele>102</ele>
        <time>2020-06-28T12:22:58Z</time>
      </trkpt>
      <trkpt lat="49.08821" lon="1.90187">
        <ele>102</ele>
        <time>2020-06-28T12:23:04Z</time>
      </trkpt>
      <trkpt lat="49.08824" lon="1.90202">
        <ele>102</ele>
        <time>2020-06-28T12:23:11Z</time>
      </trkpt>
      <trkpt lat="49.08828" lon="1.90214">
        <ele>102</ele>
        <time>2020-06-28T12:23:24Z</time>
      </trkpt>
      <trkpt lat="49.0883" lon="1.90228">
        <ele>103</ele>
        <time>2020-06-28T12:23:35Z</time>
      </trkpt>
      <trkpt lat="49.08832" lon="1.90244">
        <ele>106</ele>
        <time>2020-06-28T12:23:42Z</time>
      </trkpt>
      <trkpt lat="49.08836" lon="1.9026">
        <ele>109</ele>
        <time>2020-06-28T12:23:48Z</time>
      </trkpt>
      <trkpt lat="49.08841" lon="1.90273">
        <ele>111</ele>
        <time>2020-06-28T12:24:00Z</time>
      </trkpt>
      <trkpt lat="49.08844" lon="1.90287">
        <ele>112</ele>
        <time>2020-06-28T12:24:09Z</time>
      </trkpt>
      <trkpt lat="49.08846" lon="1.90302">
        <ele>112</ele>
        <time>2020-06-28T12:24:16Z</time>
      </trkpt>
      <trkpt lat="49.08848" lon="1.90316">
        <ele>112</ele>
        <time>2020-06-28T12:24:23Z</time>
      </trkpt>
      <trkpt lat="49.08853" lon="1.9033">
        <ele>112</ele>
        <time>2020-06-28T12:24:34Z</time>
      </trkpt>
      <trkpt lat="49.0886" lon="1.90343">
        <ele>113</ele>
        <time>2020-06-28T12:24:42Z</time>
      </trkpt>
      <trkpt lat="49.08862" lon="1.90358">
        <ele>113</ele>
        <time>2020-06-28T12:24:48Z</time>
      </trkpt>
      <trkpt lat="49.08864" lon="1.90372">
        <ele>114</ele>
        <time>2020-06-28T12:24:53Z</time>
      </trkpt>
      <trkpt lat="49.08864" lon="1.90387">
        <ele>114</ele>
        <time>2020-06-28T12:25:00Z</time>
      </trkpt>
      <trkpt lat="49.08864" lon="1.90403">
        <ele>113</ele>
        <time>2020-06-28T12:25:06Z</time>
      </trkpt>
      <trkpt lat="49.08862" lon="1.90419">
        <ele>113</ele>
        <time>2020-06-28T12:25:14Z</time>
      </trkpt>
      <trkpt lat="49.0886" lon="1.90435">
        <ele>114</ele>
        <time>2020-06-28T12:25:23Z</time>
      </trkpt>
      <trkpt lat="49.08859" lon="1.90451">
        <ele>114</ele>
        <time>2020-06-28T12:25:30Z</time>
      </trkpt>
      <trkpt lat="49.08858" lon="1.90467">
        <ele>114</ele>
        <time>2020-06-28T12:25:39Z</time>
      </trkpt>
      <trkpt lat="49.08858" lon="1.90484">
        <ele>114</ele>
        <time>2020-06-28T12:25:48Z</time>
      </trkpt>
      <trkpt lat="49.08855" lon="1.90498">
        <ele>113</ele>
        <time>2020-06-28T12:25:57Z</time>
      </trkpt>
      <trkpt lat="49.08851" lon="1.90511">
        <ele>114</ele>
        <time>2020-06-28T12:26:11Z</time>
      </trkpt>
      <trkpt lat="49.08845" lon="1.90529">
        <ele>115</ele>
        <time>2020-06-28T12:26:41Z</time>
      </trkpt>
      <trkpt lat="49.0885" lon="1.90514">
        <ele>115</ele>
        <time>2020-06-28T12:27:01Z</time>
      </trkpt>
      <trkpt lat="49.08851" lon="1.90528">
        <ele>115</ele>
        <time>2020-06-28T12:27:42Z</time>
      </trkpt>
      <trkpt lat="49.08848" lon="1.90544">
        <ele>116</ele>
        <time>2020-06-28T12:27:50Z</time>
      </trkpt>
      <trkpt lat="49.08846" lon="1.90558">
        <ele>116</ele>
        <time>2020-06-28T12:27:59Z</time>
      </trkpt>
      <trkpt lat="49.08843" lon="1.90574">
        <ele>115</ele>
        <time>2020-06-28T12:28:09Z</time>
      </trkpt>
      <trkpt lat="49.08839" lon="1.90591">
        <ele>116</ele>
        <time>2020-06-28T12:28:15Z</time>
      </trkpt>
      <trkpt lat="49.08836" lon="1.9061">
        <ele>118</ele>
        <time>2020-06-28T12:28:21Z</time>
      </trkpt>
      <trkpt lat="49.08833" lon="1.90625">
        <ele>118</ele>
        <time>2020-06-28T12:28:25Z</time>
      </trkpt>
      <trkpt lat="49.08831" lon="1.9064">
        <ele>113</ele>
        <time>2020-06-28T12:28:29Z</time>
      </trkpt>
      <trkpt lat="49.08827" lon="1.90656">
        <ele>115</ele>
        <time>2020-06-28T12:28:34Z</time>
      </trkpt>
      <trkpt lat="49.08824" lon="1.9067">
        <ele>117</ele>
        <time>2020-06-28T12:28:41Z</time>
      </trkpt>
      <trkpt lat="49.08822" lon="1.90685">
        <ele>116</ele>
        <time>2020-06-28T12:28:50Z</time>
      </trkpt>
      <trkpt lat="49.08818" lon="1.90698">
        <ele>116</ele>
        <time>2020-06-28T12:29:10Z</time>
      </trkpt>
      <trkpt lat="49.08814" lon="1.90713">
        <ele>116</ele>
        <time>2020-06-28T12:29:23Z</time>
      </trkpt>
      <trkpt lat="49.0881" lon="1.90725">
        <ele>117</ele>
        <time>2020-06-28T12:29:39Z</time>
      </trkpt>
      <trkpt lat="49.08805" lon="1.90737">
        <ele>117</ele>
        <time>2020-06-28T12:29:53Z</time>
      </trkpt>
      <trkpt lat="49.08801" lon="1.90751">
        <ele>119</ele>
        <time>2020-06-28T12:29:59Z</time>
      </trkpt>
      <trkpt lat="49.08798" lon="1.90767">
        <ele>118</ele>
        <time>2020-06-28T12:30:06Z</time>
      </trkpt>
      <trkpt lat="49.08796" lon="1.9078">
        <ele>118</ele>
        <time>2020-06-28T12:30:14Z</time>
      </trkpt>
      <trkpt lat="49.08792" lon="1.90796">
        <ele>118</ele>
        <time>2020-06-28T12:30:25Z</time>
      </trkpt>
      <trkpt lat="49.08789" lon="1.90811">
        <ele>118</ele>
        <time>2020-06-28T12:30:34Z</time>
      </trkpt>
      <trkpt lat="49.08787" lon="1.90827">
        <ele>118</ele>
        <time>2020-06-28T12:30:44Z</time>
      </trkpt>
      <trkpt lat="49.08782" lon="1.90839">
        <ele>119</ele>
        <time>2020-06-28T12:30:52Z</time>
      </trkpt>
      <trkpt lat="49.08777" lon="1.90852">
        <ele>119</ele>
        <time>2020-06-28T12:31:00Z</time>
      </trkpt>
      <trkpt lat="49.08773" lon="1.90865">
        <ele>119</ele>
        <time>2020-06-28T12:31:07Z</time>
      </trkpt>
      <trkpt lat="49.08769" lon="1.9088">
        <ele>119</ele>
        <time>2020-06-28T12:31:15Z</time>
      </trkpt>
      <trkpt lat="49.08768" lon="1.90894">
        <ele>119</ele>
        <time>2020-06-28T12:31:24Z</time>
      </trkpt>
      <trkpt lat="49.08762" lon="1.90907">
        <ele>118</ele>
        <time>2020-06-28T12:31:35Z</time>
      </trkpt>
      <trkpt lat="49.08759" lon="1.90921">
        <ele>118</ele>
        <time>2020-06-28T12:31:41Z</time>
      </trkpt>
      <trkpt lat="49.08757" lon="1.90936">
        <ele>119</ele>
        <time>2020-06-28T12:31:47Z</time>
      </trkpt>
      <trkpt lat="49.08755" lon="1.90952">
        <ele>119</ele>
        <time>2020-06-28T12:31:55Z</time>
      </trkpt>
      <trkpt lat="49.08752" lon="1.90966">
        <ele>119</ele>
        <time>2020-06-28T12:32:05Z</time>
      </trkpt>
      <trkpt lat="49.0875" lon="1.90982">
        <ele>119</ele>
        <time>2020-06-28T12:32:12Z</time>
      </trkpt>
      <trkpt lat="49.08748" lon="1.90998">
        <ele>116</ele>
        <time>2020-06-28T12:32:19Z</time>
      </trkpt>
      <trkpt lat="49.08746" lon="1.91014">
        <ele>115</ele>
        <time>2020-06-28T12:32:26Z</time>
      </trkpt>
      <trkpt lat="49.08743" lon="1.91028">
        <ele>114</ele>
        <time>2020-06-28T12:32:33Z</time>
      </trkpt>
      <trkpt lat="49.08739" lon="1.91045">
        <ele>114</ele>
        <time>2020-06-28T12:32:41Z</time>
      </trkpt>
      <trkpt lat="49.08736" lon="1.9106">
        <ele>115</ele>
        <time>2020-06-28T12:32:48Z</time>
      </trkpt>
      <trkpt lat="49.08734" lon="1.91075">
        <ele>116</ele>
        <time>2020-06-28T12:32:54Z</time>
      </trkpt>
      <trkpt lat="49.08726" lon="1.91091">
        <ele>117</ele>
        <time>2020-06-28T12:33:07Z</time>
      </trkpt>
      <trkpt lat="49.08719" lon="1.91103">
        <ele>116</ele>
        <time>2020-06-28T12:33:20Z</time>
      </trkpt>
      <trkpt lat="49.08711" lon="1.91115">
        <ele>116</ele>
        <time>2020-06-28T12:33:28Z</time>
      </trkpt>
      <trkpt lat="49.08704" lon="1.91127">
        <ele>116</ele>
        <time>2020-06-28T12:33:36Z</time>
      </trkpt>
      <trkpt lat="49.08698" lon="1.91138">
        <ele>116</ele>
        <time>2020-06-28T12:33:45Z</time>
      </trkpt>
      <trkpt lat="49.08693" lon="1.91152">
        <ele>116</ele>
        <time>2020-06-28T12:33:50Z</time>
      </trkpt>
      <trkpt lat="49.08687" lon="1.91164">
        <ele>116</ele>
        <time>2020-06-28T12:33:56Z</time>
      </trkpt>
      <trkpt lat="49.08681" lon="1.91176">
        <ele>117</ele>
        <time>2020-06-28T12:34:03Z</time>
      </trkpt>
      <trkpt lat="49.08674" lon="1.91189">
        <ele>118</ele>
        <time>2020-06-28T12:34:09Z</time>
      </trkpt>
      <trkpt lat="49.08671" lon="1.91202">
        <ele>118</ele>
        <time>2020-06-28T12:34:28Z</time>
      </trkpt>
      <trkpt lat="49.08665" lon="1.91213">
        <ele>113</ele>
        <time>2020-06-28T12:34:39Z</time>
      </trkpt>
      <trkpt lat="49.08657" lon="1.91224">
        <ele>114</ele>
        <time>2020-06-28T12:34:51Z</time>
      </trkpt>
      <trkpt lat="49.08652" lon="1.91237">
        <ele>114</ele>
        <time>2020-06-28T12:35:03Z</time>
      </trkpt>
      <trkpt lat="49.08646" lon="1.91251">
        <ele>115</ele>
        <time>2020-06-28T12:35:11Z</time>
      </trkpt>
      <trkpt lat="49.0864" lon="1.91265">
        <ele>115</ele>
        <time>2020-06-28T12:35:19Z</time>
      </trkpt>
      <trkpt lat="49.08632" lon="1.91278">
        <ele>114</ele>
        <time>2020-06-28T12:35:24Z</time>
      </trkpt>
      <trkpt lat="49.08629" lon="1.91295">
        <ele>114</ele>
        <time>2020-06-28T12:35:38Z</time>
      </trkpt>
      <trkpt lat="49.08626" lon="1.9131">
        <ele>114</ele>
        <time>2020-06-28T12:35:49Z</time>
      </trkpt>
      <trkpt lat="49.08621" lon="1.91322">
        <ele>113</ele>
        <time>2020-06-28T12:35:53Z</time>
      </trkpt>
      <trkpt lat="49.08616" lon="1.91334">
        <ele>113</ele>
        <time>2020-06-28T12:35:57Z</time>
      </trkpt>
      <trkpt lat="49.08611" lon="1.9135">
        <ele>113</ele>
        <time>2020-06-28T12:36:03Z</time>
      </trkpt>
      <trkpt lat="49.0861" lon="1.91364">
        <ele>113</ele>
        <time>2020-06-28T12:36:12Z</time>
      </trkpt>
      <trkpt lat="49.08611" lon="1.91379">
        <ele>113</ele>
        <time>2020-06-28T12:36:17Z</time>
      </trkpt>
      <trkpt lat="49.08607" lon="1.91393">
        <ele>113</ele>
        <time>2020-06-28T12:36:24Z</time>
      </trkpt>
      <trkpt lat="49.08603" lon="1.91409">
        <ele>112</ele>
        <time>2020-06-28T12:36:33Z</time>
      </trkpt>
      <trkpt lat="49.08602" lon="1.91423">
        <ele>113</ele>
        <time>2020-06-28T12:36:45Z</time>
      </trkpt>
      <trkpt lat="49.08596" lon="1.91436">
        <ele>113</ele>
        <time>2020-06-28T12:36:51Z</time>
      </trkpt>
      <trkpt lat="49.08592" lon="1.91449">
        <ele>113</ele>
        <time>2020-06-28T12:36:57Z</time>
      </trkpt>
      <trkpt lat="49.08586" lon="1.91462">
        <ele>113</ele>
        <time>2020-06-28T12:37:23Z</time>
      </trkpt>
      <trkpt lat="49.08586" lon="1.91483">
        <ele>113</ele>
        <time>2020-06-28T12:38:42Z</time>
      </trkpt>
      <trkpt lat="49.08586" lon="1.91499">
        <ele>111</ele>
        <time>2020-06-28T12:38:47Z</time>
      </trkpt>
      <trkpt lat="49.08579" lon="1.91514">
        <ele>109</ele>
        <time>2020-06-28T12:38:53Z</time>
      </trkpt>
      <trkpt lat="49.08581" lon="1.91529">
        <ele>108</ele>
        <time>2020-06-28T12:39:04Z</time>
      </trkpt>
      <trkpt lat="49.08579" lon="1.91546">
        <ele>108</ele>
        <time>2020-06-28T12:39:13Z</time>
      </trkpt>
      <trkpt lat="49.08572" lon="1.91558">
        <ele>109</ele>
        <time>2020-06-28T12:39:23Z</time>
      </trkpt>
      <trkpt lat="49.08567" lon="1.91571">
        <ele>109</ele>
        <time>2020-06-28T12:39:33Z</time>
      </trkpt>
      <trkpt lat="49.08561" lon="1.91582">
        <ele>109</ele>
        <time>2020-06-28T12:39:42Z</time>
      </trkpt>
      <trkpt lat="49.08555" lon="1.91594">
        <ele>111</ele>
        <time>2020-06-28T12:39:52Z</time>
      </trkpt>
      <trkpt lat="49.08554" lon="1.91609">
        <ele>111</ele>
        <time>2020-06-28T12:39:59Z</time>
      </trkpt>
      <trkpt lat="49.08548" lon="1.9162">
        <ele>111</ele>
        <time>2020-06-28T12:40:09Z</time>
      </trkpt>
      <trkpt lat="49.08542" lon="1.91632">
        <ele>111</ele>
        <time>2020-06-28T12:40:17Z</time>
      </trkpt>
      <trkpt lat="49.08535" lon="1.91643">
        <ele>111</ele>
        <time>2020-06-28T12:40:28Z</time>
      </trkpt>
      <trkpt lat="49.08527" lon="1.91652">
        <ele>110</ele>
        <time>2020-06-28T12:40:49Z</time>
      </trkpt>
      <trkpt lat="49.08522" lon="1.91666">
        <ele>110</ele>
        <time>2020-06-28T12:40:57Z</time>
      </trkpt>
      <trkpt lat="49.08516" lon="1.91681">
        <ele>113</ele>
        <time>2020-06-28T12:41:02Z</time>
      </trkpt>
      <trkpt lat="49.08509" lon="1.91693">
        <ele>114</ele>
        <time>2020-06-28T12:41:07Z</time>
      </trkpt>
      <trkpt lat="49.08503" lon="1.91705">
        <ele>115</ele>
        <time>2020-06-28T12:41:16Z</time>
      </trkpt>
      <trkpt lat="49.08501" lon="1.91719">
        <ele>116</ele>
        <time>2020-06-28T12:41:25Z</time>
      </trkpt>
      <trkpt lat="49.08497" lon="1.91736">
        <ele>114</ele>
        <time>2020-06-28T12:41:35Z</time>
      </trkpt>
      <trkpt lat="49.08491" lon="1.9175">
        <ele>115</ele>
        <time>2020-06-28T12:41:43Z</time>
      </trkpt>
      <trkpt lat="49.08487" lon="1.91763">
        <ele>116</ele>
        <time>2020-06-28T12:41:59Z</time>
      </trkpt>
      <trkpt lat="49.08482" lon="1.91775">
        <ele>116</ele>
        <time>2020-06-28T12:42:06Z</time>
      </trkpt>
      <trkpt lat="49.08476" lon="1.91786">
        <ele>116</ele>
        <time>2020-06-28T12:42:12Z</time>
      </trkpt>
      <trkpt lat="49.0847" lon="1.91798">
        <ele>116</ele>
        <time>2020-06-28T12:42:18Z</time>
      </trkpt>
      <trkpt lat="49.08462" lon="1.9181">
        <ele>116</ele>
        <time>2020-06-28T12:42:23Z</time>
      </trkpt>
      <trkpt lat="49.08454" lon="1.91821">
        <ele>115</ele>
        <time>2020-06-28T12:42:29Z</time>
      </trkpt>
      <trkpt lat="49.08446" lon="1.91831">
        <ele>115</ele>
        <time>2020-06-28T12:42:34Z</time>
      </trkpt>
      <trkpt lat="49.08438" lon="1.91844">
        <ele>117</ele>
        <time>2020-06-28T12:42:40Z</time>
      </trkpt>
      <trkpt lat="49.08435" lon="1.91862">
        <ele>118</ele>
        <time>2020-06-28T12:42:47Z</time>
      </trkpt>
      <trkpt lat="49.08433" lon="1.91877">
        <ele>118</ele>
        <time>2020-06-28T12:42:58Z</time>
      </trkpt>
      <trkpt lat="49.08429" lon="1.91892">
        <ele>119</ele>
        <time>2020-06-28T12:43:05Z</time>
      </trkpt>
      <trkpt lat="49.08426" lon="1.91908">
        <ele>119</ele>
        <time>2020-06-28T12:43:12Z</time>
      </trkpt>
      <trkpt lat="49.08421" lon="1.9192">
        <ele>119</ele>
        <time>2020-06-28T12:43:21Z</time>
      </trkpt>
      <trkpt lat="49.08416" lon="1.91932">
        <ele>117</ele>
        <time>2020-06-28T12:43:28Z</time>
      </trkpt>
      <trkpt lat="49.08409" lon="1.91946">
        <ele>117</ele>
        <time>2020-06-28T12:43:37Z</time>
      </trkpt>
      <trkpt lat="49.08399" lon="1.91948">
        <ele>116</ele>
        <time>2020-06-28T12:43:51Z</time>
      </trkpt>
      <trkpt lat="49.08395" lon="1.91934">
        <ele>116</ele>
        <time>2020-06-28T12:43:59Z</time>
      </trkpt>
      <trkpt lat="49.08387" lon="1.91943">
        <ele>116</ele>
        <time>2020-06-28T12:44:04Z</time>
      </trkpt>
      <trkpt lat="49.08382" lon="1.9193">
        <ele>115</ele>
        <time>2020-06-28T12:44:19Z</time>
      </trkpt>
      <trkpt lat="49.08373" lon="1.91927">
        <ele>114</ele>
        <time>2020-06-28T12:44:24Z</time>
      </trkpt>
      <trkpt lat="49.08364" lon="1.91918">
        <ele>113</ele>
        <time>2020-06-28T12:44:30Z</time>
      </trkpt>
      <trkpt lat="49.08354" lon="1.91904">
        <ele>110</ele>
        <time>2020-06-28T12:44:40Z</time>
      </trkpt>
      <trkpt lat="49.08345" lon="1.91897">
        <ele>109</ele>
        <time>2020-06-28T12:44:48Z</time>
      </trkpt>
      <trkpt lat="49.08338" lon="1.91886">
        <ele>109</ele>
        <time>2020-06-28T12:44:57Z</time>
      </trkpt>
      <trkpt lat="49.08332" lon="1.91875">
        <ele>103</ele>
        <time>2020-06-28T12:45:03Z</time>
      </trkpt>
      <trkpt lat="49.08327" lon="1.91862">
        <ele>103</ele>
        <time>2020-06-28T12:45:17Z</time>
      </trkpt>
      <trkpt lat="49.08324" lon="1.91847">
        <ele>102</ele>
        <time>2020-06-28T12:45:23Z</time>
      </trkpt>
      <trkpt lat="49.08319" lon="1.91835">
        <ele>102</ele>
        <time>2020-06-28T12:45:29Z</time>
      </trkpt>
      <trkpt lat="49.08312" lon="1.91824">
        <ele>99</ele>
        <time>2020-06-28T12:45:36Z</time>
      </trkpt>
      <trkpt lat="49.08303" lon="1.91817">
        <ele>98</ele>
        <time>2020-06-28T12:45:43Z</time>
      </trkpt>
      <trkpt lat="49.08296" lon="1.91808">
        <ele>97</ele>
        <time>2020-06-28T12:45:51Z</time>
      </trkpt>
      <trkpt lat="49.08287" lon="1.91794">
        <ele>97</ele>
        <time>2020-06-28T12:46:05Z</time>
      </trkpt>
      <trkpt lat="49.08278" lon="1.91799">
        <ele>96</ele>
        <time>2020-06-28T12:46:14Z</time>
      </trkpt>
      <trkpt lat="49.0827" lon="1.91808">
        <ele>96</ele>
        <time>2020-06-28T12:46:22Z</time>
      </trkpt>
      <trkpt lat="49.08257" lon="1.91814">
        <ele>96</ele>
        <time>2020-06-28T12:46:30Z</time>
      </trkpt>
      <trkpt lat="49.08248" lon="1.91822">
        <ele>94</ele>
        <time>2020-06-28T12:46:45Z</time>
      </trkpt>
      <trkpt lat="49.08244" lon="1.91836">
        <ele>96</ele>
        <time>2020-06-28T12:46:56Z</time>
      </trkpt>
      <trkpt lat="49.08236" lon="1.91843">
        <ele>97</ele>
        <time>2020-06-28T12:47:03Z</time>
      </trkpt>
      <trkpt lat="49.08229" lon="1.91855">
        <ele>97</ele>
        <time>2020-06-28T12:47:09Z</time>
      </trkpt>
      <trkpt lat="49.08222" lon="1.91865">
        <ele>98</ele>
        <time>2020-06-28T12:47:16Z</time>
      </trkpt>
      <trkpt lat="49.08213" lon="1.91881">
        <ele>98</ele>
        <time>2020-06-28T12:47:22Z</time>
      </trkpt>
      <trkpt lat="49.08205" lon="1.9189">
        <ele>98</ele>
        <time>2020-06-28T12:47:28Z</time>
      </trkpt>
      <trkpt lat="49.08195" lon="1.919">
        <ele>99</ele>
        <time>2020-06-28T12:47:34Z</time>
      </trkpt>
      <trkpt lat="49.0819" lon="1.91912">
        <ele>99</ele>
        <time>2020-06-28T12:47:43Z</time>
      </trkpt>
      <trkpt lat="49.08184" lon="1.91924">
        <ele>102</ele>
        <time>2020-06-28T12:47:51Z</time>
      </trkpt>
      <trkpt lat="49.08183" lon="1.91941">
        <ele>102</ele>
        <time>2020-06-28T12:47:58Z</time>
      </trkpt>
      <trkpt lat="49.08184" lon="1.91958">
        <ele>103</ele>
        <time>2020-06-28T12:48:05Z</time>
      </trkpt>
      <trkpt lat="49.08184" lon="1.91975">
        <ele>103</ele>
        <time>2020-06-28T12:48:12Z</time>
      </trkpt>
      <trkpt lat="49.08181" lon="1.91991">
        <ele>103</ele>
        <time>2020-06-28T12:48:18Z</time>
      </trkpt>
      <trkpt lat="49.08179" lon="1.92006">
        <ele>104</ele>
        <time>2020-06-28T12:48:26Z</time>
      </trkpt>
      <trkpt lat="49.08176" lon="1.9202">
        <ele>105</ele>
        <time>2020-06-28T12:48:36Z</time>
      </trkpt>
      <trkpt lat="49.08176" lon="1.92034">
        <ele>106</ele>
        <time>2020-06-28T12:48:42Z</time>
      </trkpt>
      <trkpt lat="49.08177" lon="1.9205">
        <ele>107</ele>
        <time>2020-06-28T12:48:50Z</time>
      </trkpt>
      <trkpt lat="49.08176" lon="1.92069">
        <ele>106</ele>
        <time>2020-06-28T12:48:56Z</time>
      </trkpt>
      <trkpt lat="49.08173" lon="1.92083">
        <ele>106</ele>
        <time>2020-06-28T12:49:09Z</time>
      </trkpt>
      <trkpt lat="49.08177" lon="1.921">
        <ele>109</ele>
        <time>2020-06-28T12:49:15Z</time>
      </trkpt>
      <trkpt lat="49.08171" lon="1.92116">
        <ele>110</ele>
        <time>2020-06-28T12:49:20Z</time>
      </trkpt>
      <trkpt lat="49.08168" lon="1.9213">
        <ele>111</ele>
        <time>2020-06-28T12:49:25Z</time>
      </trkpt>
      <trkpt lat="49.08168" lon="1.92145">
        <ele>111</ele>
        <time>2020-06-28T12:49:34Z</time>
      </trkpt>
      <trkpt lat="49.08167" lon="1.92166">
        <ele>111</ele>
        <time>2020-06-28T12:49:47Z</time>
      </trkpt>
      <trkpt lat="49.0817" lon="1.92181">
        <ele>112</ele>
        <time>2020-06-28T12:49:57Z</time>
      </trkpt>
      <trkpt lat="49.08173" lon="1.92197">
        <ele>113</ele>
        <time>2020-06-28T12:50:05Z</time>
      </trkpt>
      <trkpt lat="49.0817" lon="1.9221">
        <ele>113</ele>
        <time>2020-06-28T12:50:14Z</time>
      </trkpt>
      <trkpt lat="49.08167" lon="1.92224">
        <ele>112</ele>
        <time>2020-06-28T12:50:20Z</time>
      </trkpt>
      <trkpt lat="49.08177" lon="1.9222">
        <ele>113</ele>
        <time>2020-06-28T12:50:30Z</time>
      </trkpt>
      <trkpt lat="49.08171" lon="1.92233">
        <ele>112</ele>
        <time>2020-06-28T12:50:48Z</time>
      </trkpt>
      <trkpt lat="49.08159" lon="1.92236">
        <ele>107</ele>
        <time>2020-06-28T12:51:03Z</time>
      </trkpt>
      <trkpt lat="49.08149" lon="1.92251">
        <ele>107</ele>
        <time>2020-06-28T12:51:11Z</time>
      </trkpt>
      <trkpt lat="49.0814" lon="1.92248">
        <ele>106</ele>
        <time>2020-06-28T12:51:27Z</time>
      </trkpt>
      <trkpt lat="49.08131" lon="1.92257">
        <ele>105</ele>
        <time>2020-06-28T12:51:34Z</time>
      </trkpt>
      <trkpt lat="49.08123" lon="1.92265">
        <ele>104</ele>
        <time>2020-06-28T12:51:40Z</time>
      </trkpt>
      <trkpt lat="49.08115" lon="1.92275">
        <ele>104</ele>
        <time>2020-06-28T12:51:47Z</time>
      </trkpt>
      <trkpt lat="49.08106" lon="1.92284">
        <ele>103</ele>
        <time>2020-06-28T12:51:55Z</time>
      </trkpt>
      <trkpt lat="49.08097" lon="1.92293">
        <ele>103</ele>
        <time>2020-06-28T12:52:01Z</time>
      </trkpt>
      <trkpt lat="49.08086" lon="1.92297">
        <ele>103</ele>
        <time>2020-06-28T12:52:10Z</time>
      </trkpt>
      <trkpt lat="49.08076" lon="1.92293">
        <ele>96</ele>
        <time>2020-06-28T12:52:18Z</time>
      </trkpt>
      <trkpt lat="49.08065" lon="1.92288">
        <ele>96</ele>
        <time>2020-06-28T12:52:27Z</time>
      </trkpt>
      <trkpt lat="49.08054" lon="1.92284">
        <ele>95</ele>
        <time>2020-06-28T12:52:34Z</time>
      </trkpt>
      <trkpt lat="49.08045" lon="1.92278">
        <ele>95</ele>
        <time>2020-06-28T12:52:41Z</time>
      </trkpt>
      <trkpt lat="49.08035" lon="1.92274">
        <ele>94</ele>
        <time>2020-06-28T12:52:50Z</time>
      </trkpt>
      <trkpt lat="49.08023" lon="1.92276">
        <ele>93</ele>
        <time>2020-06-28T12:52:58Z</time>
      </trkpt>
      <trkpt lat="49.08013" lon="1.92276">
        <ele>92</ele>
        <time>2020-06-28T12:53:04Z</time>
      </trkpt>
      <trkpt lat="49.08003" lon="1.92279">
        <ele>92</ele>
        <time>2020-06-28T12:53:11Z</time>
      </trkpt>
      <trkpt lat="49.07993" lon="1.92278">
        <ele>86</ele>
        <time>2020-06-28T12:53:20Z</time>
      </trkpt>
      <trkpt lat="49.07983" lon="1.92278">
        <ele>86</ele>
        <time>2020-06-28T12:53:28Z</time>
      </trkpt>
      <trkpt lat="49.07975" lon="1.92288">
        <ele>85</ele>
        <time>2020-06-28T12:53:43Z</time>
      </trkpt>
      <trkpt lat="49.07966" lon="1.92295">
        <ele>85</ele>
        <time>2020-06-28T12:53:56Z</time>
      </trkpt>
      <trkpt lat="49.07957" lon="1.92289">
        <ele>84</ele>
        <time>2020-06-28T12:54:10Z</time>
      </trkpt>
      <trkpt lat="49.07949" lon="1.92281">
        <ele>84</ele>
        <time>2020-06-28T12:54:39Z</time>
      </trkpt>
      <trkpt lat="49.07939" lon="1.92282">
        <ele>83</ele>
        <time>2020-06-28T12:54:46Z</time>
      </trkpt>
      <trkpt lat="49.07928" lon="1.9228">
        <ele>82</ele>
        <time>2020-06-28T12:55:01Z</time>
      </trkpt>
      <trkpt lat="49.07919" lon="1.92273">
        <ele>82</ele>
        <time>2020-06-28T12:55:11Z</time>
      </trkpt>
      <trkpt lat="49.0791" lon="1.92275">
        <ele>78</ele>
        <time>2020-06-28T12:55:23Z</time>
      </trkpt>
      <trkpt lat="49.07901" lon="1.92269">
        <ele>77</ele>
        <time>2020-06-28T12:55:31Z</time>
      </trkpt>
      <trkpt lat="49.0789" lon="1.92268">
        <ele>77</ele>
        <time>2020-06-28T12:55:38Z</time>
      </trkpt>
      <trkpt lat="49.0788" lon="1.92267">
        <ele>77</ele>
        <time>2020-06-28T12:55:47Z</time>
      </trkpt>
      <trkpt lat="49.07873" lon="1.92257">
        <ele>77</ele>
        <time>2020-06-28T12:55:54Z</time>
      </trkpt>
      <trkpt lat="49.07865" lon="1.92245">
        <ele>75</ele>
        <time>2020-06-28T12:56:01Z</time>
      </trkpt>
      <trkpt lat="49.07856" lon="1.92243">
        <ele>75</ele>
        <time>2020-06-28T12:56:23Z</time>
      </trkpt>
      <trkpt lat="49.07848" lon="1.92237">
        <ele>75</ele>
        <time>2020-06-28T12:56:35Z</time>
      </trkpt>
      <trkpt lat="49.07852" lon="1.92224">
        <ele>75</ele>
        <time>2020-06-28T12:56:46Z</time>
      </trkpt>
      <trkpt lat="49.07858" lon="1.92211">
        <ele>75</ele>
        <time>2020-06-28T12:56:55Z</time>
      </trkpt>
      <trkpt lat="49.07862" lon="1.92197">
        <ele>75</ele>
        <time>2020-06-28T12:57:02Z</time>
      </trkpt>
      <trkpt lat="49.07867" lon="1.92184">
        <ele>75</ele>
        <time>2020-06-28T12:57:09Z</time>
      </trkpt>
      <trkpt lat="49.07871" lon="1.9217">
        <ele>75</ele>
        <time>2020-06-28T12:57:16Z</time>
      </trkpt>
      <trkpt lat="49.07872" lon="1.92154">
        <ele>73</ele>
        <time>2020-06-28T12:57:25Z</time>
      </trkpt>
      <trkpt lat="49.07864" lon="1.92144">
        <ele>73</ele>
        <time>2020-06-28T12:57:32Z</time>
      </trkpt>
      <trkpt lat="49.07857" lon="1.92133">
        <ele>73</ele>
        <time>2020-06-28T12:57:43Z</time>
      </trkpt>
      <trkpt lat="49.07848" lon="1.92124">
        <ele>73</ele>
        <time>2020-06-28T12:57:52Z</time>
      </trkpt>
      <trkpt lat="49.07841" lon="1.92113">
        <ele>73</ele>
        <time>2020-06-28T12:58:00Z</time>
      </trkpt>
      <trkpt lat="49.07832" lon="1.92106">
        <ele>72</ele>
        <time>2020-06-28T12:58:08Z</time>
      </trkpt>
      <trkpt lat="49.07821" lon="1.92101">
        <ele>71</ele>
        <time>2020-06-28T12:58:16Z</time>
      </trkpt>
      <trkpt lat="49.07811" lon="1.92098">
        <ele>71</ele>
        <time>2020-06-28T12:58:24Z</time>
      </trkpt>
      <trkpt lat="49.07801" lon="1.92092">
        <ele>71</ele>
        <time>2020-06-28T12:58:31Z</time>
      </trkpt>
      <trkpt lat="49.07791" lon="1.92086">
        <ele>71</ele>
        <time>2020-06-28T12:58:38Z</time>
      </trkpt>
      <trkpt lat="49.0778" lon="1.92084">
        <ele>71</ele>
        <time>2020-06-28T12:58:46Z</time>
      </trkpt>
      <trkpt lat="49.07769" lon="1.92084">
        <ele>70</ele>
        <time>2020-06-28T12:58:54Z</time>
      </trkpt>
      <trkpt lat="49.07758" lon="1.92084">
        <ele>70</ele>
        <time>2020-06-28T12:59:00Z</time>
      </trkpt>
      <trkpt lat="49.07747" lon="1.92084">
        <ele>70</ele>
        <time>2020-06-28T12:59:08Z</time>
      </trkpt>
      <trkpt lat="49.07737" lon="1.92085">
        <ele>72</ele>
        <time>2020-06-28T12:59:18Z</time>
      </trkpt>
      <trkpt lat="49.07728" lon="1.92086">
        <ele>73</ele>
        <time>2020-06-28T12:59:30Z</time>
      </trkpt>
      <trkpt lat="49.07718" lon="1.92083">
        <ele>71</ele>
        <time>2020-06-28T12:59:37Z</time>
      </trkpt>
      <trkpt lat="49.07708" lon="1.92081">
        <ele>72</ele>
        <time>2020-06-28T12:59:43Z</time>
      </trkpt>
      <trkpt lat="49.07698" lon="1.9208">
        <ele>73</ele>
        <time>2020-06-28T12:59:52Z</time>
      </trkpt>
      <trkpt lat="49.07687" lon="1.92077">
        <ele>74</ele>
        <time>2020-06-28T13:00:01Z</time>
      </trkpt>
      <trkpt lat="49.07676" lon="1.92073">
        <ele>75</ele>
        <time>2020-06-28T13:00:09Z</time>
      </trkpt>
      <trkpt lat="49.07666" lon="1.92069">
        <ele>78</ele>
        <time>2020-06-28T13:00:16Z</time>
      </trkpt>
      <trkpt lat="49.07655" lon="1.92069">
        <ele>78</ele>
        <time>2020-06-28T13:00:23Z</time>
      </trkpt>
      <trkpt lat="49.07644" lon="1.92066">
        <ele>78</ele>
        <time>2020-06-28T13:00:30Z</time>
      </trkpt>
      <trkpt lat="49.07635" lon="1.9206">
        <ele>77</ele>
        <time>2020-06-28T13:00:39Z</time>
      </trkpt>
      <trkpt lat="49.07624" lon="1.92058">
        <ele>78</ele>
        <time>2020-06-28T13:00:48Z</time>
      </trkpt>
      <trkpt lat="49.07614" lon="1.92054">
        <ele>78</ele>
        <time>2020-06-28T13:00:55Z</time>
      </trkpt>
      <trkpt lat="49.07605" lon="1.92059">
        <ele>78</ele>
        <time>2020-06-28T13:01:05Z</time>
      </trkpt>
      <trkpt lat="49.07595" lon="1.92053">
        <ele>78</ele>
        <time>2020-06-28T13:01:14Z</time>
      </trkpt>
      <trkpt lat="49.07586" lon="1.92043">
        <ele>78</ele>
        <time>2020-06-28T13:01:19Z</time>
      </trkpt>
      <trkpt lat="49.07578" lon="1.92035">
        <ele>80</ele>
        <time>2020-06-28T13:01:27Z</time>
      </trkpt>
      <trkpt lat="49.0757" lon="1.92026">
        <ele>80</ele>
        <time>2020-06-28T13:01:34Z</time>
      </trkpt>
      <trkpt lat="49.07559" lon="1.9202">
        <ele>80</ele>
        <time>2020-06-28T13:01:40Z</time>
      </trkpt>
      <trkpt lat="49.07549" lon="1.92015">
        <ele>80</ele>
        <time>2020-06-28T13:01:51Z</time>
      </trkpt>
      <trkpt lat="49.0754" lon="1.92008">
        <ele>80</ele>
        <time>2020-06-28T13:01:59Z</time>
      </trkpt>
      <trkpt lat="49.07532" lon="1.91999">
        <ele>77</ele>
        <time>2020-06-28T13:02:07Z</time>
      </trkpt>
      <trkpt lat="49.07523" lon="1.91993">
        <ele>77</ele>
        <time>2020-06-28T13:02:14Z</time>
      </trkpt>
      <trkpt lat="49.07515" lon="1.91987">
        <ele>78</ele>
        <time>2020-06-28T13:02:20Z</time>
      </trkpt>
      <trkpt lat="49.07505" lon="1.9198">
        <ele>77</ele>
        <time>2020-06-28T13:02:26Z</time>
      </trkpt>
      <trkpt lat="49.07495" lon="1.91977">
        <ele>78</ele>
        <time>2020-06-28T13:02:33Z</time>
      </trkpt>
      <trkpt lat="49.07486" lon="1.91967">
        <ele>77</ele>
        <time>2020-06-28T13:02:41Z</time>
      </trkpt>
      <trkpt lat="49.07477" lon="1.91981">
        <ele>78</ele>
        <time>2020-06-28T13:02:59Z</time>
      </trkpt>
      <trkpt lat="49.07475" lon="1.91997">
        <ele>78</ele>
        <time>2020-06-28T13:03:05Z</time>
      </trkpt>
      <trkpt lat="49.07473" lon="1.92014">
        <ele>80</ele>
        <time>2020-06-28T13:03:14Z</time>
      </trkpt>
      <trkpt lat="49.0747" lon="1.9203">
        <ele>80</ele>
        <time>2020-06-28T13:03:21Z</time>
      </trkpt>
      <trkpt lat="49.07464" lon="1.92045">
        <ele>80</ele>
        <time>2020-06-28T13:03:29Z</time>
      </trkpt>
      <trkpt lat="49.07462" lon="1.92061">
        <ele>80</ele>
        <time>2020-06-28T13:03:38Z</time>
      </trkpt>
      <trkpt lat="49.07458" lon="1.92074">
        <ele>80</ele>
        <time>2020-06-28T13:03:44Z</time>
      </trkpt>
      <trkpt lat="49.07456" lon="1.92089">
        <ele>81</ele>
        <time>2020-06-28T13:03:55Z</time>
      </trkpt>
      <trkpt lat="49.07451" lon="1.92103">
        <ele>81</ele>
        <time>2020-06-28T13:04:04Z</time>
      </trkpt>
      <trkpt lat="49.07447" lon="1.92117">
        <ele>81</ele>
        <time>2020-06-28T13:04:11Z</time>
      </trkpt>
      <trkpt lat="49.07441" lon="1.92132">
        <ele>81</ele>
        <time>2020-06-28T13:04:20Z</time>
      </trkpt>
      <trkpt lat="49.07439" lon="1.92147">
        <ele>80</ele>
        <time>2020-06-28T13:04:26Z</time>
      </trkpt>
      <trkpt lat="49.07437" lon="1.92163">
        <ele>80</ele>
        <time>2020-06-28T13:04:32Z</time>
      </trkpt>
      <trkpt lat="49.07431" lon="1.92174">
        <ele>79</ele>
        <time>2020-06-28T13:04:41Z</time>
      </trkpt>
      <trkpt lat="49.07424" lon="1.92187">
        <ele>79</ele>
        <time>2020-06-28T13:04:49Z</time>
      </trkpt>
      <trkpt lat="49.07422" lon="1.92202">
        <ele>79</ele>
        <time>2020-06-28T13:04:57Z</time>
      </trkpt>
      <trkpt lat="49.07421" lon="1.92217">
        <ele>79</ele>
        <time>2020-06-28T13:05:07Z</time>
      </trkpt>
      <trkpt lat="49.07423" lon="1.92233">
        <ele>78</ele>
        <time>2020-06-28T13:05:15Z</time>
      </trkpt>
      <trkpt lat="49.07425" lon="1.92248">
        <ele>77</ele>
        <time>2020-06-28T13:05:23Z</time>
      </trkpt>
      <trkpt lat="49.0742" lon="1.92261">
        <ele>77</ele>
        <time>2020-06-28T13:05:31Z</time>
      </trkpt>
      <trkpt lat="49.07413" lon="1.92276">
        <ele>75</ele>
        <time>2020-06-28T13:05:36Z</time>
      </trkpt>
      <trkpt lat="49.07413" lon="1.92292">
        <ele>75</ele>
        <time>2020-06-28T13:05:44Z</time>
      </trkpt>
      <trkpt lat="49.07413" lon="1.92308">
        <ele>75</ele>
        <time>2020-06-28T13:05:50Z</time>
      </trkpt>
      <trkpt lat="49.07406" lon="1.92319">
        <ele>75</ele>
        <time>2020-06-28T13:06:00Z</time>
      </trkpt>
      <trkpt lat="49.074" lon="1.9233">
        <ele>75</ele>
        <time>2020-06-28T13:06:06Z</time>
      </trkpt>
      <trkpt lat="49.07396" lon="1.92344">
        <ele>75</ele>
        <time>2020-06-28T13:06:12Z</time>
      </trkpt>
      <trkpt lat="49.07393" lon="1.9236">
        <ele>75</ele>
        <time>2020-06-28T13:06:19Z</time>
      </trkpt>
      <trkpt lat="49.07392" lon="1.92375">
        <ele>75</ele>
        <time>2020-06-28T13:06:29Z</time>
      </trkpt>
      <trkpt lat="49.07387" lon="1.92387">
        <ele>75</ele>
        <time>2020-06-28T13:06:43Z</time>
      </trkpt>
      <trkpt lat="49.07383" lon="1.92405">
        <ele>75</ele>
        <time>2020-06-28T13:06:51Z</time>
      </trkpt>
      <trkpt lat="49.07379" lon="1.9242">
        <ele>74</ele>
        <time>2020-06-28T13:06:57Z</time>
      </trkpt>
      <trkpt lat="49.07373" lon="1.92433">
        <ele>74</ele>
        <time>2020-06-28T13:07:05Z</time>
      </trkpt>
      <trkpt lat="49.07371" lon="1.92449">
        <ele>74</ele>
        <time>2020-06-28T13:07:13Z</time>
      </trkpt>
      <trkpt lat="49.0737" lon="1.92464">
        <ele>74</ele>
        <time>2020-06-28T13:07:24Z</time>
      </trkpt>
      <trkpt lat="49.07366" lon="1.9248">
        <ele>73</ele>
        <time>2020-06-28T13:07:31Z</time>
      </trkpt>
      <trkpt lat="49.07363" lon="1.92494">
        <ele>73</ele>
        <time>2020-06-28T13:07:36Z</time>
      </trkpt>
      <trkpt lat="49.07365" lon="1.92513">
        <ele>72</ele>
        <time>2020-06-28T13:07:40Z</time>
      </trkpt>
      <trkpt lat="49.07359" lon="1.92526">
        <ele>71</ele>
        <time>2020-06-28T13:07:47Z</time>
      </trkpt>
      <trkpt lat="49.07349" lon="1.9254">
        <ele>71</ele>
        <time>2020-06-28T13:08:27Z</time>
      </trkpt>
      <trkpt lat="49.07349" lon="1.92553">
        <ele>71</ele>
        <time>2020-06-28T13:08:49Z</time>
      </trkpt>
      <trkpt lat="49.07346" lon="1.92567">
        <ele>70</ele>
        <time>2020-06-28T13:09:06Z</time>
      </trkpt>
      <trkpt lat="49.07336" lon="1.92571">
        <ele>69</ele>
        <time>2020-06-28T13:09:13Z</time>
      </trkpt>
      <trkpt lat="49.07327" lon="1.92577">
        <ele>68</ele>
        <time>2020-06-28T13:09:26Z</time>
      </trkpt>
      <trkpt lat="49.0732" lon="1.92587">
        <ele>67</ele>
        <time>2020-06-28T13:09:43Z</time>
      </trkpt>
      <trkpt lat="49.07309" lon="1.92597">
        <ele>67</ele>
        <time>2020-06-28T13:10:03Z</time>
      </trkpt>
      <trkpt lat="49.07301" lon="1.92607">
        <ele>66</ele>
        <time>2020-06-28T13:10:20Z</time>
      </trkpt>
      <trkpt lat="49.07292" lon="1.92616">
        <ele>66</ele>
        <time>2020-06-28T13:10:29Z</time>
      </trkpt>
      <trkpt lat="49.07286" lon="1.92626">
        <ele>66</ele>
        <time>2020-06-28T13:10:46Z</time>
      </trkpt>
      <trkpt lat="49.07277" lon="1.92632">
        <ele>66</ele>
        <time>2020-06-28T13:11:04Z</time>
      </trkpt>
      <trkpt lat="49.07269" lon="1.9264">
        <ele>65</ele>
        <time>2020-06-28T13:11:10Z</time>
      </trkpt>
      <trkpt lat="49.0726" lon="1.92651">
        <ele>65</ele>
        <time>2020-06-28T13:11:24Z</time>
      </trkpt>
      <trkpt lat="49.07252" lon="1.9266">
        <ele>64</ele>
        <time>2020-06-28T13:11:33Z</time>
      </trkpt>
      <trkpt lat="49.07246" lon="1.92677">
        <ele>63</ele>
        <time>2020-06-28T13:12:10Z</time>
      </trkpt>
      <trkpt lat="49.07256" lon="1.92678">
        <ele>64</ele>
        <time>2020-06-28T13:13:27Z</time>
      </trkpt>
      <trkpt lat="49.07244" lon="1.92677">
        <ele>63</ele>
        <time>2020-06-28T13:16:03Z</time>
      </trkpt>
      <trkpt lat="49.07237" lon="1.92686">
        <ele>62</ele>
        <time>2020-06-28T13:16:14Z</time>
      </trkpt>
      <trkpt lat="49.07228" lon="1.92698">
        <ele>62</ele>
        <time>2020-06-28T13:16:21Z</time>
      </trkpt>
      <trkpt lat="49.0722" lon="1.92706">
        <ele>62</ele>
        <time>2020-06-28T13:16:30Z</time>
      </trkpt>
      <trkpt lat="49.07212" lon="1.92714">
        <ele>61</ele>
        <time>2020-06-28T13:16:41Z</time>
      </trkpt>
      <trkpt lat="49.07203" lon="1.92724">
        <ele>61</ele>
        <time>2020-06-28T13:16:48Z</time>
      </trkpt>
      <trkpt lat="49.07195" lon="1.92734">
        <ele>61</ele>
        <time>2020-06-28T13:16:57Z</time>
      </trkpt>
      <trkpt lat="49.07187" lon="1.92741">
        <ele>61</ele>
        <time>2020-06-28T13:17:06Z</time>
      </trkpt>
      <trkpt lat="49.07179" lon="1.92751">
        <ele>61</ele>
        <time>2020-06-28T13:17:12Z</time>
      </trkpt>
      <trkpt lat="49.07172" lon="1.9276">
        <ele>61</ele>
        <time>2020-06-28T13:17:23Z</time>
      </trkpt>
      <trkpt lat="49.07163" lon="1.92769">
        <ele>62</ele>
        <time>2020-06-28T13:17:33Z</time>
      </trkpt>
      <trkpt lat="49.07155" lon="1.92779">
        <ele>62</ele>
        <time>2020-06-28T13:17:38Z</time>
      </trkpt>
      <trkpt lat="49.07147" lon="1.92788">
        <ele>63</ele>
        <time>2020-06-28T13:17:47Z</time>
      </trkpt>
      <trkpt lat="49.07137" lon="1.92798">
        <ele>63</ele>
        <time>2020-06-28T13:17:54Z</time>
      </trkpt>
      <trkpt lat="49.0713" lon="1.92809">
        <ele>64</ele>
        <time>2020-06-28T13:18:01Z</time>
      </trkpt>
      <trkpt lat="49.07122" lon="1.92822">
        <ele>64</ele>
        <time>2020-06-28T13:18:10Z</time>
      </trkpt>
      <trkpt lat="49.07113" lon="1.92829">
        <ele>65</ele>
        <time>2020-06-28T13:18:18Z</time>
      </trkpt>
      <trkpt lat="49.07105" lon="1.92836">
        <ele>67</ele>
        <time>2020-06-28T13:18:37Z</time>
      </trkpt>
      <trkpt lat="49.07097" lon="1.92845">
        <ele>67</ele>
        <time>2020-06-28T13:18:50Z</time>
      </trkpt>
      <trkpt lat="49.0709" lon="1.92855">
        <ele>67</ele>
        <time>2020-06-28T13:19:00Z</time>
      </trkpt>
      <trkpt lat="49.07081" lon="1.92862">
        <ele>70</ele>
        <time>2020-06-28T13:19:08Z</time>
      </trkpt>
      <trkpt lat="49.07072" lon="1.92873">
        <ele>71</ele>
        <time>2020-06-28T13:19:15Z</time>
      </trkpt>
      <trkpt lat="49.07063" lon="1.92881">
        <ele>71</ele>
        <time>2020-06-28T13:19:21Z</time>
      </trkpt>
      <trkpt lat="49.07055" lon="1.9289">
        <ele>71</ele>
        <time>2020-06-28T13:19:27Z</time>
      </trkpt>
      <trkpt lat="49.07046" lon="1.92896">
        <ele>72</ele>
        <time>2020-06-28T13:19:33Z</time>
      </trkpt>
      <trkpt lat="49.07035" lon="1.92897">
        <ele>72</ele>
        <time>2020-06-28T13:19:43Z</time>
      </trkpt>
      <trkpt lat="49.07026" lon="1.92906">
        <ele>73</ele>
        <time>2020-06-28T13:19:56Z</time>
      </trkpt>
      <trkpt lat="49.07018" lon="1.92914">
        <ele>73</ele>
        <time>2020-06-28T13:20:03Z</time>
      </trkpt>
      <trkpt lat="49.07009" lon="1.92922">
        <ele>74</ele>
        <time>2020-06-28T13:20:12Z</time>
      </trkpt>
      <trkpt lat="49.07002" lon="1.92932">
        <ele>74</ele>
        <time>2020-06-28T13:20:20Z</time>
      </trkpt>
      <trkpt lat="49.06993" lon="1.92942">
        <ele>77</ele>
        <time>2020-06-28T13:20:26Z</time>
      </trkpt>
      <trkpt lat="49.06983" lon="1.92946">
        <ele>77</ele>
        <time>2020-06-28T13:20:33Z</time>
      </trkpt>
      <trkpt lat="49.06974" lon="1.92952">
        <ele>77</ele>
        <time>2020-06-28T13:20:48Z</time>
      </trkpt>
      <trkpt lat="49.06964" lon="1.92955">
        <ele>78</ele>
        <time>2020-06-28T13:21:00Z</time>
      </trkpt>
      <trkpt lat="49.06954" lon="1.92959">
        <ele>78</ele>
        <time>2020-06-28T13:21:10Z</time>
      </trkpt>
      <trkpt lat="49.06945" lon="1.92975">
        <ele>78</ele>
        <time>2020-06-28T13:21:16Z</time>
      </trkpt>
      <trkpt lat="49.06939" lon="1.92986">
        <ele>79</ele>
        <time>2020-06-28T13:21:25Z</time>
      </trkpt>
      <trkpt lat="49.0693" lon="1.92993">
        <ele>80</ele>
        <time>2020-06-28T13:21:33Z</time>
      </trkpt>
      <trkpt lat="49.0692" lon="1.92993">
        <ele>80</ele>
        <time>2020-06-28T13:21:41Z</time>
      </trkpt>
      <trkpt lat="49.06911" lon="1.93001">
        <ele>82</ele>
        <time>2020-06-28T13:21:51Z</time>
      </trkpt>
      <trkpt lat="49.06904" lon="1.93014">
        <ele>83</ele>
        <time>2020-06-28T13:21:56Z</time>
      </trkpt>
      <trkpt lat="49.06897" lon="1.93027">
        <ele>83</ele>
        <time>2020-06-28T13:22:02Z</time>
      </trkpt>
      <trkpt lat="49.06889" lon="1.93038">
        <ele>84</ele>
        <time>2020-06-28T13:22:06Z</time>
      </trkpt>
      <trkpt lat="49.0688" lon="1.93048">
        <ele>84</ele>
        <time>2020-06-28T13:22:12Z</time>
      </trkpt>
      <trkpt lat="49.06872" lon="1.93056">
        <ele>84</ele>
        <time>2020-06-28T13:22:18Z</time>
      </trkpt>
      <trkpt lat="49.06863" lon="1.9306">
        <ele>85</ele>
        <time>2020-06-28T13:22:26Z</time>
      </trkpt>
      <trkpt lat="49.06854" lon="1.93068">
        <ele>86</ele>
        <time>2020-06-28T13:22:35Z</time>
      </trkpt>
      <trkpt lat="49.06847" lon="1.9308">
        <ele>87</ele>
        <time>2020-06-28T13:22:42Z</time>
      </trkpt>
      <trkpt lat="49.06838" lon="1.9309">
        <ele>88</ele>
        <time>2020-06-28T13:22:48Z</time>
      </trkpt>
      <trkpt lat="49.06831" lon="1.93102">
        <ele>90</ele>
        <time>2020-06-28T13:22:54Z</time>
      </trkpt>
      <trkpt lat="49.06826" lon="1.93114">
        <ele>90</ele>
        <time>2020-06-28T13:23:01Z</time>
      </trkpt>
      <trkpt lat="49.0682" lon="1.93125">
        <ele>90</ele>
        <time>2020-06-28T13:23:07Z</time>
      </trkpt>
      <trkpt lat="49.06812" lon="1.93134">
        <ele>90</ele>
        <time>2020-06-28T13:23:19Z</time>
      </trkpt>
      <trkpt lat="49.06805" lon="1.93143">
        <ele>90</ele>
        <time>2020-06-28T13:23:33Z</time>
      </trkpt>
      <trkpt lat="49.06798" lon="1.93153">
        <ele>90</ele>
        <time>2020-06-28T13:23:41Z</time>
      </trkpt>
      <trkpt lat="49.06793" lon="1.93165">
        <ele>90</ele>
        <time>2020-06-28T13:23:48Z</time>
      </trkpt>
      <trkpt lat="49.06787" lon="1.93178">
        <ele>89</ele>
        <time>2020-06-28T13:23:54Z</time>
      </trkpt>
      <trkpt lat="49.06777" lon="1.93191">
        <ele>89</ele>
        <time>2020-06-28T13:24:00Z</time>
      </trkpt>
      <trkpt lat="49.06768" lon="1.93203">
        <ele>89</ele>
        <time>2020-06-28T13:24:06Z</time>
      </trkpt>
      <trkpt lat="49.06761" lon="1.93211">
        <ele>89</ele>
        <time>2020-06-28T13:24:10Z</time>
      </trkpt>
      <trkpt lat="49.06752" lon="1.93218">
        <ele>88</ele>
        <time>2020-06-28T13:24:16Z</time>
      </trkpt>
      <trkpt lat="49.06744" lon="1.93227">
        <ele>87</ele>
        <time>2020-06-28T13:24:23Z</time>
      </trkpt>
      <trkpt lat="49.06737" lon="1.9324">
        <ele>87</ele>
        <time>2020-06-28T13:24:29Z</time>
      </trkpt>
      <trkpt lat="49.06728" lon="1.93252">
        <ele>84</ele>
        <time>2020-06-28T13:24:36Z</time>
      </trkpt>
      <trkpt lat="49.06721" lon="1.93268">
        <ele>83</ele>
        <time>2020-06-28T13:24:42Z</time>
      </trkpt>
      <trkpt lat="49.06711" lon="1.93281">
        <ele>82</ele>
        <time>2020-06-28T13:24:58Z</time>
      </trkpt>
      <trkpt lat="49.06701" lon="1.93288">
        <ele>82</ele>
        <time>2020-06-28T13:25:05Z</time>
      </trkpt>
      <trkpt lat="49.0669" lon="1.93295">
        <ele>81</ele>
        <time>2020-06-28T13:25:11Z</time>
      </trkpt>
      <trkpt lat="49.0668" lon="1.93302">
        <ele>80</ele>
        <time>2020-06-28T13:25:16Z</time>
      </trkpt>
      <trkpt lat="49.06669" lon="1.93312">
        <ele>79</ele>
        <time>2020-06-28T13:25:22Z</time>
      </trkpt>
      <trkpt lat="49.06659" lon="1.93319">
        <ele>75</ele>
        <time>2020-06-28T13:25:28Z</time>
      </trkpt>
      <trkpt lat="49.0665" lon="1.93325">
        <ele>74</ele>
        <time>2020-06-28T13:25:35Z</time>
      </trkpt>
      <trkpt lat="49.0664" lon="1.93332">
        <ele>73</ele>
        <time>2020-06-28T13:25:44Z</time>
      </trkpt>
      <trkpt lat="49.06629" lon="1.93336">
        <ele>72</ele>
        <time>2020-06-28T13:25:51Z</time>
      </trkpt>
      <trkpt lat="49.06619" lon="1.93341">
        <ele>71</ele>
        <time>2020-06-28T13:25:58Z</time>
      </trkpt>
      <trkpt lat="49.0661" lon="1.93346">
        <ele>71</ele>
        <time>2020-06-28T13:26:06Z</time>
      </trkpt>
      <trkpt lat="49.066" lon="1.9335">
        <ele>70</ele>
        <time>2020-06-28T13:26:13Z</time>
      </trkpt>
      <trkpt lat="49.06589" lon="1.93357">
        <ele>70</ele>
        <time>2020-06-28T13:26:19Z</time>
      </trkpt>
      <trkpt lat="49.06579" lon="1.93362">
        <ele>66</ele>
        <time>2020-06-28T13:26:25Z</time>
      </trkpt>
      <trkpt lat="49.0657" lon="1.93366">
        <ele>66</ele>
        <time>2020-06-28T13:26:31Z</time>
      </trkpt>
      <trkpt lat="49.0656" lon="1.93369">
        <ele>65</ele>
        <time>2020-06-28T13:26:38Z</time>
      </trkpt>
      <trkpt lat="49.06551" lon="1.93374">
        <ele>65</ele>
        <time>2020-06-28T13:26:44Z</time>
      </trkpt>
      <trkpt lat="49.06542" lon="1.93381">
        <ele>65</ele>
        <time>2020-06-28T13:26:51Z</time>
      </trkpt>
      <trkpt lat="49.06533" lon="1.93388">
        <ele>65</ele>
        <time>2020-06-28T13:26:56Z</time>
      </trkpt>
      <trkpt lat="49.06524" lon="1.93389">
        <ele>64</ele>
        <time>2020-06-28T13:27:04Z</time>
      </trkpt>
      <trkpt lat="49.06515" lon="1.93386">
        <ele>64</ele>
        <time>2020-06-28T13:27:18Z</time>
      </trkpt>
      <trkpt lat="49.06505" lon="1.93385">
        <ele>64</ele>
        <time>2020-06-28T13:27:27Z</time>
      </trkpt>
      <trkpt lat="49.06494" lon="1.93387">
        <ele>60</ele>
        <time>2020-06-28T13:27:35Z</time>
      </trkpt>
      <trkpt lat="49.06486" lon="1.93379">
        <ele>59</ele>
        <time>2020-06-28T13:27:43Z</time>
      </trkpt>
      <trkpt lat="49.06475" lon="1.93376">
        <ele>59</ele>
        <time>2020-06-28T13:27:51Z</time>
      </trkpt>
      <trkpt lat="49.06464" lon="1.93378">
        <ele>59</ele>
        <time>2020-06-28T13:27:57Z</time>
      </trkpt>
      <trkpt lat="49.06455" lon="1.93383">
        <ele>58</ele>
        <time>2020-06-28T13:28:03Z</time>
      </trkpt>
      <trkpt lat="49.06446" lon="1.93389">
        <ele>58</ele>
        <time>2020-06-28T13:28:12Z</time>
      </trkpt>
      <trkpt lat="49.06441" lon="1.93401">
        <ele>58</ele>
        <time>2020-06-28T13:28:23Z</time>
      </trkpt>
      <trkpt lat="49.06436" lon="1.93413">
        <ele>58</ele>
        <time>2020-06-28T13:28:33Z</time>
      </trkpt>
      <trkpt lat="49.06427" lon="1.93423">
        <ele>58</ele>
        <time>2020-06-28T13:28:40Z</time>
      </trkpt>
      <trkpt lat="49.06417" lon="1.93427">
        <ele>57</ele>
        <time>2020-06-28T13:28:46Z</time>
      </trkpt>
      <trkpt lat="49.06405" lon="1.9343">
        <ele>56</ele>
        <time>2020-06-28T13:28:52Z</time>
      </trkpt>
      <trkpt lat="49.06394" lon="1.93431">
        <ele>56</ele>
        <time>2020-06-28T13:29:04Z</time>
      </trkpt>
      <trkpt lat="49.06385" lon="1.93431">
        <ele>56</ele>
        <time>2020-06-28T13:29:17Z</time>
      </trkpt>
      <trkpt lat="49.06376" lon="1.93434">
        <ele>56</ele>
        <time>2020-06-28T13:29:34Z</time>
      </trkpt>
      <trkpt lat="49.06369" lon="1.93442">
        <ele>56</ele>
        <time>2020-06-28T13:29:48Z</time>
      </trkpt>
      <trkpt lat="49.06372" lon="1.93428">
        <ele>56</ele>
        <time>2020-06-28T13:30:08Z</time>
      </trkpt>
      <trkpt lat="49.06373" lon="1.93413">
        <ele>54</ele>
        <time>2020-06-28T13:30:17Z</time>
      </trkpt>
      <trkpt lat="49.06369" lon="1.93398">
        <ele>54</ele>
        <time>2020-06-28T13:30:25Z</time>
      </trkpt>
      <trkpt lat="49.06366" lon="1.93383">
        <ele>54</ele>
        <time>2020-06-28T13:30:33Z</time>
      </trkpt>
      <trkpt lat="49.06365" lon="1.93367">
        <ele>54</ele>
        <time>2020-06-28T13:30:42Z</time>
      </trkpt>
      <trkpt lat="49.06358" lon="1.93356">
        <ele>54</ele>
        <time>2020-06-28T13:31:42Z</time>
      </trkpt>
      <trkpt lat="49.06356" lon="1.93375">
        <ele>54</ele>
        <time>2020-06-28T13:32:31Z</time>
      </trkpt>
      <trkpt lat="49.06367" lon="1.9337">
        <ele>54</ele>
        <time>2020-06-28T13:32:37Z</time>
      </trkpt>
      <trkpt lat="49.06361" lon="1.93381">
        <ele>54</ele>
        <time>2020-06-28T13:32:52Z</time>
      </trkpt>
      <trkpt lat="49.06359" lon="1.93395">
        <ele>54</ele>
        <time>2020-06-28T13:33:06Z</time>
      </trkpt>
      <trkpt lat="49.0636" lon="1.93411">
        <ele>54</ele>
        <time>2020-06-28T13:33:12Z</time>
      </trkpt>
      <trkpt lat="49.06362" lon="1.93427">
        <ele>55</ele>
        <time>2020-06-28T13:33:19Z</time>
      </trkpt>
      <trkpt lat="49.0636" lon="1.93442">
        <ele>56</ele>
        <time>2020-06-28T13:33:28Z</time>
      </trkpt>
      <trkpt lat="49.06355" lon="1.93454">
        <ele>56</ele>
        <time>2020-06-28T13:33:40Z</time>
      </trkpt>
      <trkpt lat="49.06348" lon="1.93442">
        <ele>55</ele>
        <time>2020-06-28T13:33:53Z</time>
      </trkpt>
      <trkpt lat="49.06338" lon="1.93438">
        <ele>55</ele>
        <time>2020-06-28T13:34:02Z</time>
      </trkpt>
      <trkpt lat="49.06327" lon="1.9344">
        <ele>55</ele>
        <time>2020-06-28T13:34:09Z</time>
      </trkpt>
      <trkpt lat="49.06317" lon="1.93438">
        <ele>55</ele>
        <time>2020-06-28T13:34:19Z</time>
      </trkpt>
      <trkpt lat="49.06307" lon="1.93438">
        <ele>55</ele>
        <time>2020-06-28T13:34:29Z</time>
      </trkpt>
      <trkpt lat="49.06299" lon="1.93444">
        <ele>56</ele>
        <time>2020-06-28T13:34:41Z</time>
      </trkpt>
      <trkpt lat="49.06288" lon="1.93442">
        <ele>56</ele>
        <time>2020-06-28T13:34:52Z</time>
      </trkpt>
      <trkpt lat="49.06278" lon="1.93443">
        <ele>56</ele>
        <time>2020-06-28T13:34:58Z</time>
      </trkpt>
      <trkpt lat="49.06269" lon="1.93438">
        <ele>55</ele>
        <time>2020-06-28T13:35:02Z</time>
      </trkpt>
      <trkpt lat="49.06259" lon="1.93433">
        <ele>55</ele>
        <time>2020-06-28T13:35:10Z</time>
      </trkpt>
      <trkpt lat="49.0625" lon="1.93425">
        <ele>55</ele>
        <time>2020-06-28T13:35:17Z</time>
      </trkpt>
      <trkpt lat="49.0624" lon="1.93423">
        <ele>55</ele>
        <time>2020-06-28T13:35:27Z</time>
      </trkpt>
      <trkpt lat="49.0623" lon="1.93418">
        <ele>56</ele>
        <time>2020-06-28T13:35:37Z</time>
      </trkpt>
      <trkpt lat="49.0622" lon="1.93411">
        <ele>54</ele>
        <time>2020-06-28T13:35:45Z</time>
      </trkpt>
      <trkpt lat="49.06212" lon="1.93404">
        <ele>54</ele>
        <time>2020-06-28T13:35:52Z</time>
      </trkpt>
      <trkpt lat="49.06202" lon="1.93399">
        <ele>54</ele>
        <time>2020-06-28T13:36:00Z</time>
      </trkpt>
      <trkpt lat="49.06191" lon="1.93399">
        <ele>54</ele>
        <time>2020-06-28T13:36:05Z</time>
      </trkpt>
      <trkpt lat="49.06181" lon="1.93394">
        <ele>54</ele>
        <time>2020-06-28T13:36:11Z</time>
      </trkpt>
      <trkpt lat="49.06172" lon="1.93389">
        <ele>54</ele>
        <time>2020-06-28T13:36:17Z</time>
      </trkpt>
      <trkpt lat="49.06164" lon="1.93379">
        <ele>54</ele>
        <time>2020-06-28T13:36:28Z</time>
      </trkpt>
      <trkpt lat="49.06153" lon="1.93378">
        <ele>54</ele>
        <time>2020-06-28T13:36:36Z</time>
      </trkpt>
      <trkpt lat="49.06142" lon="1.93384">
        <ele>54</ele>
        <time>2020-06-28T13:36:42Z</time>
      </trkpt>
      <trkpt lat="49.06132" lon="1.93379">
        <ele>53</ele>
        <time>2020-06-28T13:36:59Z</time>
      </trkpt>
      <trkpt lat="49.06122" lon="1.93382">
        <ele>53</ele>
        <time>2020-06-28T13:37:12Z</time>
      </trkpt>
      <trkpt lat="49.06114" lon="1.93394">
        <ele>53</ele>
        <time>2020-06-28T13:37:18Z</time>
      </trkpt>
      <trkpt lat="49.06105" lon="1.93402">
        <ele>54</ele>
        <time>2020-06-28T13:37:24Z</time>
      </trkpt>
      <trkpt lat="49.06097" lon="1.93408">
        <ele>54</ele>
        <time>2020-06-28T13:37:30Z</time>
      </trkpt>
      <trkpt lat="49.06087" lon="1.9341">
        <ele>54</ele>
        <time>2020-06-28T13:37:36Z</time>
      </trkpt>
      <trkpt lat="49.06078" lon="1.93411">
        <ele>53</ele>
        <time>2020-06-28T13:37:42Z</time>
      </trkpt>
      <trkpt lat="49.06068" lon="1.93408">
        <ele>53</ele>
        <time>2020-06-28T13:37:49Z</time>
      </trkpt>
      <trkpt lat="49.06058" lon="1.93403">
        <ele>53</ele>
        <time>2020-06-28T13:37:57Z</time>
      </trkpt>
      <trkpt lat="49.06048" lon="1.93401">
        <ele>52</ele>
        <time>2020-06-28T13:38:05Z</time>
      </trkpt>
      <trkpt lat="49.06039" lon="1.93396">
        <ele>52</ele>
        <time>2020-06-28T13:38:13Z</time>
      </trkpt>
      <trkpt lat="49.06027" lon="1.93395">
        <ele>52</ele>
        <time>2020-06-28T13:38:21Z</time>
      </trkpt>
      <trkpt lat="49.06018" lon="1.93387">
        <ele>52</ele>
        <time>2020-06-28T13:38:30Z</time>
      </trkpt>
      <trkpt lat="49.06009" lon="1.93383">
        <ele>52</ele>
        <time>2020-06-28T13:38:38Z</time>
      </trkpt>
      <trkpt lat="49.05999" lon="1.93386">
        <ele>52</ele>
        <time>2020-06-28T13:38:46Z</time>
      </trkpt>
      <trkpt lat="49.0599" lon="1.93385">
        <ele>51</ele>
        <time>2020-06-28T13:38:54Z</time>
      </trkpt>
      <trkpt lat="49.05979" lon="1.93382">
        <ele>51</ele>
        <time>2020-06-28T13:39:02Z</time>
      </trkpt>
      <trkpt lat="49.0597" lon="1.93385">
        <ele>51</ele>
        <time>2020-06-28T13:39:16Z</time>
      </trkpt>
      <trkpt lat="49.0597" lon="1.93366">
        <ele>51</ele>
        <time>2020-06-28T13:39:40Z</time>
      </trkpt>
      <trkpt lat="49.05975" lon="1.93356">
        <ele>51</ele>
        <time>2020-06-28T13:40:00Z</time>
      </trkpt>
      <trkpt lat="49.05972" lon="1.93371">
        <ele>51</ele>
        <time>2020-06-28T13:40:22Z</time>
      </trkpt>
      <trkpt lat="49.0597" lon="1.93386">
        <ele>51</ele>
        <time>2020-06-28T13:40:35Z</time>
      </trkpt>
      <trkpt lat="49.0596" lon="1.93395">
        <ele>51</ele>
        <time>2020-06-28T13:40:53Z</time>
      </trkpt>
      <trkpt lat="49.0595" lon="1.93393">
        <ele>51</ele>
        <time>2020-06-28T13:40:59Z</time>
      </trkpt>
      <trkpt lat="49.0594" lon="1.9339">
        <ele>51</ele>
        <time>2020-06-28T13:41:06Z</time>
      </trkpt>
      <trkpt lat="49.05931" lon="1.93395">
        <ele>51</ele>
        <time>2020-06-28T13:41:15Z</time>
      </trkpt>
      <trkpt lat="49.0592" lon="1.93396">
        <ele>51</ele>
        <time>2020-06-28T13:41:26Z</time>
      </trkpt>
      <trkpt lat="49.0591" lon="1.93393">
        <ele>51</ele>
        <time>2020-06-28T13:41:34Z</time>
      </trkpt>
      <trkpt lat="49.059" lon="1.93395">
        <ele>51</ele>
        <time>2020-06-28T13:41:41Z</time>
      </trkpt>
      <trkpt lat="49.0589" lon="1.93402">
        <ele>51</ele>
        <time>2020-06-28T13:41:49Z</time>
      </trkpt>
      <trkpt lat="49.05881" lon="1.93408">
        <ele>50</ele>
        <time>2020-06-28T13:41:56Z</time>
      </trkpt>
      <trkpt lat="49.05872" lon="1.93413">
        <ele>50</ele>
        <time>2020-06-28T13:42:02Z</time>
      </trkpt>
      <trkpt lat="49.05863" lon="1.93419">
        <ele>53</ele>
        <time>2020-06-28T13:42:08Z</time>
      </trkpt>
      <trkpt lat="49.05854" lon="1.93424">
        <ele>52</ele>
        <time>2020-06-28T13:42:14Z</time>
      </trkpt>
      <trkpt lat="49.05845" lon="1.9343">
        <ele>52</ele>
        <time>2020-06-28T13:42:20Z</time>
      </trkpt>
      <trkpt lat="49.05836" lon="1.93438">
        <ele>52</ele>
        <time>2020-06-28T13:42:26Z</time>
      </trkpt>
      <trkpt lat="49.05827" lon="1.93446">
        <ele>51</ele>
        <time>2020-06-28T13:42:32Z</time>
      </trkpt>
      <trkpt lat="49.05818" lon="1.93451">
        <ele>51</ele>
        <time>2020-06-28T13:42:38Z</time>
      </trkpt>
      <trkpt lat="49.05811" lon="1.93462">
        <ele>51</ele>
        <time>2020-06-28T13:42:54Z</time>
      </trkpt>
      <trkpt lat="49.05802" lon="1.93469">
        <ele>51</ele>
        <time>2020-06-28T13:43:01Z</time>
      </trkpt>
      <trkpt lat="49.05793" lon="1.93478">
        <ele>51</ele>
        <time>2020-06-28T13:43:07Z</time>
      </trkpt>
      <trkpt lat="49.05784" lon="1.93488">
        <ele>51</ele>
        <time>2020-06-28T13:43:13Z</time>
      </trkpt>
      <trkpt lat="49.05775" lon="1.93494">
        <ele>51</ele>
        <time>2020-06-28T13:43:20Z</time>
      </trkpt>
      <trkpt lat="49.05765" lon="1.93499">
        <ele>50</ele>
        <time>2020-06-28T13:43:28Z</time>
      </trkpt>
      <trkpt lat="49.05757" lon="1.93506">
        <ele>52</ele>
        <time>2020-06-28T13:43:40Z</time>
      </trkpt>
      <trkpt lat="49.05747" lon="1.93509">
        <ele>50</ele>
        <time>2020-06-28T13:43:49Z</time>
      </trkpt>
      <trkpt lat="49.05738" lon="1.93515">
        <ele>51</ele>
        <time>2020-06-28T13:44:00Z</time>
      </trkpt>
      <trkpt lat="49.0573" lon="1.9352">
        <ele>51</ele>
        <time>2020-06-28T13:44:08Z</time>
      </trkpt>
      <trkpt lat="49.05721" lon="1.93525">
        <ele>51</ele>
        <time>2020-06-28T13:44:22Z</time>
      </trkpt>
      <trkpt lat="49.0571" lon="1.93531">
        <ele>51</ele>
        <time>2020-06-28T13:44:30Z</time>
      </trkpt>
      <trkpt lat="49.05701" lon="1.93542">
        <ele>51</ele>
        <time>2020-06-28T13:44:36Z</time>
      </trkpt>
      <trkpt lat="49.05692" lon="1.93551">
        <ele>50</ele>
        <time>2020-06-28T13:44:41Z</time>
      </trkpt>
      <trkpt lat="49.05683" lon="1.93561">
        <ele>50</ele>
        <time>2020-06-28T13:44:47Z</time>
      </trkpt>
      <trkpt lat="49.05675" lon="1.93569">
        <ele>50</ele>
        <time>2020-06-28T13:44:53Z</time>
      </trkpt>
      <trkpt lat="49.05667" lon="1.93581">
        <ele>49</ele>
        <time>2020-06-28T13:45:00Z</time>
      </trkpt>
      <trkpt lat="49.05656" lon="1.93608">
        <ele>50</ele>
        <time>2020-06-28T13:45:05Z</time>
      </trkpt>
      <trkpt lat="49.05648" lon="1.93617">
        <ele>50</ele>
        <time>2020-06-28T13:45:12Z</time>
      </trkpt>
      <trkpt lat="49.05639" lon="1.93624">
        <ele>50</ele>
        <time>2020-06-28T13:45:20Z</time>
      </trkpt>
      <trkpt lat="49.05632" lon="1.93635">
        <ele>51</ele>
        <time>2020-06-28T13:45:26Z</time>
      </trkpt>
      <trkpt lat="49.05625" lon="1.93646">
        <ele>51</ele>
        <time>2020-06-28T13:45:32Z</time>
      </trkpt>
      <trkpt lat="49.05619" lon="1.93657">
        <ele>50</ele>
        <time>2020-06-28T13:45:38Z</time>
      </trkpt>
      <trkpt lat="49.05613" lon="1.93669">
        <ele>52</ele>
        <time>2020-06-28T13:45:45Z</time>
      </trkpt>
      <trkpt lat="49.05607" lon="1.9368">
        <ele>52</ele>
        <time>2020-06-28T13:45:52Z</time>
      </trkpt>
      <trkpt lat="49.05599" lon="1.93692">
        <ele>52</ele>
        <time>2020-06-28T13:45:59Z</time>
      </trkpt>
      <trkpt lat="49.05591" lon="1.93704">
        <ele>52</ele>
        <time>2020-06-28T13:46:07Z</time>
      </trkpt>
      <trkpt lat="49.05584" lon="1.93716">
        <ele>52</ele>
        <time>2020-06-28T13:46:19Z</time>
      </trkpt>
      <trkpt lat="49.05576" lon="1.93725">
        <ele>50</ele>
        <time>2020-06-28T13:46:31Z</time>
      </trkpt>
      <trkpt lat="49.05569" lon="1.93735">
        <ele>50</ele>
        <time>2020-06-28T13:46:37Z</time>
      </trkpt>
      <trkpt lat="49.05563" lon="1.93748">
        <ele>50</ele>
        <time>2020-06-28T13:46:42Z</time>
      </trkpt>
      <trkpt lat="49.05558" lon="1.93762">
        <ele>50</ele>
        <time>2020-06-28T13:46:50Z</time>
      </trkpt>
      <trkpt lat="49.05553" lon="1.93775">
        <ele>50</ele>
        <time>2020-06-28T13:46:57Z</time>
      </trkpt>
      <trkpt lat="49.05549" lon="1.93789">
        <ele>50</ele>
        <time>2020-06-28T13:47:03Z</time>
      </trkpt>
      <trkpt lat="49.05542" lon="1.93799">
        <ele>50</ele>
        <time>2020-06-28T13:47:10Z</time>
      </trkpt>
      <trkpt lat="49.05534" lon="1.93811">
        <ele>50</ele>
        <time>2020-06-28T13:47:17Z</time>
      </trkpt>
      <trkpt lat="49.05528" lon="1.93823">
        <ele>50</ele>
        <time>2020-06-28T13:47:22Z</time>
      </trkpt>
      <trkpt lat="49.05521" lon="1.93835">
        <ele>50</ele>
        <time>2020-06-28T13:47:29Z</time>
      </trkpt>
      <trkpt lat="49.05514" lon="1.93847">
        <ele>50</ele>
        <time>2020-06-28T13:47:38Z</time>
      </trkpt>
      <trkpt lat="49.05508" lon="1.93861">
        <ele>50</ele>
        <time>2020-06-28T13:47:45Z</time>
      </trkpt>
      <trkpt lat="49.05503" lon="1.93875">
        <ele>50</ele>
        <time>2020-06-28T13:47:54Z</time>
      </trkpt>
      <trkpt lat="49.05497" lon="1.93885">
        <ele>48</ele>
        <time>2020-06-28T13:48:07Z</time>
      </trkpt>
      <trkpt lat="49.05492" lon="1.939">
        <ele>48</ele>
        <time>2020-06-28T13:48:15Z</time>
      </trkpt>
      <trkpt lat="49.05487" lon="1.93917">
        <ele>48</ele>
        <time>2020-06-28T13:48:21Z</time>
      </trkpt>
      <trkpt lat="49.05483" lon="1.93932">
        <ele>48</ele>
        <time>2020-06-28T13:48:27Z</time>
      </trkpt>
      <trkpt lat="49.05476" lon="1.93946">
        <ele>48</ele>
        <time>2020-06-28T13:48:33Z</time>
      </trkpt>
      <trkpt lat="49.05469" lon="1.93959">
        <ele>47</ele>
        <time>2020-06-28T13:48:39Z</time>
      </trkpt>
      <trkpt lat="49.05464" lon="1.93973">
        <ele>47</ele>
        <time>2020-06-28T13:48:45Z</time>
      </trkpt>
      <trkpt lat="49.0546" lon="1.93987">
        <ele>47</ele>
        <time>2020-06-28T13:48:51Z</time>
      </trkpt>
      <trkpt lat="49.0546" lon="1.94001">
        <ele>48</ele>
        <time>2020-06-28T13:49:00Z</time>
      </trkpt>
      <trkpt lat="49.05455" lon="1.94014">
        <ele>48</ele>
        <time>2020-06-28T13:49:09Z</time>
      </trkpt>
      <trkpt lat="49.05447" lon="1.94022">
        <ele>48</ele>
        <time>2020-06-28T13:49:17Z</time>
      </trkpt>
      <trkpt lat="49.05438" lon="1.94027">
        <ele>48</ele>
        <time>2020-06-28T13:49:25Z</time>
      </trkpt>
      <trkpt lat="49.05428" lon="1.94028">
        <ele>48</ele>
        <time>2020-06-28T13:49:34Z</time>
      </trkpt>
      <trkpt lat="49.05418" lon="1.94027">
        <ele>48</ele>
        <time>2020-06-28T13:49:41Z</time>
      </trkpt>
      <trkpt lat="49.05409" lon="1.94028">
        <ele>48</ele>
        <time>2020-06-28T13:49:49Z</time>
      </trkpt>
      <trkpt lat="49.05398" lon="1.94029">
        <ele>48</ele>
        <time>2020-06-28T13:49:58Z</time>
      </trkpt>
      <trkpt lat="49.0539" lon="1.94023">
        <ele>48</ele>
        <time>2020-06-28T13:50:09Z</time>
      </trkpt>
      <trkpt lat="49.05381" lon="1.94032">
        <ele>48</ele>
        <time>2020-06-28T13:50:34Z</time>
      </trkpt>
      <trkpt lat="49.05376" lon="1.9402">
        <ele>48</ele>
        <time>2020-06-28T13:53:28Z</time>
      </trkpt>
      <trkpt lat="49.05387" lon="1.94012">
        <ele>48</ele>
        <time>2020-06-28T14:06:21Z</time>
      </trkpt>
      <trkpt lat="49.05396" lon="1.94016">
        <ele>48</ele>
        <time>2020-06-28T14:06:30Z</time>
      </trkpt>
      <trkpt lat="49.05405" lon="1.94026">
        <ele>48</ele>
        <time>2020-06-28T14:06:40Z</time>
      </trkpt>
      <trkpt lat="49.05415" lon="1.94034">
        <ele>48</ele>
        <time>2020-06-28T14:06:50Z</time>
      </trkpt>
      <trkpt lat="49.05424" lon="1.94038">
        <ele>48</ele>
        <time>2020-06-28T14:07:00Z</time>
      </trkpt>
      <trkpt lat="49.05427" lon="1.94055">
        <ele>48</ele>
        <time>2020-06-28T14:07:18Z</time>
      </trkpt>
      <trkpt lat="49.05421" lon="1.94068">
        <ele>48</ele>
        <time>2020-06-28T14:07:25Z</time>
      </trkpt>
      <trkpt lat="49.05416" lon="1.94082">
        <ele>48</ele>
        <time>2020-06-28T14:07:34Z</time>
      </trkpt>
      <trkpt lat="49.05412" lon="1.94097">
        <ele>48</ele>
        <time>2020-06-28T14:07:44Z</time>
      </trkpt>
      <trkpt lat="49.05408" lon="1.94111">
        <ele>48</ele>
        <time>2020-06-28T14:07:52Z</time>
      </trkpt>
      <trkpt lat="49.05406" lon="1.94125">
        <ele>48</ele>
        <time>2020-06-28T14:08:00Z</time>
      </trkpt>
      <trkpt lat="49.05404" lon="1.94143">
        <ele>48</ele>
        <time>2020-06-28T14:08:07Z</time>
      </trkpt>
      <trkpt lat="49.05401" lon="1.94159">
        <ele>49</ele>
        <time>2020-06-28T14:08:15Z</time>
      </trkpt>
      <trkpt lat="49.05397" lon="1.94176">
        <ele>49</ele>
        <time>2020-06-28T14:08:23Z</time>
      </trkpt>
      <trkpt lat="49.05395" lon="1.94193">
        <ele>49</ele>
        <time>2020-06-28T14:08:31Z</time>
      </trkpt>
      <trkpt lat="49.05393" lon="1.94209">
        <ele>49</ele>
        <time>2020-06-28T14:08:37Z</time>
      </trkpt>
      <trkpt lat="49.0539" lon="1.94223">
        <ele>49</ele>
        <time>2020-06-28T14:08:44Z</time>
      </trkpt>
      <trkpt lat="49.05386" lon="1.94238">
        <ele>49</ele>
        <time>2020-06-28T14:08:52Z</time>
      </trkpt>
      <trkpt lat="49.05384" lon="1.94253">
        <ele>49</ele>
        <time>2020-06-28T14:09:00Z</time>
      </trkpt>
      <trkpt lat="49.05381" lon="1.94267">
        <ele>49</ele>
        <time>2020-06-28T14:09:08Z</time>
      </trkpt>
      <trkpt lat="49.05378" lon="1.94283">
        <ele>49</ele>
        <time>2020-06-28T14:09:16Z</time>
      </trkpt>
      <trkpt lat="49.05376" lon="1.94299">
        <ele>49</ele>
        <time>2020-06-28T14:09:24Z</time>
      </trkpt>
      <trkpt lat="49.05376" lon="1.94314">
        <ele>49</ele>
        <time>2020-06-28T14:09:32Z</time>
      </trkpt>
      <trkpt lat="49.05372" lon="1.94328">
        <ele>49</ele>
        <time>2020-06-28T14:09:39Z</time>
      </trkpt>
      <trkpt lat="49.05369" lon="1.94345">
        <ele>49</ele>
        <time>2020-06-28T14:09:47Z</time>
      </trkpt>
      <trkpt lat="49.05366" lon="1.94358">
        <ele>49</ele>
        <time>2020-06-28T14:09:55Z</time>
      </trkpt>
      <trkpt lat="49.05362" lon="1.94373">
        <ele>49</ele>
        <time>2020-06-28T14:10:03Z</time>
      </trkpt>
      <trkpt lat="49.0536" lon="1.94388">
        <ele>49</ele>
        <time>2020-06-28T14:10:11Z</time>
      </trkpt>
      <trkpt lat="49.05357" lon="1.94402">
        <ele>49</ele>
        <time>2020-06-28T14:10:17Z</time>
      </trkpt>
      <trkpt lat="49.05349" lon="1.94412">
        <ele>49</ele>
        <time>2020-06-28T14:10:26Z</time>
      </trkpt>
      <trkpt lat="49.05343" lon="1.94425">
        <ele>49</ele>
        <time>2020-06-28T14:10:34Z</time>
      </trkpt>
      <trkpt lat="49.05337" lon="1.94436">
        <ele>49</ele>
        <time>2020-06-28T14:10:42Z</time>
      </trkpt>
      <trkpt lat="49.05331" lon="1.9445">
        <ele>49</ele>
        <time>2020-06-28T14:10:49Z</time>
      </trkpt>
      <trkpt lat="49.05324" lon="1.94463">
        <ele>49</ele>
        <time>2020-06-28T14:10:57Z</time>
      </trkpt>
      <trkpt lat="49.05317" lon="1.94476">
        <ele>49</ele>
        <time>2020-06-28T14:11:05Z</time>
      </trkpt>
      <trkpt lat="49.05313" lon="1.94488">
        <ele>49</ele>
        <time>2020-06-28T14:11:12Z</time>
      </trkpt>
      <trkpt lat="49.05305" lon="1.945">
        <ele>49</ele>
        <time>2020-06-28T14:11:21Z</time>
      </trkpt>
      <trkpt lat="49.053" lon="1.94514">
        <ele>50</ele>
        <time>2020-06-28T14:11:29Z</time>
      </trkpt>
      <trkpt lat="49.05293" lon="1.94526">
        <ele>50</ele>
        <time>2020-06-28T14:11:36Z</time>
      </trkpt>
      <trkpt lat="49.05288" lon="1.9454">
        <ele>50</ele>
        <time>2020-06-28T14:11:43Z</time>
      </trkpt>
      <trkpt lat="49.05281" lon="1.9455">
        <ele>50</ele>
        <time>2020-06-28T14:11:51Z</time>
      </trkpt>
      <trkpt lat="49.05275" lon="1.94561">
        <ele>50</ele>
        <time>2020-06-28T14:12:00Z</time>
      </trkpt>
      <trkpt lat="49.05269" lon="1.94575">
        <ele>50</ele>
        <time>2020-06-28T14:12:08Z</time>
      </trkpt>
      <trkpt lat="49.05262" lon="1.94588">
        <ele>51</ele>
        <time>2020-06-28T14:12:17Z</time>
      </trkpt>
      <trkpt lat="49.05257" lon="1.94601">
        <ele>51</ele>
        <time>2020-06-28T14:12:24Z</time>
      </trkpt>
      <trkpt lat="49.0525" lon="1.94614">
        <ele>51</ele>
        <time>2020-06-28T14:12:30Z</time>
      </trkpt>
      <trkpt lat="49.05245" lon="1.94627">
        <ele>50</ele>
        <time>2020-06-28T14:12:38Z</time>
      </trkpt>
      <trkpt lat="49.05237" lon="1.94638">
        <ele>49</ele>
        <time>2020-06-28T14:12:46Z</time>
      </trkpt>
      <trkpt lat="49.05231" lon="1.9465">
        <ele>49</ele>
        <time>2020-06-28T14:12:55Z</time>
      </trkpt>
      <trkpt lat="49.05225" lon="1.94664">
        <ele>49</ele>
        <time>2020-06-28T14:13:03Z</time>
      </trkpt>
      <trkpt lat="49.0522" lon="1.94676">
        <ele>49</ele>
        <time>2020-06-28T14:13:09Z</time>
      </trkpt>
      <trkpt lat="49.05215" lon="1.94689">
        <ele>49</ele>
        <time>2020-06-28T14:13:17Z</time>
      </trkpt>
      <trkpt lat="49.05207" lon="1.94701">
        <ele>49</ele>
        <time>2020-06-28T14:13:26Z</time>
      </trkpt>
      <trkpt lat="49.052" lon="1.9471">
        <ele>49</ele>
        <time>2020-06-28T14:13:32Z</time>
      </trkpt>
      <trkpt lat="49.05193" lon="1.94721">
        <ele>49</ele>
        <time>2020-06-28T14:13:39Z</time>
      </trkpt>
      <trkpt lat="49.05186" lon="1.94731">
        <ele>48</ele>
        <time>2020-06-28T14:13:46Z</time>
      </trkpt>
      <trkpt lat="49.05177" lon="1.9474">
        <ele>48</ele>
        <time>2020-06-28T14:13:54Z</time>
      </trkpt>
      <trkpt lat="49.05168" lon="1.94749">
        <ele>47</ele>
        <time>2020-06-28T14:14:02Z</time>
      </trkpt>
      <trkpt lat="49.0516" lon="1.94761">
        <ele>47</ele>
        <time>2020-06-28T14:14:08Z</time>
      </trkpt>
      <trkpt lat="49.05151" lon="1.9477">
        <ele>46</ele>
        <time>2020-06-28T14:14:17Z</time>
      </trkpt>
      <trkpt lat="49.05144" lon="1.94777">
        <ele>46</ele>
        <time>2020-06-28T14:14:24Z</time>
      </trkpt>
      <trkpt lat="49.05134" lon="1.94786">
        <ele>46</ele>
        <time>2020-06-28T14:14:31Z</time>
      </trkpt>
      <trkpt lat="49.05127" lon="1.94796">
        <ele>46</ele>
        <time>2020-06-28T14:14:38Z</time>
      </trkpt>
      <trkpt lat="49.0512" lon="1.94808">
        <ele>46</ele>
        <time>2020-06-28T14:14:45Z</time>
      </trkpt>
      <trkpt lat="49.05114" lon="1.94821">
        <ele>46</ele>
        <time>2020-06-28T14:14:51Z</time>
      </trkpt>
      <trkpt lat="49.05108" lon="1.94834">
        <ele>46</ele>
        <time>2020-06-28T14:14:57Z</time>
      </trkpt>
      <trkpt lat="49.051" lon="1.94846">
        <ele>46</ele>
        <time>2020-06-28T14:15:05Z</time>
      </trkpt>
      <trkpt lat="49.05094" lon="1.94857">
        <ele>46</ele>
        <time>2020-06-28T14:15:13Z</time>
      </trkpt>
      <trkpt lat="49.05087" lon="1.94867">
        <ele>46</ele>
        <time>2020-06-28T14:15:21Z</time>
      </trkpt>
      <trkpt lat="49.05075" lon="1.94865">
        <ele>46</ele>
        <time>2020-06-28T14:15:33Z</time>
      </trkpt>
      <trkpt lat="49.05067" lon="1.94855">
        <ele>46</ele>
        <time>2020-06-28T14:15:42Z</time>
      </trkpt>
      <trkpt lat="49.05057" lon="1.94849">
        <ele>47</ele>
        <time>2020-06-28T14:15:51Z</time>
      </trkpt>
      <trkpt lat="49.05049" lon="1.94857">
        <ele>47</ele>
        <time>2020-06-28T14:16:09Z</time>
      </trkpt>
      <trkpt lat="49.0504" lon="1.94866">
        <ele>47</ele>
        <time>2020-06-28T14:16:17Z</time>
      </trkpt>
      <trkpt lat="49.05031" lon="1.94871">
        <ele>47</ele>
        <time>2020-06-28T14:16:25Z</time>
      </trkpt>
      <trkpt lat="49.05021" lon="1.94879">
        <ele>47</ele>
        <time>2020-06-28T14:16:33Z</time>
      </trkpt>
      <trkpt lat="49.05012" lon="1.94888">
        <ele>47</ele>
        <time>2020-06-28T14:16:41Z</time>
      </trkpt>
      <trkpt lat="49.05004" lon="1.94897">
        <ele>47</ele>
        <time>2020-06-28T14:16:48Z</time>
      </trkpt>
      <trkpt lat="49.04995" lon="1.94905">
        <ele>48</ele>
        <time>2020-06-28T14:16:55Z</time>
      </trkpt>
      <trkpt lat="49.04985" lon="1.94909">
        <ele>48</ele>
        <time>2020-06-28T14:17:04Z</time>
      </trkpt>
      <trkpt lat="49.04977" lon="1.9492">
        <ele>47</ele>
        <time>2020-06-28T14:17:14Z</time>
      </trkpt>
      <trkpt lat="49.04971" lon="1.94933">
        <ele>47</ele>
        <time>2020-06-28T14:17:21Z</time>
      </trkpt>
      <trkpt lat="49.04964" lon="1.94944">
        <ele>47</ele>
        <time>2020-06-28T14:17:28Z</time>
      </trkpt>
      <trkpt lat="49.04955" lon="1.94954">
        <ele>47</ele>
        <time>2020-06-28T14:17:35Z</time>
      </trkpt>
      <trkpt lat="49.04947" lon="1.94963">
        <ele>47</ele>
        <time>2020-06-28T14:17:44Z</time>
      </trkpt>
      <trkpt lat="49.04938" lon="1.94967">
        <ele>47</ele>
        <time>2020-06-28T14:17:54Z</time>
      </trkpt>
      <trkpt lat="49.04931" lon="1.94977">
        <ele>47</ele>
        <time>2020-06-28T14:18:01Z</time>
      </trkpt>
      <trkpt lat="49.04922" lon="1.94987">
        <ele>46</ele>
        <time>2020-06-28T14:18:09Z</time>
      </trkpt>
      <trkpt lat="49.04916" lon="1.94998">
        <ele>46</ele>
        <time>2020-06-28T14:18:15Z</time>
      </trkpt>
      <trkpt lat="49.04909" lon="1.95008">
        <ele>46</ele>
        <time>2020-06-28T14:18:21Z</time>
      </trkpt>
      <trkpt lat="49.04901" lon="1.95017">
        <ele>46</ele>
        <time>2020-06-28T14:18:27Z</time>
      </trkpt>
      <trkpt lat="49.04894" lon="1.95026">
        <ele>45</ele>
        <time>2020-06-28T14:18:34Z</time>
      </trkpt>
      <trkpt lat="49.04886" lon="1.95034">
        <ele>45</ele>
        <time>2020-06-28T14:18:41Z</time>
      </trkpt>
      <trkpt lat="49.04879" lon="1.95045">
        <ele>45</ele>
        <time>2020-06-28T14:18:49Z</time>
      </trkpt>
      <trkpt lat="49.04869" lon="1.95052">
        <ele>45</ele>
        <time>2020-06-28T14:18:57Z</time>
      </trkpt>
      <trkpt lat="49.04861" lon="1.95061">
        <ele>45</ele>
        <time>2020-06-28T14:19:07Z</time>
      </trkpt>
      <trkpt lat="49.04854" lon="1.95071">
        <ele>45</ele>
        <time>2020-06-28T14:19:16Z</time>
      </trkpt>
      <trkpt lat="49.04844" lon="1.95082">
        <ele>45</ele>
        <time>2020-06-28T14:19:24Z</time>
      </trkpt>
      <trkpt lat="49.04835" lon="1.9509">
        <ele>45</ele>
        <time>2020-06-28T14:19:31Z</time>
      </trkpt>
      <trkpt lat="49.04827" lon="1.95102">
        <ele>45</ele>
        <time>2020-06-28T14:19:38Z</time>
      </trkpt>
      <trkpt lat="49.04819" lon="1.95109">
        <ele>45</ele>
        <time>2020-06-28T14:19:45Z</time>
      </trkpt>
      <trkpt lat="49.0481" lon="1.95113">
        <ele>45</ele>
        <time>2020-06-28T14:19:51Z</time>
      </trkpt>
      <trkpt lat="49.048" lon="1.95115">
        <ele>45</ele>
        <time>2020-06-28T14:19:59Z</time>
      </trkpt>
      <trkpt lat="49.0479" lon="1.95115">
        <ele>45</ele>
        <time>2020-06-28T14:20:07Z</time>
      </trkpt>
      <trkpt lat="49.0478" lon="1.9511">
        <ele>45</ele>
        <time>2020-06-28T14:20:16Z</time>
      </trkpt>
      <trkpt lat="49.04771" lon="1.95103">
        <ele>45</ele>
        <time>2020-06-28T14:20:24Z</time>
      </trkpt>
      <trkpt lat="49.0476" lon="1.95103">
        <ele>45</ele>
        <time>2020-06-28T14:20:31Z</time>
      </trkpt>
      <trkpt lat="49.04751" lon="1.95103">
        <ele>44</ele>
        <time>2020-06-28T14:20:37Z</time>
      </trkpt>
      <trkpt lat="49.0474" lon="1.95102">
        <ele>45</ele>
        <time>2020-06-28T14:20:44Z</time>
      </trkpt>
      <trkpt lat="49.0473" lon="1.95104">
        <ele>45</ele>
        <time>2020-06-28T14:20:52Z</time>
      </trkpt>
      <trkpt lat="49.0472" lon="1.95103">
        <ele>45</ele>
        <time>2020-06-28T14:21:01Z</time>
      </trkpt>
      <trkpt lat="49.0471" lon="1.951">
        <ele>45</ele>
        <time>2020-06-28T14:21:09Z</time>
      </trkpt>
      <trkpt lat="49.04699" lon="1.95099">
        <ele>45</ele>
        <time>2020-06-28T14:21:16Z</time>
      </trkpt>
      <trkpt lat="49.04689" lon="1.95098">
        <ele>45</ele>
        <time>2020-06-28T14:21:23Z</time>
      </trkpt>
      <trkpt lat="49.04679" lon="1.95101">
        <ele>46</ele>
        <time>2020-06-28T14:21:32Z</time>
      </trkpt>
      <trkpt lat="49.04669" lon="1.95096">
        <ele>46</ele>
        <time>2020-06-28T14:21:41Z</time>
      </trkpt>
      <trkpt lat="49.0466" lon="1.95091">
        <ele>47</ele>
        <time>2020-06-28T14:21:49Z</time>
      </trkpt>
      <trkpt lat="49.0465" lon="1.95083">
        <ele>46</ele>
        <time>2020-06-28T14:21:57Z</time>
      </trkpt>
      <trkpt lat="49.0464" lon="1.95076">
        <ele>46</ele>
        <time>2020-06-28T14:22:05Z</time>
      </trkpt>
      <trkpt lat="49.04632" lon="1.95069">
        <ele>46</ele>
        <time>2020-06-28T14:22:13Z</time>
      </trkpt>
      <trkpt lat="49.04622" lon="1.95066">
        <ele>46</ele>
        <time>2020-06-28T14:22:19Z</time>
      </trkpt>
      <trkpt lat="49.04612" lon="1.9506">
        <ele>46</ele>
        <time>2020-06-28T14:22:26Z</time>
      </trkpt>
      <trkpt lat="49.04603" lon="1.95055">
        <ele>46</ele>
        <time>2020-06-28T14:22:32Z</time>
      </trkpt>
      <trkpt lat="49.04595" lon="1.95048">
        <ele>46</ele>
        <time>2020-06-28T14:22:39Z</time>
      </trkpt>
      <trkpt lat="49.04585" lon="1.95042">
        <ele>46</ele>
        <time>2020-06-28T14:22:47Z</time>
      </trkpt>
      <trkpt lat="49.04575" lon="1.95036">
        <ele>47</ele>
        <time>2020-06-28T14:22:55Z</time>
      </trkpt>
      <trkpt lat="49.04566" lon="1.95029">
        <ele>47</ele>
        <time>2020-06-28T14:23:03Z</time>
      </trkpt>
      <trkpt lat="49.04558" lon="1.95023">
        <ele>47</ele>
        <time>2020-06-28T14:23:11Z</time>
      </trkpt>
      <trkpt lat="49.0455" lon="1.95012">
        <ele>47</ele>
        <time>2020-06-28T14:23:21Z</time>
      </trkpt>
      <trkpt lat="49.04554" lon="1.95029">
        <ele>47</ele>
        <time>2020-06-28T14:24:07Z</time>
      </trkpt>
      <trkpt lat="49.04558" lon="1.95044">
        <ele>47</ele>
        <time>2020-06-28T14:24:15Z</time>
      </trkpt>
      <trkpt lat="49.04563" lon="1.95059">
        <ele>48</ele>
        <time>2020-06-28T14:24:23Z</time>
      </trkpt>
      <trkpt lat="49.04567" lon="1.95074">
        <ele>48</ele>
        <time>2020-06-28T14:24:31Z</time>
      </trkpt>
      <trkpt lat="49.04571" lon="1.95088">
        <ele>49</ele>
        <time>2020-06-28T14:24:38Z</time>
      </trkpt>
      <trkpt lat="49.04574" lon="1.95103">
        <ele>50</ele>
        <time>2020-06-28T14:24:45Z</time>
      </trkpt>
      <trkpt lat="49.04579" lon="1.95116">
        <ele>50</ele>
        <time>2020-06-28T14:24:51Z</time>
      </trkpt>
      <trkpt lat="49.04584" lon="1.9513">
        <ele>49</ele>
        <time>2020-06-28T14:24:59Z</time>
      </trkpt>
      <trkpt lat="49.0459" lon="1.95143">
        <ele>49</ele>
        <time>2020-06-28T14:25:07Z</time>
      </trkpt>
      <trkpt lat="49.04597" lon="1.95154">
        <ele>49</ele>
        <time>2020-06-28T14:25:16Z</time>
      </trkpt>
      <trkpt lat="49.04606" lon="1.95163">
        <ele>49</ele>
        <time>2020-06-28T14:25:24Z</time>
      </trkpt>
      <trkpt lat="49.04614" lon="1.95175">
        <ele>50</ele>
        <time>2020-06-28T14:25:32Z</time>
      </trkpt>
      <trkpt lat="49.04621" lon="1.95186">
        <ele>49</ele>
        <time>2020-06-28T14:25:40Z</time>
      </trkpt>
      <trkpt lat="49.04627" lon="1.95199">
        <ele>49</ele>
        <time>2020-06-28T14:25:48Z</time>
      </trkpt>
      <trkpt lat="49.04634" lon="1.9521">
        <ele>49</ele>
        <time>2020-06-28T14:25:55Z</time>
      </trkpt>
      <trkpt lat="49.04641" lon="1.95222">
        <ele>49</ele>
        <time>2020-06-28T14:26:03Z</time>
      </trkpt>
      <trkpt lat="49.04649" lon="1.95232">
        <ele>49</ele>
        <time>2020-06-28T14:26:11Z</time>
      </trkpt>
      <trkpt lat="49.04659" lon="1.95239">
        <ele>49</ele>
        <time>2020-06-28T14:26:18Z</time>
      </trkpt>
      <trkpt lat="49.04668" lon="1.95247">
        <ele>48</ele>
        <time>2020-06-28T14:26:27Z</time>
      </trkpt>
      <trkpt lat="49.04673" lon="1.95258">
        <ele>48</ele>
        <time>2020-06-28T14:26:35Z</time>
      </trkpt>
      <trkpt lat="49.04664" lon="1.95272">
        <ele>49</ele>
        <time>2020-06-28T14:26:53Z</time>
      </trkpt>
      <trkpt lat="49.04655" lon="1.9528">
        <ele>50</ele>
        <time>2020-06-28T14:27:03Z</time>
      </trkpt>
      <trkpt lat="49.04644" lon="1.95284">
        <ele>50</ele>
        <time>2020-06-28T14:27:12Z</time>
      </trkpt>
      <trkpt lat="49.04634" lon="1.95288">
        <ele>50</ele>
        <time>2020-06-28T14:27:20Z</time>
      </trkpt>
      <trkpt lat="49.04624" lon="1.9529">
        <ele>51</ele>
        <time>2020-06-28T14:27:28Z</time>
      </trkpt>
      <trkpt lat="49.04615" lon="1.95292">
        <ele>51</ele>
        <time>2020-06-28T14:27:36Z</time>
      </trkpt>
      <trkpt lat="49.04605" lon="1.95293">
        <ele>51</ele>
        <time>2020-06-28T14:27:43Z</time>
      </trkpt>
      <trkpt lat="49.04594" lon="1.95295">
        <ele>52</ele>
        <time>2020-06-28T14:27:51Z</time>
      </trkpt>
      <trkpt lat="49.04584" lon="1.95297">
        <ele>52</ele>
        <time>2020-06-28T14:27:59Z</time>
      </trkpt>
      <trkpt lat="49.04573" lon="1.95298">
        <ele>55</ele>
        <time>2020-06-28T14:28:07Z</time>
      </trkpt>
      <trkpt lat="49.04563" lon="1.95296">
        <ele>55</ele>
        <time>2020-06-28T14:28:16Z</time>
      </trkpt>
      <trkpt lat="49.04554" lon="1.95297">
        <ele>55</ele>
        <time>2020-06-28T14:28:22Z</time>
      </trkpt>
      <trkpt lat="49.04543" lon="1.953">
        <ele>55</ele>
        <time>2020-06-28T14:28:30Z</time>
      </trkpt>
      <trkpt lat="49.04534" lon="1.95303">
        <ele>56</ele>
        <time>2020-06-28T14:28:38Z</time>
      </trkpt>
      <trkpt lat="49.04524" lon="1.95305">
        <ele>56</ele>
        <time>2020-06-28T14:28:46Z</time>
      </trkpt>
      <trkpt lat="49.04514" lon="1.95304">
        <ele>56</ele>
        <time>2020-06-28T14:28:54Z</time>
      </trkpt>
      <trkpt lat="49.04504" lon="1.95305">
        <ele>56</ele>
        <time>2020-06-28T14:29:01Z</time>
      </trkpt>
      <trkpt lat="49.04494" lon="1.95301">
        <ele>58</ele>
        <time>2020-06-28T14:29:09Z</time>
      </trkpt>
      <trkpt lat="49.04486" lon="1.95294">
        <ele>58</ele>
        <time>2020-06-28T14:29:16Z</time>
      </trkpt>
      <trkpt lat="49.04477" lon="1.95287">
        <ele>57</ele>
        <time>2020-06-28T14:29:23Z</time>
      </trkpt>
      <trkpt lat="49.04468" lon="1.9528">
        <ele>57</ele>
        <time>2020-06-28T14:29:30Z</time>
      </trkpt>
      <trkpt lat="49.04457" lon="1.95278">
        <ele>57</ele>
        <time>2020-06-28T14:29:38Z</time>
      </trkpt>
      <trkpt lat="49.04446" lon="1.9528">
        <ele>57</ele>
        <time>2020-06-28T14:29:45Z</time>
      </trkpt>
      <trkpt lat="49.04437" lon="1.95278">
        <ele>57</ele>
        <time>2020-06-28T14:29:52Z</time>
      </trkpt>
      <trkpt lat="49.04427" lon="1.95275">
        <ele>57</ele>
        <time>2020-06-28T14:30:00Z</time>
      </trkpt>
      <trkpt lat="49.04417" lon="1.95272">
        <ele>57</ele>
        <time>2020-06-28T14:30:07Z</time>
      </trkpt>
      <trkpt lat="49.04406" lon="1.95271">
        <ele>56</ele>
        <time>2020-06-28T14:30:15Z</time>
      </trkpt>
      <trkpt lat="49.04396" lon="1.95271">
        <ele>56</ele>
        <time>2020-06-28T14:30:22Z</time>
      </trkpt>
      <trkpt lat="49.04386" lon="1.95268">
        <ele>56</ele>
        <time>2020-06-28T14:30:30Z</time>
      </trkpt>
      <trkpt lat="49.04377" lon="1.95265">
        <ele>56</ele>
        <time>2020-06-28T14:30:37Z</time>
      </trkpt>
      <trkpt lat="49.04367" lon="1.95263">
        <ele>55</ele>
        <time>2020-06-28T14:30:46Z</time>
      </trkpt>
      <trkpt lat="49.04358" lon="1.95263">
        <ele>55</ele>
        <time>2020-06-28T14:30:54Z</time>
      </trkpt>
      <trkpt lat="49.04348" lon="1.9526">
        <ele>55</ele>
        <time>2020-06-28T14:31:02Z</time>
      </trkpt>
      <trkpt lat="49.04338" lon="1.95261">
        <ele>55</ele>
        <time>2020-06-28T14:31:11Z</time>
      </trkpt>
      <trkpt lat="49.04329" lon="1.95261">
        <ele>54</ele>
        <time>2020-06-28T14:31:19Z</time>
      </trkpt>
      <trkpt lat="49.0432" lon="1.95263">
        <ele>54</ele>
        <time>2020-06-28T14:31:34Z</time>
      </trkpt>
      <trkpt lat="49.04311" lon="1.9527">
        <ele>54</ele>
        <time>2020-06-28T14:32:15Z</time>
      </trkpt>
      <trkpt lat="49.04302" lon="1.95277">
        <ele>54</ele>
        <time>2020-06-28T14:32:25Z</time>
      </trkpt>
      <trkpt lat="49.04293" lon="1.95273">
        <ele>54</ele>
        <time>2020-06-28T14:32:54Z</time>
      </trkpt>
      <trkpt lat="49.04283" lon="1.95276">
        <ele>54</ele>
        <time>2020-06-28T14:33:06Z</time>
      </trkpt>
      <trkpt lat="49.04275" lon="1.95283">
        <ele>54</ele>
        <time>2020-06-28T14:33:14Z</time>
      </trkpt>
      <trkpt lat="49.04266" lon="1.95291">
        <ele>54</ele>
        <time>2020-06-28T14:33:22Z</time>
      </trkpt>
      <trkpt lat="49.04258" lon="1.95297">
        <ele>54</ele>
        <time>2020-06-28T14:33:30Z</time>
      </trkpt>
      <trkpt lat="49.04249" lon="1.95305">
        <ele>58</ele>
        <time>2020-06-28T14:33:38Z</time>
      </trkpt>
      <trkpt lat="49.04239" lon="1.95309">
        <ele>58</ele>
        <time>2020-06-28T14:33:48Z</time>
      </trkpt>
      <trkpt lat="49.0423" lon="1.95315">
        <ele>58</ele>
        <time>2020-06-28T14:33:56Z</time>
      </trkpt>
      <trkpt lat="49.0422" lon="1.95322">
        <ele>59</ele>
        <time>2020-06-28T14:34:05Z</time>
      </trkpt>
      <trkpt lat="49.04211" lon="1.95333">
        <ele>59</ele>
        <time>2020-06-28T14:34:13Z</time>
      </trkpt>
      <trkpt lat="49.04202" lon="1.95338">
        <ele>62</ele>
        <time>2020-06-28T14:34:21Z</time>
      </trkpt>
      <trkpt lat="49.04193" lon="1.95343">
        <ele>62</ele>
        <time>2020-06-28T14:34:29Z</time>
      </trkpt>
      <trkpt lat="49.04184" lon="1.9535">
        <ele>63</ele>
        <time>2020-06-28T14:34:37Z</time>
      </trkpt>
      <trkpt lat="49.04175" lon="1.95356">
        <ele>63</ele>
        <time>2020-06-28T14:34:46Z</time>
      </trkpt>
      <trkpt lat="49.04165" lon="1.95358">
        <ele>71</ele>
        <time>2020-06-28T14:34:56Z</time>
      </trkpt>
      <trkpt lat="49.04156" lon="1.95362">
        <ele>72</ele>
        <time>2020-06-28T14:35:06Z</time>
      </trkpt>
      <trkpt lat="49.04147" lon="1.95369">
        <ele>73</ele>
        <time>2020-06-28T14:35:15Z</time>
      </trkpt>
      <trkpt lat="49.04138" lon="1.9538">
        <ele>74</ele>
        <time>2020-06-28T14:35:25Z</time>
      </trkpt>
      <trkpt lat="49.04129" lon="1.95389">
        <ele>75</ele>
        <time>2020-06-28T14:35:34Z</time>
      </trkpt>
      <trkpt lat="49.04123" lon="1.954">
        <ele>76</ele>
        <time>2020-06-28T14:35:47Z</time>
      </trkpt>
      <trkpt lat="49.04115" lon="1.95408">
        <ele>78</ele>
        <time>2020-06-28T14:35:55Z</time>
      </trkpt>
      <trkpt lat="49.04109" lon="1.95422">
        <ele>80</ele>
        <time>2020-06-28T14:36:05Z</time>
      </trkpt>
      <trkpt lat="49.04104" lon="1.95434">
        <ele>80</ele>
        <time>2020-06-28T14:36:14Z</time>
      </trkpt>
      <trkpt lat="49.04105" lon="1.95449">
        <ele>79</ele>
        <time>2020-06-28T14:36:23Z</time>
      </trkpt>
      <trkpt lat="49.04101" lon="1.95465">
        <ele>79</ele>
        <time>2020-06-28T14:36:33Z</time>
      </trkpt>
      <trkpt lat="49.04098" lon="1.95478">
        <ele>80</ele>
        <time>2020-06-28T14:36:42Z</time>
      </trkpt>
      <trkpt lat="49.04095" lon="1.95492">
        <ele>81</ele>
        <time>2020-06-28T14:36:52Z</time>
      </trkpt>
      <trkpt lat="49.04089" lon="1.95505">
        <ele>81</ele>
        <time>2020-06-28T14:37:01Z</time>
      </trkpt>
      <trkpt lat="49.04079" lon="1.95509">
        <ele>84</ele>
        <time>2020-06-28T14:37:10Z</time>
      </trkpt>
      <trkpt lat="49.0407" lon="1.95509">
        <ele>84</ele>
        <time>2020-06-28T14:37:25Z</time>
      </trkpt>
      <trkpt lat="49.0406" lon="1.9551">
        <ele>85</ele>
        <time>2020-06-28T14:37:38Z</time>
      </trkpt>
      <trkpt lat="49.0405" lon="1.95514">
        <ele>86</ele>
        <time>2020-06-28T14:37:47Z</time>
      </trkpt>
      <trkpt lat="49.0404" lon="1.95513">
        <ele>86</ele>
        <time>2020-06-28T14:37:56Z</time>
      </trkpt>
      <trkpt lat="49.04031" lon="1.95509">
        <ele>87</ele>
        <time>2020-06-28T14:38:05Z</time>
      </trkpt>
      <trkpt lat="49.04022" lon="1.95515">
        <ele>88</ele>
        <time>2020-06-28T14:38:19Z</time>
      </trkpt>
      <trkpt lat="49.04023" lon="1.95501">
        <ele>88</ele>
        <time>2020-06-28T14:39:03Z</time>
      </trkpt>
      <trkpt lat="49.04026" lon="1.95486">
        <ele>89</ele>
        <time>2020-06-28T14:39:12Z</time>
      </trkpt>
      <trkpt lat="49.0403" lon="1.95471">
        <ele>89</ele>
        <time>2020-06-28T14:39:19Z</time>
      </trkpt>
      <trkpt lat="49.04032" lon="1.95455">
        <ele>88</ele>
        <time>2020-06-28T14:39:28Z</time>
      </trkpt>
      <trkpt lat="49.04034" lon="1.95441">
        <ele>88</ele>
        <time>2020-06-28T14:39:37Z</time>
      </trkpt>
      <trkpt lat="49.04035" lon="1.95425">
        <ele>89</ele>
        <time>2020-06-28T14:39:43Z</time>
      </trkpt>
      <trkpt lat="49.04039" lon="1.95408">
        <ele>88</ele>
        <time>2020-06-28T14:39:52Z</time>
      </trkpt>
      <trkpt lat="49.04042" lon="1.95391">
        <ele>88</ele>
        <time>2020-06-28T14:40:00Z</time>
      </trkpt>
      <trkpt lat="49.04044" lon="1.95376">
        <ele>88</ele>
        <time>2020-06-28T14:40:09Z</time>
      </trkpt>
      <trkpt lat="49.04044" lon="1.9536">
        <ele>88</ele>
        <time>2020-06-28T14:40:16Z</time>
      </trkpt>
      <trkpt lat="49.04046" lon="1.95345">
        <ele>87</ele>
        <time>2020-06-28T14:40:24Z</time>
      </trkpt>
      <trkpt lat="49.04048" lon="1.9533">
        <ele>87</ele>
        <time>2020-06-28T14:40:39Z</time>
      </trkpt>
      <trkpt lat="49.04048" lon="1.95316">
        <ele>87</ele>
        <time>2020-06-28T14:40:50Z</time>
      </trkpt>
      <trkpt lat="49.04049" lon="1.95302">
        <ele>87</ele>
        <time>2020-06-28T14:41:03Z</time>
      </trkpt>
      <trkpt lat="49.04049" lon="1.95286">
        <ele>87</ele>
        <time>2020-06-28T14:41:13Z</time>
      </trkpt>
      <trkpt lat="49.04052" lon="1.95271">
        <ele>87</ele>
        <time>2020-06-28T14:41:23Z</time>
      </trkpt>
      <trkpt lat="49.04055" lon="1.95258">
        <ele>86</ele>
        <time>2020-06-28T14:42:33Z</time>
      </trkpt>
      <trkpt lat="49.04052" lon="1.95243">
        <ele>86</ele>
        <time>2020-06-28T14:42:42Z</time>
      </trkpt>
      <trkpt lat="49.04051" lon="1.95229">
        <ele>87</ele>
        <time>2020-06-28T14:42:51Z</time>
      </trkpt>
      <trkpt lat="49.04047" lon="1.95215">
        <ele>87</ele>
        <time>2020-06-28T14:43:02Z</time>
      </trkpt>
      <trkpt lat="49.04042" lon="1.95203">
        <ele>88</ele>
        <time>2020-06-28T14:43:13Z</time>
      </trkpt>
      <trkpt lat="49.04039" lon="1.95187">
        <ele>88</ele>
        <time>2020-06-28T14:43:25Z</time>
      </trkpt>
      <trkpt lat="49.04037" lon="1.95172">
        <ele>88</ele>
        <time>2020-06-28T14:43:35Z</time>
      </trkpt>
      <trkpt lat="49.04036" lon="1.95157">
        <ele>87</ele>
        <time>2020-06-28T14:43:41Z</time>
      </trkpt>
      <trkpt lat="49.04033" lon="1.9514">
        <ele>87</ele>
        <time>2020-06-28T14:43:49Z</time>
      </trkpt>
      <trkpt lat="49.04033" lon="1.95126">
        <ele>87</ele>
        <time>2020-06-28T14:43:57Z</time>
      </trkpt>
      <trkpt lat="49.04031" lon="1.95112">
        <ele>87</ele>
        <time>2020-06-28T14:44:05Z</time>
      </trkpt>
      <trkpt lat="49.04032" lon="1.95097">
        <ele>87</ele>
        <time>2020-06-28T14:44:13Z</time>
      </trkpt>
      <trkpt lat="49.04034" lon="1.95083">
        <ele>85</ele>
        <time>2020-06-28T14:44:22Z</time>
      </trkpt>
      <trkpt lat="49.0404" lon="1.9507">
        <ele>84</ele>
        <time>2020-06-28T14:44:30Z</time>
      </trkpt>
      <trkpt lat="49.04047" lon="1.95058">
        <ele>83</ele>
        <time>2020-06-28T14:44:40Z</time>
      </trkpt>
      <trkpt lat="49.04048" lon="1.95044">
        <ele>82</ele>
        <time>2020-06-28T14:44:48Z</time>
      </trkpt>
      <trkpt lat="49.0405" lon="1.95028">
        <ele>81</ele>
        <time>2020-06-28T14:44:57Z</time>
      </trkpt>
      <trkpt lat="49.0405" lon="1.95012">
        <ele>80</ele>
        <time>2020-06-28T14:45:07Z</time>
      </trkpt>
      <trkpt lat="49.04048" lon="1.94996">
        <ele>76</ele>
        <time>2020-06-28T14:45:17Z</time>
      </trkpt>
      <trkpt lat="49.04048" lon="1.94981">
        <ele>76</ele>
        <time>2020-06-28T14:45:24Z</time>
      </trkpt>
      <trkpt lat="49.04046" lon="1.94965">
        <ele>75</ele>
        <time>2020-06-28T14:45:32Z</time>
      </trkpt>
      <trkpt lat="49.04045" lon="1.94951">
        <ele>75</ele>
        <time>2020-06-28T14:45:42Z</time>
      </trkpt>
      <trkpt lat="49.04043" lon="1.94935">
        <ele>74</ele>
        <time>2020-06-28T14:45:49Z</time>
      </trkpt>
      <trkpt lat="49.04042" lon="1.94919">
        <ele>74</ele>
        <time>2020-06-28T14:45:57Z</time>
      </trkpt>
      <trkpt lat="49.0404" lon="1.94904">
        <ele>69</ele>
        <time>2020-06-28T14:46:06Z</time>
      </trkpt>
      <trkpt lat="49.04036" lon="1.94889">
        <ele>69</ele>
        <time>2020-06-28T14:46:14Z</time>
      </trkpt>
      <trkpt lat="49.04031" lon="1.94875">
        <ele>68</ele>
        <time>2020-06-28T14:46:22Z</time>
      </trkpt>
      <trkpt lat="49.04026" lon="1.94861">
        <ele>68</ele>
        <time>2020-06-28T14:46:29Z</time>
      </trkpt>
      <trkpt lat="49.04021" lon="1.94847">
        <ele>68</ele>
        <time>2020-06-28T14:46:37Z</time>
      </trkpt>
      <trkpt lat="49.04015" lon="1.94837">
        <ele>68</ele>
        <time>2020-06-28T14:46:44Z</time>
      </trkpt>
      <trkpt lat="49.04006" lon="1.9483">
        <ele>67</ele>
        <time>2020-06-28T14:46:52Z</time>
      </trkpt>
      <trkpt lat="49.03999" lon="1.9482">
        <ele>68</ele>
        <time>2020-06-28T14:47:00Z</time>
      </trkpt>
      <trkpt lat="49.03992" lon="1.94807">
        <ele>68</ele>
        <time>2020-06-28T14:47:10Z</time>
      </trkpt>
      <trkpt lat="49.03988" lon="1.94794">
        <ele>68</ele>
        <time>2020-06-28T14:47:17Z</time>
      </trkpt>
      <trkpt lat="49.03984" lon="1.9478">
        <ele>67</ele>
        <time>2020-06-28T14:47:28Z</time>
      </trkpt>
      <trkpt lat="49.03974" lon="1.94785">
        <ele>68</ele>
        <time>2020-06-28T14:48:32Z</time>
      </trkpt>
      <trkpt lat="49.0397" lon="1.948">
        <ele>69</ele>
        <time>2020-06-28T14:48:42Z</time>
      </trkpt>
      <trkpt lat="49.03963" lon="1.94809">
        <ele>69</ele>
        <time>2020-06-28T14:48:49Z</time>
      </trkpt>
      <trkpt lat="49.03953" lon="1.94814">
        <ele>70</ele>
        <time>2020-06-28T14:48:57Z</time>
      </trkpt>
      <trkpt lat="49.03943" lon="1.94817">
        <ele>71</ele>
        <time>2020-06-28T14:49:06Z</time>
      </trkpt>
      <trkpt lat="49.03933" lon="1.94822">
        <ele>72</ele>
        <time>2020-06-28T14:49:13Z</time>
      </trkpt>
      <trkpt lat="49.0392" lon="1.94827">
        <ele>75</ele>
        <time>2020-06-28T14:50:13Z</time>
      </trkpt>
      <trkpt lat="49.03909" lon="1.94825">
        <ele>76</ele>
        <time>2020-06-28T14:50:24Z</time>
      </trkpt>
      <trkpt lat="49.03899" lon="1.94819">
        <ele>75</ele>
        <time>2020-06-28T14:50:32Z</time>
      </trkpt>
      <trkpt lat="49.0389" lon="1.94816">
        <ele>74</ele>
        <time>2020-06-28T14:50:40Z</time>
      </trkpt>
      <trkpt lat="49.03881" lon="1.94819">
        <ele>74</ele>
        <time>2020-06-28T14:50:47Z</time>
      </trkpt>
      <trkpt lat="49.03872" lon="1.94825">
        <ele>75</ele>
        <time>2020-06-28T14:50:55Z</time>
      </trkpt>
      <trkpt lat="49.03863" lon="1.94832">
        <ele>75</ele>
        <time>2020-06-28T14:51:03Z</time>
      </trkpt>
      <trkpt lat="49.03853" lon="1.94841">
        <ele>81</ele>
        <time>2020-06-28T14:51:12Z</time>
      </trkpt>
      <trkpt lat="49.03845" lon="1.94848">
        <ele>81</ele>
        <time>2020-06-28T14:51:22Z</time>
      </trkpt>
      <trkpt lat="49.03838" lon="1.94857">
        <ele>82</ele>
        <time>2020-06-28T14:51:31Z</time>
      </trkpt>
      <trkpt lat="49.03833" lon="1.94871">
        <ele>83</ele>
        <time>2020-06-28T14:51:39Z</time>
      </trkpt>
      <trkpt lat="49.03824" lon="1.94881">
        <ele>84</ele>
        <time>2020-06-28T14:51:48Z</time>
      </trkpt>
      <trkpt lat="49.03815" lon="1.94889">
        <ele>85</ele>
        <time>2020-06-28T14:51:58Z</time>
      </trkpt>
      <trkpt lat="49.03808" lon="1.949">
        <ele>85</ele>
        <time>2020-06-28T14:52:08Z</time>
      </trkpt>
      <trkpt lat="49.03801" lon="1.9491">
        <ele>85</ele>
        <time>2020-06-28T14:52:16Z</time>
      </trkpt>
      <trkpt lat="49.03795" lon="1.94921">
        <ele>90</ele>
        <time>2020-06-28T14:52:25Z</time>
      </trkpt>
      <trkpt lat="49.03787" lon="1.94931">
        <ele>91</ele>
        <time>2020-06-28T14:52:34Z</time>
      </trkpt>
      <trkpt lat="49.03779" lon="1.9494">
        <ele>91</ele>
        <time>2020-06-28T14:52:41Z</time>
      </trkpt>
      <trkpt lat="49.0377" lon="1.94949">
        <ele>91</ele>
        <time>2020-06-28T14:52:48Z</time>
      </trkpt>
      <trkpt lat="49.03762" lon="1.94961">
        <ele>91</ele>
        <time>2020-06-28T14:52:57Z</time>
      </trkpt>
      <trkpt lat="49.03754" lon="1.94967">
        <ele>92</ele>
        <time>2020-06-28T14:53:04Z</time>
      </trkpt>
      <trkpt lat="49.03745" lon="1.94976">
        <ele>92</ele>
        <time>2020-06-28T14:53:10Z</time>
      </trkpt>
      <trkpt lat="49.03733" lon="1.9499">
        <ele>92</ele>
        <time>2020-06-28T14:53:21Z</time>
      </trkpt>
      <trkpt lat="49.03725" lon="1.95001">
        <ele>94</ele>
        <time>2020-06-28T14:53:29Z</time>
      </trkpt>
      <trkpt lat="49.03716" lon="1.95009">
        <ele>94</ele>
        <time>2020-06-28T14:53:37Z</time>
      </trkpt>
      <trkpt lat="49.03706" lon="1.95017">
        <ele>94</ele>
        <time>2020-06-28T14:53:46Z</time>
      </trkpt>
      <trkpt lat="49.03698" lon="1.95026">
        <ele>94</ele>
        <time>2020-06-28T14:53:53Z</time>
      </trkpt>
      <trkpt lat="49.0369" lon="1.95036">
        <ele>94</ele>
        <time>2020-06-28T14:54:01Z</time>
      </trkpt>
      <trkpt lat="49.0368" lon="1.95046">
        <ele>94</ele>
        <time>2020-06-28T14:54:09Z</time>
      </trkpt>
      <trkpt lat="49.03672" lon="1.95055">
        <ele>94</ele>
        <time>2020-06-28T14:54:16Z</time>
      </trkpt>
      <trkpt lat="49.03664" lon="1.95065">
        <ele>96</ele>
        <time>2020-06-28T14:54:24Z</time>
      </trkpt>
      <trkpt lat="49.03657" lon="1.95074">
        <ele>96</ele>
        <time>2020-06-28T14:54:31Z</time>
      </trkpt>
      <trkpt lat="49.03649" lon="1.95083">
        <ele>96</ele>
        <time>2020-06-28T14:54:38Z</time>
      </trkpt>
      <trkpt lat="49.0364" lon="1.95094">
        <ele>98</ele>
        <time>2020-06-28T14:54:47Z</time>
      </trkpt>
      <trkpt lat="49.03632" lon="1.95104">
        <ele>99</ele>
        <time>2020-06-28T14:54:55Z</time>
      </trkpt>
      <trkpt lat="49.03624" lon="1.95113">
        <ele>99</ele>
        <time>2020-06-28T14:55:03Z</time>
      </trkpt>
      <trkpt lat="49.03618" lon="1.95124">
        <ele>100</ele>
        <time>2020-06-28T14:55:10Z</time>
      </trkpt>
      <trkpt lat="49.03614" lon="1.95137">
        <ele>100</ele>
        <time>2020-06-28T14:55:17Z</time>
      </trkpt>
      <trkpt lat="49.03607" lon="1.9515">
        <ele>100</ele>
        <time>2020-06-28T14:55:25Z</time>
      </trkpt>
      <trkpt lat="49.03603" lon="1.95164">
        <ele>101</ele>
        <time>2020-06-28T14:55:32Z</time>
      </trkpt>
      <trkpt lat="49.03597" lon="1.95177">
        <ele>101</ele>
        <time>2020-06-28T14:55:39Z</time>
      </trkpt>
      <trkpt lat="49.03591" lon="1.95188">
        <ele>101</ele>
        <time>2020-06-28T14:55:48Z</time>
      </trkpt>
      <trkpt lat="49.03583" lon="1.95199">
        <ele>101</ele>
        <time>2020-06-28T14:55:56Z</time>
      </trkpt>
      <trkpt lat="49.03577" lon="1.95209">
        <ele>101</ele>
        <time>2020-06-28T14:56:04Z</time>
      </trkpt>
      <trkpt lat="49.0357" lon="1.95221">
        <ele>101</ele>
        <time>2020-06-28T14:56:12Z</time>
      </trkpt>
      <trkpt lat="49.03559" lon="1.95212">
        <ele>101</ele>
        <time>2020-06-28T14:56:39Z</time>
      </trkpt>
      <trkpt lat="49.03552" lon="1.95202">
        <ele>101</ele>
        <time>2020-06-28T14:56:50Z</time>
      </trkpt>
      <trkpt lat="49.03544" lon="1.95191">
        <ele>102</ele>
        <time>2020-06-28T14:57:02Z</time>
      </trkpt>
      <trkpt lat="49.03534" lon="1.95185">
        <ele>102</ele>
        <time>2020-06-28T14:57:09Z</time>
      </trkpt>
      <trkpt lat="49.03528" lon="1.95172">
        <ele>102</ele>
        <time>2020-06-28T14:57:18Z</time>
      </trkpt>
      <trkpt lat="49.03522" lon="1.9516">
        <ele>102</ele>
        <time>2020-06-28T14:57:27Z</time>
      </trkpt>
      <trkpt lat="49.03515" lon="1.95147">
        <ele>102</ele>
        <time>2020-06-28T14:57:36Z</time>
      </trkpt>
      <trkpt lat="49.03507" lon="1.95136">
        <ele>102</ele>
        <time>2020-06-28T14:57:44Z</time>
      </trkpt>
      <trkpt lat="49.03501" lon="1.95124">
        <ele>101</ele>
        <time>2020-06-28T14:57:51Z</time>
      </trkpt>
      <trkpt lat="49.03493" lon="1.95114">
        <ele>99</ele>
        <time>2020-06-28T14:57:58Z</time>
      </trkpt>
      <trkpt lat="49.03484" lon="1.95106">
        <ele>99</ele>
        <time>2020-06-28T14:58:05Z</time>
      </trkpt>
      <trkpt lat="49.03476" lon="1.95096">
        <ele>99</ele>
        <time>2020-06-28T14:58:14Z</time>
      </trkpt>
      <trkpt lat="49.0347" lon="1.95082">
        <ele>97</ele>
        <time>2020-06-28T14:58:23Z</time>
      </trkpt>
      <trkpt lat="49.03463" lon="1.95071">
        <ele>96</ele>
        <time>2020-06-28T14:58:31Z</time>
      </trkpt>
      <trkpt lat="49.03455" lon="1.9506">
        <ele>95</ele>
        <time>2020-06-28T14:58:39Z</time>
      </trkpt>
      <trkpt lat="49.03448" lon="1.95048">
        <ele>95</ele>
        <time>2020-06-28T14:58:47Z</time>
      </trkpt>
      <trkpt lat="49.03439" lon="1.95038">
        <ele>95</ele>
        <time>2020-06-28T14:58:54Z</time>
      </trkpt>
      <trkpt lat="49.03429" lon="1.95029">
        <ele>94</ele>
        <time>2020-06-28T14:59:02Z</time>
      </trkpt>
      <trkpt lat="49.03422" lon="1.95019">
        <ele>94</ele>
        <time>2020-06-28T14:59:10Z</time>
      </trkpt>
      <trkpt lat="49.03413" lon="1.95013">
        <ele>92</ele>
        <time>2020-06-28T14:59:16Z</time>
      </trkpt>
      <trkpt lat="49.03403" lon="1.95007">
        <ele>92</ele>
        <time>2020-06-28T14:59:25Z</time>
      </trkpt>
      <trkpt lat="49.03395" lon="1.94998">
        <ele>91</ele>
        <time>2020-06-28T14:59:34Z</time>
      </trkpt>
      <trkpt lat="49.03387" lon="1.94988">
        <ele>90</ele>
        <time>2020-06-28T14:59:42Z</time>
      </trkpt>
      <trkpt lat="49.03378" lon="1.94981">
        <ele>90</ele>
        <time>2020-06-28T14:59:50Z</time>
      </trkpt>
      <trkpt lat="49.03368" lon="1.94973">
        <ele>90</ele>
        <time>2020-06-28T14:59:57Z</time>
      </trkpt>
      <trkpt lat="49.03359" lon="1.94967">
        <ele>89</ele>
        <time>2020-06-28T15:00:04Z</time>
      </trkpt>
      <trkpt lat="49.03351" lon="1.94958">
        <ele>89</ele>
        <time>2020-06-28T15:00:12Z</time>
      </trkpt>
      <trkpt lat="49.03343" lon="1.94948">
        <ele>89</ele>
        <time>2020-06-28T15:00:19Z</time>
      </trkpt>
      <trkpt lat="49.03335" lon="1.94938">
        <ele>88</ele>
        <time>2020-06-28T15:00:27Z</time>
      </trkpt>
      <trkpt lat="49.03327" lon="1.94928">
        <ele>86</ele>
        <time>2020-06-28T15:00:35Z</time>
      </trkpt>
      <trkpt lat="49.0332" lon="1.94917">
        <ele>86</ele>
        <time>2020-06-28T15:00:43Z</time>
      </trkpt>
      <trkpt lat="49.03312" lon="1.94906">
        <ele>85</ele>
        <time>2020-06-28T15:00:51Z</time>
      </trkpt>
      <trkpt lat="49.03305" lon="1.94897">
        <ele>84</ele>
        <time>2020-06-28T15:00:58Z</time>
      </trkpt>
      <trkpt lat="49.03297" lon="1.94887">
        <ele>84</ele>
        <time>2020-06-28T15:01:06Z</time>
      </trkpt>
      <trkpt lat="49.03289" lon="1.94877">
        <ele>84</ele>
        <time>2020-06-28T15:01:14Z</time>
      </trkpt>
      <trkpt lat="49.03282" lon="1.94865">
        <ele>84</ele>
        <time>2020-06-28T15:01:22Z</time>
      </trkpt>
      <trkpt lat="49.03276" lon="1.94854">
        <ele>83</ele>
        <time>2020-06-28T15:01:30Z</time>
      </trkpt>
      <trkpt lat="49.03265" lon="1.94866">
        <ele>83</ele>
        <time>2020-06-28T15:01:58Z</time>
      </trkpt>
      <trkpt lat="49.03259" lon="1.94878">
        <ele>83</ele>
        <time>2020-06-28T15:02:05Z</time>
      </trkpt>
      <trkpt lat="49.03253" lon="1.94889">
        <ele>83</ele>
        <time>2020-06-28T15:02:12Z</time>
      </trkpt>
      <trkpt lat="49.03245" lon="1.949">
        <ele>81</ele>
        <time>2020-06-28T15:02:21Z</time>
      </trkpt>
      <trkpt lat="49.03239" lon="1.94911">
        <ele>82</ele>
        <time>2020-06-28T15:02:28Z</time>
      </trkpt>
      <trkpt lat="49.03233" lon="1.94922">
        <ele>83</ele>
        <time>2020-06-28T15:02:35Z</time>
      </trkpt>
      <trkpt lat="49.03225" lon="1.94932">
        <ele>83</ele>
        <time>2020-06-28T15:02:44Z</time>
      </trkpt>
      <trkpt lat="49.03219" lon="1.94943">
        <ele>84</ele>
        <time>2020-06-28T15:02:51Z</time>
      </trkpt>
      <trkpt lat="49.03211" lon="1.94954">
        <ele>84</ele>
        <time>2020-06-28T15:02:59Z</time>
      </trkpt>
      <trkpt lat="49.03205" lon="1.94966">
        <ele>84</ele>
        <time>2020-06-28T15:03:08Z</time>
      </trkpt>
      <trkpt lat="49.03199" lon="1.94977">
        <ele>84</ele>
        <time>2020-06-28T15:03:16Z</time>
      </trkpt>
      <trkpt lat="49.03193" lon="1.94988">
        <ele>84</ele>
        <time>2020-06-28T15:03:22Z</time>
      </trkpt>
      <trkpt lat="49.03186" lon="1.95">
        <ele>86</ele>
        <time>2020-06-28T15:03:30Z</time>
      </trkpt>
      <trkpt lat="49.03179" lon="1.95012">
        <ele>86</ele>
        <time>2020-06-28T15:03:38Z</time>
      </trkpt>
      <trkpt lat="49.03173" lon="1.95023">
        <ele>86</ele>
        <time>2020-06-28T15:03:46Z</time>
      </trkpt>
      <trkpt lat="49.03164" lon="1.95031">
        <ele>84</ele>
        <time>2020-06-28T15:03:55Z</time>
      </trkpt>
      <trkpt lat="49.03155" lon="1.95036">
        <ele>84</ele>
        <time>2020-06-28T15:04:03Z</time>
      </trkpt>
      <trkpt lat="49.03147" lon="1.95043">
        <ele>84</ele>
        <time>2020-06-28T15:04:10Z</time>
      </trkpt>
      <trkpt lat="49.03138" lon="1.95053">
        <ele>84</ele>
        <time>2020-06-28T15:04:18Z</time>
      </trkpt>
      <trkpt lat="49.03128" lon="1.9506">
        <ele>84</ele>
        <time>2020-06-28T15:04:26Z</time>
      </trkpt>
      <trkpt lat="49.03118" lon="1.95069">
        <ele>83</ele>
        <time>2020-06-28T15:04:35Z</time>
      </trkpt>
      <trkpt lat="49.03107" lon="1.95074">
        <ele>83</ele>
        <time>2020-06-28T15:04:43Z</time>
      </trkpt>
      <trkpt lat="49.03098" lon="1.95082">
        <ele>83</ele>
        <time>2020-06-28T15:04:51Z</time>
      </trkpt>
      <trkpt lat="49.03089" lon="1.95088">
        <ele>83</ele>
        <time>2020-06-28T15:04:59Z</time>
      </trkpt>
      <trkpt lat="49.03079" lon="1.95093">
        <ele>82</ele>
        <time>2020-06-28T15:05:07Z</time>
      </trkpt>
      <trkpt lat="49.03068" lon="1.95094">
        <ele>83</ele>
        <time>2020-06-28T15:05:14Z</time>
      </trkpt>
      <trkpt lat="49.03059" lon="1.95101">
        <ele>83</ele>
        <time>2020-06-28T15:05:23Z</time>
      </trkpt>
      <trkpt lat="49.03048" lon="1.95103">
        <ele>83</ele>
        <time>2020-06-28T15:05:32Z</time>
      </trkpt>
      <trkpt lat="49.03037" lon="1.95103">
        <ele>83</ele>
        <time>2020-06-28T15:05:39Z</time>
      </trkpt>
      <trkpt lat="49.03026" lon="1.95101">
        <ele>83</ele>
        <time>2020-06-28T15:05:47Z</time>
      </trkpt>
      <trkpt lat="49.03017" lon="1.95095">
        <ele>83</ele>
        <time>2020-06-28T15:05:54Z</time>
      </trkpt>
      <trkpt lat="49.03007" lon="1.95095">
        <ele>83</ele>
        <time>2020-06-28T15:06:01Z</time>
      </trkpt>
      <trkpt lat="49.02997" lon="1.95096">
        <ele>83</ele>
        <time>2020-06-28T15:06:07Z</time>
      </trkpt>
      <trkpt lat="49.02987" lon="1.95094">
        <ele>84</ele>
        <time>2020-06-28T15:06:15Z</time>
      </trkpt>
      <trkpt lat="49.02977" lon="1.9509">
        <ele>84</ele>
        <time>2020-06-28T15:06:24Z</time>
      </trkpt>
      <trkpt lat="49.02967" lon="1.95088">
        <ele>85</ele>
        <time>2020-06-28T15:06:31Z</time>
      </trkpt>
      <trkpt lat="49.02956" lon="1.95085">
        <ele>85</ele>
        <time>2020-06-28T15:06:39Z</time>
      </trkpt>
      <trkpt lat="49.02947" lon="1.95082">
        <ele>86</ele>
        <time>2020-06-28T15:06:46Z</time>
      </trkpt>
      <trkpt lat="49.02937" lon="1.95077">
        <ele>87</ele>
        <time>2020-06-28T15:06:54Z</time>
      </trkpt>
      <trkpt lat="49.02928" lon="1.95071">
        <ele>87</ele>
        <time>2020-06-28T15:07:02Z</time>
      </trkpt>
      <trkpt lat="49.02919" lon="1.95065">
        <ele>87</ele>
        <time>2020-06-28T15:07:10Z</time>
      </trkpt>
      <trkpt lat="49.0291" lon="1.9506">
        <ele>90</ele>
        <time>2020-06-28T15:07:18Z</time>
      </trkpt>
      <trkpt lat="49.02901" lon="1.95052">
        <ele>90</ele>
        <time>2020-06-28T15:07:26Z</time>
      </trkpt>
      <trkpt lat="49.02892" lon="1.95045">
        <ele>91</ele>
        <time>2020-06-28T15:07:35Z</time>
      </trkpt>
      <trkpt lat="49.02884" lon="1.95039">
        <ele>91</ele>
        <time>2020-06-28T15:07:43Z</time>
      </trkpt>
      <trkpt lat="49.02874" lon="1.95033">
        <ele>91</ele>
        <time>2020-06-28T15:07:51Z</time>
      </trkpt>
      <trkpt lat="49.02864" lon="1.95025">
        <ele>92</ele>
        <time>2020-06-28T15:08:01Z</time>
      </trkpt>
      <trkpt lat="49.02855" lon="1.95015">
        <ele>92</ele>
        <time>2020-06-28T15:08:11Z</time>
      </trkpt>
      <trkpt lat="49.02846" lon="1.95009">
        <ele>93</ele>
        <time>2020-06-28T15:08:19Z</time>
      </trkpt>
      <trkpt lat="49.02837" lon="1.95003">
        <ele>94</ele>
        <time>2020-06-28T15:08:27Z</time>
      </trkpt>
      <trkpt lat="49.02826" lon="1.94998">
        <ele>95</ele>
        <time>2020-06-28T15:08:36Z</time>
      </trkpt>
      <trkpt lat="49.02816" lon="1.94993">
        <ele>95</ele>
        <time>2020-06-28T15:08:44Z</time>
      </trkpt>
      <trkpt lat="49.02806" lon="1.94987">
        <ele>96</ele>
        <time>2020-06-28T15:08:52Z</time>
      </trkpt>
      <trkpt lat="49.02798" lon="1.94976">
        <ele>96</ele>
        <time>2020-06-28T15:09:01Z</time>
      </trkpt>
      <trkpt lat="49.02796" lon="1.94962">
        <ele>96</ele>
        <time>2020-06-28T15:09:09Z</time>
      </trkpt>
      <trkpt lat="49.02797" lon="1.94947">
        <ele>96</ele>
        <time>2020-06-28T15:09:17Z</time>
      </trkpt>
      <trkpt lat="49.02799" lon="1.94931">
        <ele>96</ele>
        <time>2020-06-28T15:09:24Z</time>
      </trkpt>
      <trkpt lat="49.02802" lon="1.94915">
        <ele>96</ele>
        <time>2020-06-28T15:09:31Z</time>
      </trkpt>
      <trkpt lat="49.02805" lon="1.94899">
        <ele>96</ele>
        <time>2020-06-28T15:09:39Z</time>
      </trkpt>
      <trkpt lat="49.02807" lon="1.94883">
        <ele>96</ele>
        <time>2020-06-28T15:09:46Z</time>
      </trkpt>
      <trkpt lat="49.02809" lon="1.94867">
        <ele>96</ele>
        <time>2020-06-28T15:09:53Z</time>
      </trkpt>
      <trkpt lat="49.02811" lon="1.94851">
        <ele>96</ele>
        <time>2020-06-28T15:10:01Z</time>
      </trkpt>
      <trkpt lat="49.02814" lon="1.94834">
        <ele>96</ele>
        <time>2020-06-28T15:10:09Z</time>
      </trkpt>
      <trkpt lat="49.02816" lon="1.94819">
        <ele>95</ele>
        <time>2020-06-28T15:10:17Z</time>
      </trkpt>
      <trkpt lat="49.02819" lon="1.94804">
        <ele>94</ele>
        <time>2020-06-28T15:10:24Z</time>
      </trkpt>
      <trkpt lat="49.02821" lon="1.94788">
        <ele>94</ele>
        <time>2020-06-28T15:10:32Z</time>
      </trkpt>
      <trkpt lat="49.02823" lon="1.94774">
        <ele>94</ele>
        <time>2020-06-28T15:10:38Z</time>
      </trkpt>
      <trkpt lat="49.02823" lon="1.94759">
        <ele>93</ele>
        <time>2020-06-28T15:10:45Z</time>
      </trkpt>
      <trkpt lat="49.02825" lon="1.94744">
        <ele>92</ele>
        <time>2020-06-28T15:10:53Z</time>
      </trkpt>
      <trkpt lat="49.02828" lon="1.9473">
        <ele>92</ele>
        <time>2020-06-28T15:10:59Z</time>
      </trkpt>
      <trkpt lat="49.02828" lon="1.94714">
        <ele>92</ele>
        <time>2020-06-28T15:11:07Z</time>
      </trkpt>
      <trkpt lat="49.0283" lon="1.94698">
        <ele>92</ele>
        <time>2020-06-28T15:11:15Z</time>
      </trkpt>
      <trkpt lat="49.02834" lon="1.94683">
        <ele>91</ele>
        <time>2020-06-28T15:11:23Z</time>
      </trkpt>
      <trkpt lat="49.02838" lon="1.94667">
        <ele>91</ele>
        <time>2020-06-28T15:11:31Z</time>
      </trkpt>
      <trkpt lat="49.02841" lon="1.94652">
        <ele>91</ele>
        <time>2020-06-28T15:11:39Z</time>
      </trkpt>
      <trkpt lat="49.02844" lon="1.94637">
        <ele>91</ele>
        <time>2020-06-28T15:11:47Z</time>
      </trkpt>
      <trkpt lat="49.02847" lon="1.94623">
        <ele>91</ele>
        <time>2020-06-28T15:11:54Z</time>
      </trkpt>
      <trkpt lat="49.02848" lon="1.94607">
        <ele>92</ele>
        <time>2020-06-28T15:12:03Z</time>
      </trkpt>
      <trkpt lat="49.02851" lon="1.94591">
        <ele>93</ele>
        <time>2020-06-28T15:12:10Z</time>
      </trkpt>
      <trkpt lat="49.02853" lon="1.94577">
        <ele>95</ele>
        <time>2020-06-28T15:12:17Z</time>
      </trkpt>
      <trkpt lat="49.02855" lon="1.94561">
        <ele>95</ele>
        <time>2020-06-28T15:12:25Z</time>
      </trkpt>
      <trkpt lat="49.02857" lon="1.94545">
        <ele>95</ele>
        <time>2020-06-28T15:12:33Z</time>
      </trkpt>
      <trkpt lat="49.02862" lon="1.94531">
        <ele>95</ele>
        <time>2020-06-28T15:13:25Z</time>
      </trkpt>
      <trkpt lat="49.02867" lon="1.94516">
        <ele>95</ele>
        <time>2020-06-28T15:13:34Z</time>
      </trkpt>
      <trkpt lat="49.02872" lon="1.94503">
        <ele>95</ele>
        <time>2020-06-28T15:13:40Z</time>
      </trkpt>
      <trkpt lat="49.02879" lon="1.94493">
        <ele>97</ele>
        <time>2020-06-28T15:13:47Z</time>
      </trkpt>
      <trkpt lat="49.02885" lon="1.9448">
        <ele>97</ele>
        <time>2020-06-28T15:13:54Z</time>
      </trkpt>
      <trkpt lat="49.02894" lon="1.94472">
        <ele>97</ele>
        <time>2020-06-28T15:14:02Z</time>
      </trkpt>
      <trkpt lat="49.02904" lon="1.94463">
        <ele>96</ele>
        <time>2020-06-28T15:14:10Z</time>
      </trkpt>
      <trkpt lat="49.02909" lon="1.94449">
        <ele>97</ele>
        <time>2020-06-28T15:14:17Z</time>
      </trkpt>
      <trkpt lat="49.02915" lon="1.94437">
        <ele>96</ele>
        <time>2020-06-28T15:14:24Z</time>
      </trkpt>
      <trkpt lat="49.02923" lon="1.94429">
        <ele>95</ele>
        <time>2020-06-28T15:14:31Z</time>
      </trkpt>
      <trkpt lat="49.02931" lon="1.94419">
        <ele>95</ele>
        <time>2020-06-28T15:14:40Z</time>
      </trkpt>
      <trkpt lat="49.02938" lon="1.94409">
        <ele>92</ele>
        <time>2020-06-28T15:14:49Z</time>
      </trkpt>
      <trkpt lat="49.02946" lon="1.94401">
        <ele>91</ele>
        <time>2020-06-28T15:14:57Z</time>
      </trkpt>
      <trkpt lat="49.02955" lon="1.94392">
        <ele>90</ele>
        <time>2020-06-28T15:15:05Z</time>
      </trkpt>
      <trkpt lat="49.02957" lon="1.94377">
        <ele>89</ele>
        <time>2020-06-28T15:15:36Z</time>
      </trkpt>
      <trkpt lat="49.02961" lon="1.94364">
        <ele>88</ele>
        <time>2020-06-28T15:16:20Z</time>
      </trkpt>
      <trkpt lat="49.02968" lon="1.94353">
        <ele>87</ele>
        <time>2020-06-28T15:16:29Z</time>
      </trkpt>
      <trkpt lat="49.02976" lon="1.94345">
        <ele>86</ele>
        <time>2020-06-28T15:16:37Z</time>
      </trkpt>
      <trkpt lat="49.02966" lon="1.94343">
        <ele>87</ele>
        <time>2020-06-28T15:18:02Z</time>
      </trkpt>
      <trkpt lat="49.02956" lon="1.94329">
        <ele>81</ele>
        <time>2020-06-28T15:21:40Z</time>
      </trkpt>
      <trkpt lat="49.02953" lon="1.94315">
        <ele>80</ele>
        <time>2020-06-28T15:21:48Z</time>
      </trkpt>
      <trkpt lat="49.02954" lon="1.943">
        <ele>79</ele>
        <time>2020-06-28T15:21:58Z</time>
      </trkpt>
      <trkpt lat="49.02952" lon="1.94285">
        <ele>78</ele>
        <time>2020-06-28T15:22:07Z</time>
      </trkpt>
      <trkpt lat="49.02947" lon="1.94271">
        <ele>78</ele>
        <time>2020-06-28T15:22:14Z</time>
      </trkpt>
      <trkpt lat="49.02944" lon="1.94257">
        <ele>77</ele>
        <time>2020-06-28T15:22:22Z</time>
      </trkpt>
      <trkpt lat="49.0294" lon="1.94243">
        <ele>72</ele>
        <time>2020-06-28T15:22:31Z</time>
      </trkpt>
      <trkpt lat="49.02935" lon="1.9423">
        <ele>72</ele>
        <time>2020-06-28T15:22:41Z</time>
      </trkpt>
      <trkpt lat="49.02931" lon="1.94217">
        <ele>71</ele>
        <time>2020-06-28T15:22:50Z</time>
      </trkpt>
      <trkpt lat="49.0293" lon="1.94201">
        <ele>70</ele>
        <time>2020-06-28T15:22:59Z</time>
      </trkpt>
      <trkpt lat="49.02933" lon="1.94187">
        <ele>69</ele>
        <time>2020-06-28T15:23:08Z</time>
      </trkpt>
      <trkpt lat="49.02936" lon="1.94171">
        <ele>69</ele>
        <time>2020-06-28T15:23:18Z</time>
      </trkpt>
      <trkpt lat="49.02936" lon="1.94153">
        <ele>65</ele>
        <time>2020-06-28T15:23:27Z</time>
      </trkpt>
      <trkpt lat="49.02938" lon="1.94138">
        <ele>64</ele>
        <time>2020-06-28T15:23:33Z</time>
      </trkpt>
      <trkpt lat="49.02937" lon="1.94121">
        <ele>63</ele>
        <time>2020-06-28T15:23:41Z</time>
      </trkpt>
      <trkpt lat="49.02937" lon="1.94106">
        <ele>63</ele>
        <time>2020-06-28T15:23:49Z</time>
      </trkpt>
      <trkpt lat="49.02939" lon="1.9409">
        <ele>62</ele>
        <time>2020-06-28T15:23:57Z</time>
      </trkpt>
      <trkpt lat="49.02941" lon="1.94075">
        <ele>59</ele>
        <time>2020-06-28T15:24:05Z</time>
      </trkpt>
      <trkpt lat="49.02942" lon="1.94061">
        <ele>59</ele>
        <time>2020-06-28T15:24:12Z</time>
      </trkpt>
      <trkpt lat="49.02944" lon="1.94045">
        <ele>58</ele>
        <time>2020-06-28T15:24:20Z</time>
      </trkpt>
      <trkpt lat="49.02946" lon="1.94029">
        <ele>58</ele>
        <time>2020-06-28T15:24:29Z</time>
      </trkpt>
      <trkpt lat="49.02948" lon="1.94013">
        <ele>58</ele>
        <time>2020-06-28T15:24:37Z</time>
      </trkpt>
      <trkpt lat="49.0295" lon="1.93996">
        <ele>56</ele>
        <time>2020-06-28T15:24:45Z</time>
      </trkpt>
      <trkpt lat="49.02952" lon="1.93982">
        <ele>56</ele>
        <time>2020-06-28T15:24:53Z</time>
      </trkpt>
      <trkpt lat="49.02954" lon="1.93966">
        <ele>55</ele>
        <time>2020-06-28T15:25:02Z</time>
      </trkpt>
      <trkpt lat="49.02954" lon="1.93949">
        <ele>55</ele>
        <time>2020-06-28T15:25:10Z</time>
      </trkpt>
      <trkpt lat="49.02956" lon="1.93932">
        <ele>55</ele>
        <time>2020-06-28T15:25:18Z</time>
      </trkpt>
      <trkpt lat="49.02957" lon="1.93916">
        <ele>54</ele>
        <time>2020-06-28T15:25:26Z</time>
      </trkpt>
      <trkpt lat="49.02956" lon="1.939">
        <ele>54</ele>
        <time>2020-06-28T15:25:34Z</time>
      </trkpt>
      <trkpt lat="49.02958" lon="1.93885">
        <ele>54</ele>
        <time>2020-06-28T15:25:42Z</time>
      </trkpt>
      <trkpt lat="49.02958" lon="1.9387">
        <ele>54</ele>
        <time>2020-06-28T15:25:49Z</time>
      </trkpt>
      <trkpt lat="49.02957" lon="1.93855">
        <ele>54</ele>
        <time>2020-06-28T15:25:57Z</time>
      </trkpt>
      <trkpt lat="49.02952" lon="1.93842">
        <ele>53</ele>
        <time>2020-06-28T15:26:05Z</time>
      </trkpt>
      <trkpt lat="49.02947" lon="1.9383">
        <ele>52</ele>
        <time>2020-06-28T15:26:12Z</time>
      </trkpt>
      <trkpt lat="49.02949" lon="1.93815">
        <ele>52</ele>
        <time>2020-06-28T15:26:20Z</time>
      </trkpt>
      <trkpt lat="49.02959" lon="1.93809">
        <ele>52</ele>
        <time>2020-06-28T15:26:27Z</time>
      </trkpt>
      <trkpt lat="49.02968" lon="1.93801">
        <ele>52</ele>
        <time>2020-06-28T15:26:36Z</time>
      </trkpt>
      <trkpt lat="49.02975" lon="1.9379">
        <ele>52</ele>
        <time>2020-06-28T15:26:44Z</time>
      </trkpt>
      <trkpt lat="49.02982" lon="1.93781">
        <ele>51</ele>
        <time>2020-06-28T15:26:55Z</time>
      </trkpt>
      <trkpt lat="49.02989" lon="1.93769">
        <ele>51</ele>
        <time>2020-06-28T15:27:03Z</time>
      </trkpt>
      <trkpt lat="49.02996" lon="1.93759">
        <ele>50</ele>
        <time>2020-06-28T15:27:10Z</time>
      </trkpt>
      <trkpt lat="49.03004" lon="1.93753">
        <ele>49</ele>
        <time>2020-06-28T15:27:18Z</time>
      </trkpt>
      <trkpt lat="49.03012" lon="1.93745">
        <ele>48</ele>
        <time>2020-06-28T15:27:25Z</time>
      </trkpt>
      <trkpt lat="49.03019" lon="1.93733">
        <ele>47</ele>
        <time>2020-06-28T15:27:34Z</time>
      </trkpt>
      <trkpt lat="49.03023" lon="1.93722">
        <ele>46</ele>
        <time>2020-06-28T15:27:41Z</time>
      </trkpt>
      <trkpt lat="49.03031" lon="1.9371">
        <ele>46</ele>
        <time>2020-06-28T15:27:51Z</time>
      </trkpt>
    </trkseg>
  </trk>
</gpx>